     2              OBSERVATION DATA    GPS                 RINEX VERSION / TYPE
teqc 1997Jul24 19970813                                     PGM / RUN BY / DATE
                                                            COMMENT
BIT 2 OF LLI FLAGS DATA COLLECTED UNDER A-S CONDITION       COMMENT
BIT 2 OF LLI FLAGS DATA COLLECTED UNDER A-S CONDITION       COMMENT
Original Marker Name: 55496.YUMA                            COMMENT
Campaign Name: TREX12                                       COMMENT
4-Character Station Name: YUMA                              COMMENT
6-Character Antenna Code: TI4100                            COMMENT
Vertical Measurement Point: PAE                             COMMENT
Vertical Offset to Rinex Ref. Point: 0.0000                 COMMENT
Radial Measurement Point: RRP                               COMMENT
Radial Offset to Rinex Ref. Point: 0.0000                   COMMENT
Antenna Height from Field Measurement: 1.4650 m             COMMENT
Original XYZ: -2197478.5461 -4889611.5156 3444783.6678      COMMENT
New XYZ position is based on association with SCEC monument COMMENT
E1C9S0R6+0011. Position of that monument is believed to be  COMMENT
valid to within 1 m horizontally; vertical accuracy         COMMENT
should be no worse than 3-times this value.                 COMMENT
                                                            COMMENT
Revised Rinex header created by UCSD GPS archive for        COMMENT
GSAC on 12-Apr-1999 (1999:102) 01:35:08 GMT                 COMMENT
For assistance contact dagnew@ucsd.edu or hjohnson@ucsd.edu COMMENT
                                                            COMMENT
YUMA NCMN 1983                                              MARKER NAME
5 NATIONAL GEODETIC SURVEY                                  OBSERVER / AGENCY
UT28 TI 4100 1.5                                            REC # / TYPE / VERS
4078 TI 4100                                                ANT # / TYPE
 -2196778.0000 -4887337.0000  3448425.0000                  APPROX POSITION XYZ
        1.4650        0.0000        0.0000                  ANTENNA: DELTA H/E/N
     1     1     0                                          WAVELENGTH FACT L1/2
     4    P1    P2    L1    L2                              # / TYPES OF OBSERV
    30                                                      INTERVAL
  1988     3    21     2    34   59.000000                  TIME OF FIRST OBS
  1988     3    21     8    35   59.000000                  TIME OF LAST OBS
     0                                                      # OF SATELLITES
                                                            END OF HEADER
 88  3 21  2 34 59.0800000  0  2G 8G11
  21500805.556    21500808.266      540482.091 9  -1208892.961 8
  24554150.248    24554154.169      390909.730 8  -1353977.630 8
 88  3 21  2 35 29.0800000  0  2G 8G11
  21484377.078    21484380.267      454154.352 9  -1276161.283 8
  24532590.434    24532595.932      277614.991 8  -1442259.096 7
 88  3 21  2 35 59.0800000  0  2G 8G11
  21468041.390    21468045.658      368307.441 9  -1343054.924 8
  24511039.894    24511046.218      164369.010 8  -1530502.557 8
 88  3 21  2 36 29.0800000  0  3G 6G 8G11
                  22236094.523     -430130.032 9
  21451797.567    21451800.171      282944.169 9  -1409571.697 9
  24489500.308    24489505.235       51174.880 9  -1618705.626 8
 88  3 21  2 36 59.0800000  0  3G 6G 8G11
  22523613.013    22523616.136     -494811.599 9    783707.212 8
  21435645.206    21435649.414      198067.504 9  -1475709.305 9
  24467969.610    24467975.303      -61964.906 8  -1706866.336 8
 88  3 21  2 37 29.0800000  0  3G 6G 8G11
  22511307.326    22511309.744     -559480.573 9    733315.869 9
  21419588.231    21419591.150      113681.138 8  -1541464.859 8
  24446451.141    24446456.227     -175047.434 8  -1794982.431 8
 88  3 21  2 37 59.0800000  0  3G 6G 8G11
  22499004.242    22499006.414     -624136.098 9    682935.009 9
  21403623.865    21403626.299       29788.085 9  -1606836.035 8
  24424944.784    24424948.675     -288069.664 9  -1883051.553 8
 88  3 21  2 38 29.0800000  0  3G 6G 8G11
  22486701.926    22486705.643     -688777.712 9    632564.967 8
  21387752.637    21387756.515      -53608.621 9  -1671820.427 8
  24403447.644    24403453.528     -401029.271 9  -1971071.889 7
 88  3 21  2 38 59.0800000  0  3G 6G 8G11
  22474405.021    22474406.152     -753404.263 9    582206.675 9
  21371978.971    21371981.861     -136505.658 9  -1736415.473 8
  24381963.916    24381969.728     -513923.100 8  -2059040.973 7
 88  3 21  2 39 29.0800000  0  3G 6G 8G11
  22462108.656    22462111.462     -818014.409 9    531861.166 9
  21356298.642    21356303.107     -218899.966 9  -1800618.777 8
  24360493.809    24360500.118     -626747.983 7  -2146956.358 8
 88  3 21  2 39 59.0800000  0  3G 6G 8G11
  22449817.793    22449820.569     -882607.839 9    481528.677 9
  21340715.873    21340719.937     -300789.095 9  -1864428.442 8
  24339038.697    24339043.792     -739501.208 8  -2234815.881 8
 88  3 21  2 40 29.0800000  0  3G 6G 8G11
  22437529.046    22437532.261     -947183.751 9    431209.850 8
  21325229.892    21325232.383     -382169.973 9  -1927842.074 8
  24317596.264    24317600.859     -852180.359 8  -2322617.701 7
 88  3 21  2 40 59.0800000  0  3G 6G 8G11
  22425243.520    22425246.228    -1011740.826 9    380905.680 9
  21309841.013    21309843.905     -463038.976 9  -1990856.830 8
  24296167.523    24296173.817     -964782.216 8  -2410359.283 8
 88  3 21  2 41 29.0800000  0  3G 6G 8G11
  22412962.601    22412966.136    -1076277.887 9    330617.126 9
  21294549.823    21294553.330     -543393.440 9  -2053470.653 8
  24274756.489    24274761.771    -1077304.087 8  -2498038.554 8
 88  3 21  2 41 59.0800000  0  3G 6G 8G11
  22400686.059    22400688.489    -1140793.833 9    280345.016 9
  21279357.968    21279361.602     -623229.607 9  -2115680.618 8
  24253359.976    24253365.604    -1189742.855 9  -2585653.079 8
 88  3 21  2 42 29.0800000  0  3G 6G 8G11
  22388412.972    22388416.062    -1205287.868 9    230089.976 9
  21264264.589    21264268.151     -702544.786 9  -2177484.612 8
  24231980.843    24231984.991    -1302095.370 7  -2673200.396 7
 88  3 21  2 42 59.0800000  0  3G 6G 8G11
  22376144.324    22376147.330    -1269758.510 9    179853.185 9
  21249271.330    21249274.436     -781335.699 9  -2238880.100 8
  24210617.140    24210621.797    -1414358.705 8  -2760678.235 8
 88  3 21  2 43 29.0800000  0  3G 6G 8G11
  22363880.602    22363883.896    -1334205.015 9    129635.179 8
  21234378.094    21234380.513     -859599.864 9  -2299865.116 8
  24189271.299    24189276.675    -1526530.057 9  -2848084.385 8
 88  3 21  2 43 59.0800000  0  3G 6G 8G11
  22351621.613    22351623.709    -1398626.602 9     79436.595 9
  21219585.592    21219588.183     -937334.555 9  -2360437.556 7
  24167943.792    24167948.562    -1638606.939 8  -2935416.941 8
 88  3 21  2 44 29.0800000  0  3G 6G 8G11
  22339367.668    22339370.283    -1463022.070 9     29258.358 8
  21204893.471    21204896.534    -1014536.589 9  -2420594.930 8
  24146634.789    24146639.676    -1750586.784 8  -3022673.889 8
 88  3 21  2 44 59.0800000  0  3G 6G 8G11
  22327117.923    22327121.847    -1527390.021 9    -20898.442 9
  21190304.805    21190309.054    -1091202.807 9  -2480334.798 8
  24125344.184    24125350.288    -1862465.858 9  -3109852.300 9
 88  3 21  2 45 29.0800000  0  3G 6G 8G11
  22314874.587    22314878.469    -1591729.208 9    -71032.818 9
  21175818.851    21175821.083    -1167330.610 9  -2539655.107 8
  24104074.129    24104079.168    -1974241.140 9  -3196949.847 8
 88  3 21  2 45 59.0800000  0  3G 6G 8G11
  22302637.013    22302640.218    -1656039.016 9   -121144.306 9
  21161434.979    21161438.226    -1242916.994 9  -2598553.542 8
  24082824.380    24082829.830    -2085909.947 9  -3283964.413 8
 88  3 21  2 46 29.0800000  0  3G 6G 8G11
  22290405.382    22290408.119    -1720317.883 9   -171231.696 9
  21147154.818    21147157.995    -1317958.936 9  -2657027.750 8
  24061595.899    24061599.969    -2197469.451 8  -3370893.808 9
 88  3 21  2 46 59.0800000  0  3G 6G 8G11
  22278180.285    22278182.284    -1784564.546 9   -221293.983 8
  21132978.829    21132981.477    -1392453.156 8  -2715075.158 7
  24040387.487    24040391.749    -2308916.505 9  -3457735.585 9
 88  3 21  2 47 29.0800000  0  3G 6G 8G11
  22265959.891    22265962.471    -1848778.289 9   -271330.616 8
  21118907.526    21118910.961    -1466397.388 8  -2772693.986 8
  24019201.082    24019207.792    -2420248.934 8  -3544488.040 9
 88  3 21  2 47 59.0800000  0  3G 6G 8G11
  22253747.769    22253749.678    -1912957.958 9   -321340.712 9
  21104941.153    21104945.360    -1539788.963 9  -2829882.205 8
  23998037.047    23998044.439    -2531463.659 7  -3631148.781 9
 88  3 21  2 48 29.0800000  0  3G 6G 8G11
  22241541.734    22241544.187    -1977102.025 9   -371323.059 8
  21091081.111    21091084.332    -1612625.043 9  -2886637.552 8
  23976897.418    23976903.219    -2642557.417 8  -3717715.252 8
 88  3 21  2 48 59.0800000  0  3G 6G 8G11
  22229341.870    22229343.405    -2041209.073 9   -421276.548 9
  21077328.273    21077330.049    -1684902.077 9  -2942957.284 8
  23955780.064    23955785.319    -2753527.186 8  -3804185.099 7
 88  3 21  2 49 29.0800000  0  3G 6G 8G11
  22217150.131    22217152.070    -2105278.020 9   -471200.361 9
  21063680.265    21063683.658    -1756617.759 9  -2998839.589 9
  23934687.051    23934692.815    -2864369.941 8  -3890555.977 8
 88  3 21  2 50 29.0800000  0  3G 6G 8G11
  22192784.721    22192786.596    -2295072.539 9   -570971.667 8
  21036703.626    21036706.817    -1924180.317 9  -3051851.270 8
  23892570.808    23892576.730    -3120775.023 8  -4063010.649 9
 88  3 21  2 50 59.0800000  0  3G 6G 8G11
  22180613.093    22180614.882    -2359032.011 9   -620810.195 8
  21023378.061    21023381.842    -1994208.274 8  -3106418.467 9
  23871553.340    23871558.416    -3231232.095 8  -4149080.992 8
 88  3 21  2 51 29.0800000  0  3G 6G 8G11
  22168450.652    22168452.797    -2422946.595 9   -670613.717 8
  21010161.784    21010165.342    -2063662.561 9  -3160538.657 8
  23850561.239    23850565.772    -3341548.820 9  -4235041.998 8
 88  3 21  2 51 59.0800000  0  3G 6G 8G11
  22156296.882    22156299.871    -2486814.150 9   -720380.608 8
  20997054.709    20997056.824    -2132539.618 9  -3214209.052 8
  23829595.185    23829600.329    -3451721.715 9  -4320890.925 7
 88  3 21  2 52 29.0800000  0  3G 6G 8G11
  22144153.557    22144155.103    -2550633.710 9   -770110.082 9
  20984056.868    20984060.910    -2200837.194 8  -3267427.904 8
  23808657.117    23808663.002    -3561747.759 9  -4406625.430 8
 88  3 21  2 52 59.0800000  0  3G 6G 8G11
  22132017.616    22132019.262    -2614404.623 9   -819801.656 9
  20971172.422    20971175.056    -2268553.363 8  -3320193.704 8
  23787749.140    23787754.710    -3671624.732 9  -4492243.779 8
 88  3 21  2 53 29.0800000  0  3G 6G 8G11
  22119891.864    22119894.410    -2678126.069 9   -869454.707 9
  20958396.909    20958400.327    -2335686.038 9  -3372504.831 9
  23766869.903    23766873.777    -3781350.214 9  -4577744.086 8
 88  3 21  2 53 59.0800000  0  3G 6G 8G11
  22107775.240    22107777.015    -2741796.236 9   -919067.784 9
  20945733.993    20945737.080    -2402232.190 9  -3424358.939 8
  23746018.155    23746023.174    -3890921.225 9  -4663124.034 8
 88  3 21  2 54 29.0800000  0  3G 6G 8G11
  22095669.520    22095671.338    -2805414.449 9   -968640.375 9
  20933182.731    20933185.283    -2468189.688 9  -3475754.367 7
  23725198.011    23725201.957    -4000335.278 9  -4748381.662 8
 88  3 21  2 54 59.0800000  0  3G 6G 8G11
  22083572.987    22083574.934    -2868979.929 9  -1018171.878 9
  20920743.570    20920747.049    -2533556.872 9  -3526689.786 7
  23704405.811    23704409.119    -4109590.150 9  -4833515.280 7
 88  3 21  2 55 29.0800000  0  3G 6G 8G11
  22071486.871    22071489.433    -2932491.362 9  -1067661.271 8
  20908418.046    20908420.209    -2598330.962 9  -3577163.072 8
  23683645.594    23683651.240    -4218683.114 9  -4918522.699 7
 88  3 21  2 55 59.0800000  0  3G 6G 8G11
  22059412.373    22059414.405    -2995947.374 9  -1117107.472 8
  20896204.684    20896207.482    -2662509.865 9  -3627172.577 7
  23662918.382    23662922.103    -4327611.008 8  -5003401.510 7
 88  3 21  2 56 29.0800000  0  3G 6G 8G11
  22047347.578    22047349.997    -3059346.431 9  -1166509.296 7
  20884106.426    20884107.989    -2726091.188 8  -3676716.421 7
  23642221.355    23642226.155    -4436370.924 9  -5088149.423 7
 88  3 21  2 56 59.0800000  0  3G 6G 8G11
  22035294.345    22035296.191    -3122687.384 9  -1215865.837 8
  20872120.892    20872123.203    -2789072.458 9  -3725792.708 7
  23621557.569    23621562.641    -4544960.027 9  -5172764.229 8
 88  3 21  2 57 29.0800000  0  3G 6G 8G11
  22023251.901    22023253.703    -3185969.108 9  -1265176.242 9
  20860250.721    20860253.194    -2851451.927 9  -3774400.046 8
  23600926.000    23600931.562    -4653375.817 8  -5257243.978 7
 88  3 21  2 57 59.0800000  0  3G 6G 8G11
  22011220.732    22011223.894    -3249189.866 9  -1314439.130 8
  20848495.394    20848497.772    -2913226.708 9  -3822536.204 7
  23580328.940    23580335.289    -4761614.966 8  -5341586.090 8
 88  3 21  2 58 29.0800000  0  3G 6G 8G11
  21999201.610    21999205.016    -3312348.356 9  -1363653.504 9
  20836854.447    20836856.985    -2974394.497 9  -3870199.382 7
  23559767.224    23559771.395    -4869674.816 9  -5425788.498 9
 88  3 21  2 58 59.0800000  0  3G 6G 8G11
  21987195.369    21987197.945    -3375443.639 9  -1412818.620 8
  20825330.906    20825333.556    -3034953.933 9  -3917388.512 8
  23539237.500    23539242.684    -4977553.029 9  -5509849.366 8
 88  3 21  2 59 29.0800000  0  3G 6G 8G11
  21975201.260    21975204.294    -3438474.049 9  -1461933.192 8
  20813923.359    20813925.381    -3094901.776 9  -3964101.082 8
  23518743.785    23518749.272    -5085246.774 8  -5593766.513 8
 88  3 21  2 59 59.0800000  0  3G 6G 8G11
  21963220.060    21963221.905    -3501438.087 9  -1510996.050 8
  20802632.379    20802634.519    -3154236.384 9  -4010335.821 7
  23498286.420    23498291.785    -5192752.922 8  -5677537.465 8
 88  3 21  3  0 29.0800000  0  3G 6G 8G11
  21951251.451    21951253.482    -3564333.955 9  -1560005.787 9
  20791457.989    20791460.531    -3212955.162 9  -4056090.671 8
  23477865.598    23477870.106    -5300068.138 9  -5761159.670 8
 88  3 21  3  0 59.0800000  0  3G 6G 8G11
  21939294.718    21939297.536    -3627160.573 9  -1608961.552 8
  20780402.314    20780405.093    -3271056.302 9  -4101364.257 8
  23457480.494    23457485.578    -5407190.231 8  -5844631.372 8
 88  3 21  3  1 29.0800000  0  3G 6G 8G11
  21927353.953    21927355.757    -3689916.196 9  -1657862.011 8
  20769463.585    20769467.260    -3328537.554 9  -4146154.817 8
  23437134.054    23437138.128    -5514116.190 9  -5927950.239 8
 88  3 21  3  1 59.0800000  0  3G 6G 8G11
  21915424.782    21915427.243    -3752599.577 9  -1706706.155 9
  20758642.455    20758645.722    -3385396.718 9  -4190460.622 8
  23416823.550    23416828.561    -5620843.332 8  -6011114.205 8
 88  3 21  3  2 29.0800000  0  3G 6G 8G11
  21903511.262    21903512.980    -3815209.070 9  -1755492.757 8
  20747942.534    20747945.353    -3441632.002 9  -4234280.298 7
  23396552.544    23396557.369    -5727368.782 8  -6094120.991 9
 88  3 21  3  2 59.0800000  0  3G 6G 8G11
  21891611.624    21891614.185    -3877743.235 9  -1804220.652 8
  20737359.798    20737363.078    -3497241.263 9  -4277612.176 7
  23376320.557    23376325.055    -5833689.418 9  -6176968.191 8
 88  3 21  3  3 29.0800000  0  3G 6G 8G11
  21879726.409    21879727.868    -3940200.449 9  -1852888.567 8
  20726896.812    20726901.078    -3552222.559 9  -4320454.695 8
  23356127.368    23356132.184    -5939802.475 9  -6259653.638 9
 88  3 21  3  3 59.0800000  0  3G 6G 8G11
  21867855.474    21867857.478    -4002579.086 9  -1901495.265 9
  20716554.095    20716557.417    -3606573.941 8  -4362806.387 7
  23335974.982    23335979.800    -6045705.419 8  -6342175.343 9
 88  3 21  3  4 29.0800000  0  3G 6G 8G11
  21856000.165    21856002.928    -4064877.731 9  -1950039.644 8
  20706330.795    20706334.611    -3660293.329 9  -4404665.612 7
  23315862.446    23315868.262    -6151395.434 9  -6424531.158 8
 88  3 21  3  4 59.0800000  0  3G 6G 8G11
  21844161.025    21844162.528    -4127095.002 9  -1998520.603 9
  20696229.731    20696233.297    -3713379.084 8  -4446031.096 8
  23295792.691    23295796.823    -6256869.372 9  -6506718.577 7
 88  3 21  3  5 29.0800000  0  3G 6G 8G11
  21832337.683    21832339.228    -4189228.727 9  -2046936.472 9
  20686248.928    20686252.570    -3765828.913 9  -4486901.055 8
  23275762.540    23275767.234    -6362124.189 9  -6588735.256 8
 88  3 21  3  5 59.0800000  0  3G 6G 8G11
  21820529.566    21820531.970    -4251277.692 9  -2095286.278 9
  20676389.619    20676393.771    -3817640.724 8  -4527273.864 8
  23255774.923    23255778.852    -6467157.476 9  -6670579.328 9
 88  3 21  3  6 29.0800000  0  3G 6G 8G11
  21808738.677    21808740.953    -4313240.574 9  -2143569.021 8
  20666652.230    20666653.482    -3868813.165 9  -4567148.468 8
  23235830.152    23235835.439    -6571966.546 8  -6752248.664 9
 88  3 21  3  6 59.0800000  0  3G 6G 8G11
  21796963.986    21796966.405    -4375115.782 9  -2191783.434 9
  20657035.787    20657039.165    -3919344.448 9  -4606523.457 7
  23215929.420    23215933.317    -6676548.558 9  -6833741.104 8
 88  3 21  3  7 29.0800000  0  3G 6G 8G11
  21785206.867    21785210.444    -4436901.291 9  -2239927.951 8
  20647542.724    20647545.157    -3969232.233 9  -4645397.028 7
  23196071.839    23196076.332    -6780900.471 9  -6915054.220 9
 88  3 21  3  7 59.0800000  0  3G 6G 8G11
  21773466.289    21773468.965    -4498595.626 9  -2288001.438 8
  20638171.247    20638175.300    -4018475.262 9  -4683768.177 9
  23176258.583    23176262.125    -6885019.801 9  -6996186.117 8
 88  3 21  3  8 29.0800000  0  3G 6G 8G11
  21761744.313    21761746.502    -4560197.001 9  -2336002.484 9
  20628924.734    20628926.966    -4067071.318 9  -4721635.201 8
  23156490.305    23156494.870    -6988903.469 9  -7077134.384 9
 88  3 21  3  8 59.0800000  0  3G 6G 8G11
  21750039.566    21750043.028    -4621703.558 9  -2383929.647 8
  20619801.039    20619802.180    -4115018.595 9  -4758996.686 8
  23136767.365    23136770.993    -7092548.583 9  -7157896.747 8
 88  3 21  3  9 29.0800000  0  3G 6G 8G11
  21738353.563    21738357.026    -4683113.621 9  -2431781.605 8
  20610800.705    20610803.303    -4162315.616 8  -4795851.495 9
  23117089.135    23117094.262    -7195952.320 9  -7238471.050 8
 88  3 21  3  9 59.0800000  0  3G 6G 8G11
  21726685.847    21726688.853    -4744425.831 9  -2479557.338 8
  20601924.016    20601927.096    -4208960.806 8  -4832198.358 9
  23097459.219    23097463.066    -7299112.270 9  -7318855.378 9
 88  3 21  3 10 29.0800000  0  3G 6G 8G11
  21715038.537    21715040.182    -4805638.270 9  -2527255.310 9
  20593171.855    20593175.418    -4254952.563 9  -4868036.048 8
  23077875.520    23077879.833    -7402025.394 9  -7399047.378 8
 88  3 21  3 10 59.0800000  0  3G 6G 8G11
  21703408.540    21703411.316    -4866749.147 9  -2574874.156 9
  20584544.949    20584546.598    -4300289.367 9  -4903363.411 7
  23058339.355    23058344.188    -7504688.906 9  -7479044.884 8
 88  3 21  3 11 29.0800000  0  3G 6G 8G11
  21691799.406    21691803.341    -4927756.444 8  -2622412.294 9
  20576042.540    20576044.668    -4344969.188 9  -4938178.829 7
  23038850.117    23038854.566    -7607099.523 8  -7558845.320 8
 88  3 21  3 11 59.0800000  0  3G 6G 8G11
  21680210.362    21680211.780    -4988658.717 9  -2669868.571 9
  20567664.461    20567667.229    -4388990.987 9  -4972481.494 7
  23019411.604    23019415.321    -7709254.885 9  -7638446.853 8
 88  3 21  3 12 29.0800000  0  3G 6G 8G11
  21668641.238    21668643.341    -5049454.079 9  -2717241.559 9
  20559413.664    20559417.128    -4432352.648 9  -5006269.763 8
  23000020.212    23000024.115    -7811152.210 9  -7717847.320 8
 88  3 21  3 12 59.0800000  0  3G 6G 8G11
  21657093.491    21657095.322    -5110140.767 9  -2764529.866 9
  20551288.855    20551290.804    -4475053.039 9  -5039542.761 8
  22980680.677    22980684.618    -7912788.957 9  -7797044.719 8
 88  3 21  3 13 29.0800000  0  3G 6G 8G11
  21645566.349    21645567.965    -5170717.058 9  -2811732.147 9
  20543289.239    20543290.451    -4517090.702 8  -5072299.376 8
  22961389.255    22961392.762    -8014161.891 8  -7876036.568 8
 88  3 21  3 13 59.0800000  0  3G 6G 8G11
  21634059.784    21634063.146    -5231181.294 9  -2858847.110 8
  20535416.294    20535417.808    -4558464.180 8  -5104538.413 7
  22942149.701    22942152.743    -8115268.857 9  -7954821.169 8
 88  3 21  3 14 29.0800000  0  3G 6G 8G11
  21622575.654    21622578.502    -5291531.899 9  -2905873.522 9
  20527669.236    20527671.890    -4599172.451 9  -5136259.133 7
  22922959.776    22922963.908    -8216107.097 8  -8033396.383 8
 88  3 21  3 14 59.0800000  0  3G 6G 8G11
  21611113.105    21611115.522    -5351766.910 9  -2952809.866 8
  20520049.454    20520050.751    -4639214.395 9  -5167460.610 8
  22903823.095    22903828.038    -8316673.793 9  -8111759.995 9
 88  3 21  3 15 29.0800000  0  3G 6G 8G11
  21599672.991    21599675.195    -5411884.509 9  -2999654.735 8
  20512557.185    20512558.992    -4678588.289 9  -5198141.563 7
  22884737.601    22884742.216    -8416966.207 9  -8189909.893 8
 88  3 21  3 15 59.0800000  0  3G 6G 8G11
  21588255.400    21588257.318    -5471883.363 9  -3046407.060 9
  20505191.520    20505192.446    -4717293.272 9  -5228301.277 6
  22865706.214    22865710.846    -8516982.159 8  -8267844.344 8
 88  3 21  3 16 29.0800000  0  3G 6G 8G11
  21576860.503    21576863.193    -5531760.912 9  -3093064.878 9
  20497953.236    20497956.158    -4755327.160 9  -5257938.046 7
  22846726.322    22846730.955    -8616718.284 9  -8345560.767 8
 88  3 21  3 16 59.0800000  0  3G 6G 8G11
  21565490.190    21565492.193    -5591515.467 9  -3139626.841 8
  20490844.284    20490846.162    -4792689.646 8  -5287051.654 7
  22827800.433    22827805.712    -8716171.964 9  -8423057.087 8
 88  3 21  3 17 29.0800000  0  3G 6G 8G11
  21554143.916    21554144.890    -5651145.336 9  -3186091.664 9
  20483862.099    20483864.313    -4829379.322 8  -5315640.972 8
  22808930.117    22808933.481    -8815340.769 8  -8500331.445 8
 88  3 21  3 17 59.0800000  0  3G 6G 8G11
  21542819.822    21542822.769    -5710648.284 9  -3232457.586 9
  20477007.211    20477010.688    -4865394.568 9  -5343704.793 7
  22790113.580    22790117.610    -8914221.549 8  -8577381.350 8
 88  3 21  3 18 29.0800000  0  3G 6G 8G11
  21531521.798    21531523.716    -5770022.155 9  -3278722.892 8
  20470282.583    20470285.768    -4900734.235 8  -5371242.166 6
  22771352.386    22771357.122    -9012811.236 8  -8654204.444 8
 88  3 21  3 18 59.0800000  0  3G 6G 8G11
  21520249.131    21520249.804    -5829265.608 9  -3324886.604 9
  20463686.482    20463690.610    -4935397.615 8  -5398252.553 8
  22752647.438    22752651.366    -9111107.841 9  -8730799.163 9
 88  3 21  3 19 29.0800000  0  3G 6G 8G11
  21508998.986    21509001.834    -5888377.318 9  -3370947.665 8
  20457218.224    20457222.320    -4969384.433 8  -5424735.746 8
  22733998.417    22734001.824    -9209109.194 9  -8807163.804 9
 88  3 21  3 19 59.0800000  0  3G 6G 8G11
  21497776.516    21497779.005    -5947354.912 9  -3416904.218 8
  20450880.950    20450883.980    -5002693.122 8  -5450690.531 6
  22715405.797    22715409.565    -9306812.250 9  -8883296.013 9
 88  3 21  3 20 29.0800000  0  3G 6G 8G11
  21486579.172    21486581.476    -6006195.530 9  -3462754.034 9
  20444672.209    20444674.337    -5035321.667 8  -5476115.358 8
  22696871.829    22696874.942    -9404213.647 8  -8959193.163 9
 88  3 21  3 20 59.0800000  0  3G 6G 8G11
  21475408.930    21475410.018    -6064897.761 9  -3508496.012 8
  20438592.782    20438594.199    -5067269.728 9  -5501009.924 7
  22678394.551    22678398.201    -9501311.219 9  -9034853.581 8
 88  3 21  3 21 29.0800000  0  3G 6G 8G11
  21464265.388    21464266.161    -6123459.844 9  -3554128.774 8
  20432643.352    20432645.442    -5098536.635 8  -5525373.716 7
  22659974.606    22659979.115    -9598102.309 9  -9110275.175 8
 88  3 21  3 21 59.0800000  0  3G 6G 8G11
  21453147.604    21453150.866    -6181879.692 9  -3599650.733 8
  20426822.465    20426825.530    -5129121.185 8  -5549205.812 8
  22641615.848    22641619.415    -9694584.166 9  -9185455.817 7
 88  3 21  3 22 29.0800000  0  3G 6G 8G11
  21442058.667    21442060.298    -6240155.392 9  -3645060.343 8
  20421132.610    20421134.781    -5159022.818 8  -5572505.749 8
  22623315.017    22623318.648    -9790754.353 9  -9260393.588 8
 88  3 21  3 22 59.0800000  0  3G 6G 8G11
  21430997.318    21430997.603    -6298285.077 9  -3690356.176 8
  20415571.903    20415575.416    -5188240.573 8  -5595272.801 7
  22605074.294    22605077.300    -9886610.247 9  -9335086.450 8
 88  3 21  3 23 29.0800000  0  3G 6G 8G11
  21419963.499    21419964.787    -6356266.809 9  -3735536.725 9
  20410142.486    20410144.332    -5216773.957 9  -5617506.567 6
  22586893.306    22586896.634    -9982149.472 9  -9409532.550 8
 88  3 21  3 23 59.0800000  0  3G 6G 8G11
  21408958.614    21408961.289    -6414097.978 9  -3780599.967 9
  20404843.881    20404845.501    -5244621.417 9  -5639205.861 7
  22568773.959    22568777.025   -10077368.588 9  -9483729.241 8
 88  3 21  3 24 29.0800000  0  3G 6G 8G11
  21397983.092    21397983.749    -6471776.516 9  -3825544.259 9
  20399675.270    20399677.335    -5271782.199 8  -5660370.085 9
  22550714.971    22550719.743   -10172265.375 9  -9557674.744 8
 88  3 21  3 24 59.0800000  0  3G 6G 8G11
  21387036.101    21387038.004    -6529301.223 9  -3870368.694 8
  20394637.528    20394640.435    -5298256.427 9  -5680999.339 8
  22532718.489    22532722.835   -10266837.871 8  -9631367.571 9
 88  3 21  3 25 29.0800000  0  3G 6G 8G11
  21376119.761    21376121.106    -6586669.935 9  -3915071.561 8
  20389730.151    20389732.237    -5324043.027 9  -5701092.748 8
  22514784.187    22514788.341   -10361083.298 8  -9704805.527 8
 88  3 21  3 25 59.0800000  0  3G 6G 8G11
  21365232.612    21365234.114    -6643880.258 9  -3959651.030 9
  20384953.413    20384956.052    -5349141.737 9  -5720650.163 8
  22496912.510    22496916.765   -10454999.239 8  -9777986.739 9
 88  3 21  3 26 29.0800000  0  3G 6G 8G11
  21354375.799    21354377.000    -6700930.710 9  -4004105.903 8
  20380308.790    20380311.305    -5373552.309 9  -5739671.367 8
  22479102.868    22479107.356   -10548583.265 8  -9850909.326 7
 88  3 21  3 26 59.0800000  0  3G 6G 8G11
  21343550.894    21343552.497    -6757819.706 9  -4048434.971 9
  20375793.921    20375798.175    -5397274.262 8  -5758155.990 8
  22461358.738    22461364.108   -10641832.953 9  -9923571.386 8
 88  3 21  3 27 29.0800000  0  3G 6G 8G11
  21332755.324    21332757.727    -6814544.455 9  -4092636.073 8
  20371411.802    20371413.546    -5420306.806 9  -5776103.394 7
  22443678.557    22443682.482   -10734745.543 9  -9995970.774 8
 88  3 21  3 27 59.0800000  0  3G 6G 8G11
  21321992.894    21321994.954    -6871102.720 9  -4136707.423 9
  20367160.704    20367162.431    -5442649.156 9  -5793512.994 8
  22426062.295    22426066.628   -10827318.026 8 -10068105.134 9
 88  3 21  3 28 29.0800000  0  3G 6G 8G11
  21311262.803    21311264.577    -6927492.653 8  -4180647.625 9
  20363040.227    20363041.855    -5464301.231 8  -5810384.717 8
  22408511.184    22408516.367   -10919548.331 8 -10139972.870 9
 88  3 21  3 28 59.0800000  0  3G 6G 8G11
  21300564.048    21300567.024    -6983712.231 9  -4224455.072 9
  20359051.138    20359051.697    -5485262.619 9  -5826718.248 8
  22391026.202    22391029.507   -11011434.127 8 -10211572.151 8
 88  3 21  3 29 29.0800000  0  3G 6G 8G11
  21289898.376    21289901.467    -7039759.315 9  -4268128.115 9
  20355193.668    20355196.012    -5505532.731 8  -5842513.112 7
  22373607.832    22373612.268   -11102972.646 8 -10282900.820 8
 88  3 21  3 29 59.0800000  0  3G 6G 8G11
  21279266.274    21279269.207    -7095631.636 9  -4311664.982 9
  20351467.818    20351470.180    -5525111.116 9  -5857768.979 8
  22356254.528    22356258.130   -11194161.480 9 -10353957.024 8
 88  3 21  3 30 29.0800000  0  3G 6G 8G11
  21268667.999    21268671.576    -7151327.370 9  -4355064.241 8
  20347874.146    20347877.068    -5543997.762 9  -5872485.828 8
  22338969.266    22338972.264   -11284998.519 9 -10424739.098 8
 88  3 21  3 30 59.0800000  0  3G 6G 8G11
  21258102.349    21258105.354    -7206844.388 9  -4398324.247 9
  20344410.616    20344415.501    -5562192.238 9  -5886663.312 8
  22321751.025    22321754.574   -11375480.883 9 -10495244.812 8
 88  3 21  3 31 29.0800000  0  3G 6G 8G11
  21247572.901    21247575.090    -7262180.085 9  -4441442.955 9
  20341081.889    20341084.350    -5579693.825 8  -5900300.899 8
  22304600.681    22304604.437   -11465606.042 9 -10565472.184 8
 88  3 21  3 31 59.0800000  0  3G 6G 8G11
  21237077.223    21237080.427    -7317332.704 9  -4484419.008 9
  20337882.581    20337884.358    -5596503.178 8  -5913399.090 8
  22287518.914    22287522.306   -11555372.038 9 -10635419.686 8
 88  3 21  3 32 29.0800000  0  3G 6G 8G11
  21226617.890    21226619.879    -7372300.555 9  -4527251.093 9
  20334815.382    20334819.529    -5612619.961 7  -5925957.608 7
  22270505.546    22270508.947   -11644776.516 9 -10705085.496 8
 88  3 21  3 32 59.0800000  0  3G 6G 8G11
  21216193.500    21216194.875    -7427081.341 9  -4569937.389 8
  20331880.688    20331883.175    -5628044.077 9  -5937976.374 8
  22253561.035    22253565.085   -11733817.130 9 -10774467.767 7
 88  3 21  3 33 29.0800000  0  3G 6G 8G11
  21205806.199    21205806.414    -7481672.705 9  -4612476.100 9
  20329076.730    20329080.818    -5642775.209 9  -5949455.165 7
  22236686.324    22236690.628   -11822491.632 9 -10843564.764 7
 88  3 21  3 33 59.0800000  0  3G 6G 8G11
  21195454.185    21195454.543    -7536072.672 9  -4654865.670 9
  20326405.099    20326408.821    -5656813.516 9  -5960394.089 8
  22219883.041    22219886.404   -11910797.849 9 -10912374.759 8
 88  3 21  3 34 29.0800000  0  3G 6G 8G11
  21185139.575    21185140.105    -7590278.928 9  -4697104.289 8
  20323866.654    20323867.798    -5670158.815 8  -5970792.999 8
  22203149.271    22203153.628   -11998732.730 9 -10980895.419 8
 88  3 21  3 34 59.0800000  0  3G 6G 8G11
  21174860.881    21174861.596    -7644288.993 9  -4739190.039 8
  20321458.355    20321461.269    -5682810.703 8  -5980651.586 8
  22186486.205    22186490.433   -12086293.770 9 -11049124.761 9
 88  3 21  3 35 29.0800000  0  3G 6G 8G11
  21164620.909    21164621.609    -7698100.458 9  -4781121.029 8
  20319182.816    20319186.104    -5694769.573 8  -5989970.175 7
  22169896.056    22169899.851   -12173478.724 9 -11117061.059 8
 88  3 21  3 35 59.0800000  0  3G 6G 8G11
  21154418.654    21154420.128    -7751711.546 9  -4822895.899 8
  20317039.276    20317041.000    -5706035.273 8  -5998748.629 8
  22153377.666    22153381.255   -12260285.247 9 -11184702.470 8
 88  3 21  3 36 29.0800000  0  3G 6G 8G11
  21144255.293    21144257.325    -7805120.163 9  -4864512.990 8
  20315026.631    20315030.058    -5716608.332 9  -6006987.353 8
  22136931.543    22136934.336   -12346711.652 9 -11252047.701 8
 88  3 21  3 36 59.0800000  0  3G 6G 8G11
  21134129.680    21134133.814    -7858323.932 9  -4905970.461 9
  20313146.834    20313148.895    -5726488.771 9  -6014686.373 8
  22120558.374    22120562.489   -12432755.031 9 -11319094.459 8
 88  3 21  3 37 29.0800000  0  3G 6G 8G11
  21124045.361    21124048.295    -7911320.255 9  -4947266.296 9
  20311399.409    20311401.137    -5735676.364 8  -6021845.518 8
  22104257.363    22104260.347   -12518412.940 9 -11385840.851 8
 88  3 21  3 37 59.0800000  0  3G 6G 8G11
  21114000.336    21114003.441    -7964107.481 9  -4988399.189 9
  20309781.718    20309785.302    -5744171.516 9  -6028465.095 8
  22088030.821    22088035.441   -12603683.722 9 -11452285.596 9
 88  3 21  3 38 29.0800000  0  3G 6G 8G11
  21103995.521    21103998.854    -8016683.106 9  -5029367.212 8
  20308296.616    20308299.896    -5751974.600 9  -6034545.413 7
  22071879.769    22071882.356   -12688564.966 8 -11518426.777 8
 88  3 21  3 38 59.0800000  0  3G 6G 8G11
  21094031.600    21094034.807    -8069044.879 9  -5070168.585 9
  20306944.603    20306945.987    -5759085.774 8  -6040086.579 8
  22055801.356    22055805.170   -12773054.065 9 -11584262.425 8
 88  3 21  3 39 29.0800000  0  3G 6G 8G11
  21084109.091    21084111.824    -8121190.522 9  -5110801.544 9
  20305722.748    20305724.784    -5765505.333 9  -6045088.823 8
  22039798.045    22039801.429   -12857149.008 9 -11649790.926 8
 88  3 21  3 39 59.0800000  0  3G 6G 8G11
  21074227.992    21074229.424    -8173118.190 9  -5151264.654 9
  20304632.503    20304634.772    -5771233.663 8  -6049552.435 8
  22023871.287    22023873.852   -12940848.110 9 -11715010.980 7
 88  3 21  3 40 29.0800000  0  3G 6G 8G11
  21064388.305    21064391.224    -8224825.317 9  -5191555.915 9
  20303673.716    20303676.344    -5776271.468 9  -6053477.996 8
  22008019.366    22008024.182   -13024148.718 9 -11779920.532 8
 88  3 21  3 40 59.0800000  0  3G 6G 8G11
  21054591.144    21054592.862    -8276309.505 9  -5231673.458 9
  20302845.397    20302849.186    -5780618.829 8  -6056865.518 8
  21992242.594    21992247.319   -13107048.184 9 -11844517.490 8
 88  3 21  3 41 29.0800000  0  3G 6G 8G11
  21044837.111    21044837.826    -8327568.798 9  -5271615.757 8
  20302151.236    20302152.589    -5784276.220 9  -6059715.424 8
  21976544.602    21976548.812   -13189545.062 9 -11908800.751 8
 88  3 21  3 41 59.0800000  0  3G 6G 8G11
  21035126.006    21035125.591    -8378600.794 9  -5311380.935 9
  20301585.818    20301587.768    -5787244.235 9  -6062028.147 7
  21960923.034    21960926.523   -13271636.926 8 -11972768.423 7
 88  3 21  3 42 29.0800000  0  3G 6G 8G11
  21025457.827    21025458.830    -8429403.007 9  -5350967.059 8
  20301151.554    20301152.816    -5789522.964 9  -6063803.770 8
  21945380.485    21945382.667   -13353321.200 9 -12036418.465 8
 88  3 21  3 42 59.0800000  0  3G 6G 8G11
  21015834.209    21015835.783    -8479972.814 9  -5390372.096 8
  20300848.671    20300852.119    -5791113.253 9  -6065042.941 8
  21929913.005    21929917.432   -13434595.789 9 -12099749.290 9
 88  3 21  3 43 29.0800000  0  3G 6G 8G11
  21006255.292    21006256.751    -8530308.481 9  -5429594.683 8
  20300677.674    20300680.454    -5792015.861 8  -6065746.260 8
  21914525.232    21914529.068   -13515459.210 9 -12162759.710 8
 88  3 21  3 43 59.0800000  0  3G 6G 8G11
  20996722.078    20996724.668    -8580407.575 9  -5468632.926 8
  20300636.446    20300638.410    -5792230.884 9  -6065913.790 7
  21899216.478    21899220.442   -13595909.138 8 -12225447.951 9
 88  3 21  3 44 29.0800000  0  3G 6G 8G11
  20987234.196    20987236.729    -8630267.600 9  -5507484.892 9
  20300726.535    20300729.272    -5791758.734 8  -6065545.871 7
  21883986.811    21883989.494   -13675943.208 9 -12287812.115 9
 88  3 21  3 44 59.0800000  0  3G 6G 8G11
  20977792.161    20977795.066    -8679886.190 9  -5546148.729 9
  20300945.886    20300949.899    -5790600.367 9  -6064643.243 7
  21868836.215    21868839.736   -13755559.047 9 -12349850.407 8
 88  3 21  3 45 29.0800000  0  3G 6G 8G11
  20968396.202    20968400.622    -8729261.348 9  -5584622.862 9
  20301296.467    20301299.669    -5788756.766 9  -6063206.653 8
  21853765.409    21853768.668   -13834755.264 9 -12411561.717 8
 88  3 21  3 45 59.0800000  0  3G 6G 8G11
  20959047.147    20959051.053    -8778390.691 9  -5622905.467 9
  20301778.911    20301781.240    -5786229.030 9  -6061236.970 8
  21838775.567    21838778.658   -13913529.921 9 -12472944.544 8
 88  3 21  3 46 29.0800000  0  3G 6G 8G11
  20949745.799    20949748.833    -8827271.688 9  -5660994.546 9
  20302390.600    20302391.944    -5783017.170 8  -6058734.209 8
  21823865.374    21823869.849   -13991880.411 9 -12533996.849 8
 88  3 21  3 46 59.0800000  0  3G 6G 8G11
  20940491.301    20940495.207    -8875902.182 9  -5698888.436 9
  20303130.577    20303133.968    -5779122.160 8  -6055699.114 8
  21809038.048    21809040.893   -14069804.844 8 -12594717.150 9
 88  3 21  3 47 29.0800000  0  3G 6G 8G11
  20931285.252    20931287.513    -8924280.120 9  -5736585.514 9
  20304002.184    20304003.719    -5774545.328 8  -6052132.730 8
  21794289.642    21794292.909   -14147301.643 9 -12655104.241 9
 88  3 21  3 47 59.0800000  0  3G 6G 8G11
  20922128.027    20922130.116    -8972402.713 9  -5774083.632 8
  20305002.754    20305004.850    -5769287.324 9  -6048035.582 8
  21779624.426    21779628.482   -14224368.086 9 -12715155.992 8
 88  3 21  3 48 29.0800000  0  3G 6G 8G11
  20913019.309    20913022.286    -9020267.620 9  -5811380.949 9
  20306132.771    20306134.886    -5763348.899 9  -6043408.220 8
  21765041.756    21765045.827   -14301002.696 9 -12774871.262 8
 88  3 21  3 48 59.0800000  0  3G 6G 8G11
  20903961.161    20903961.619    -9067872.574 9  -5848475.707 8
  20307392.576    20307394.444    -5756731.078 9  -6038251.454 8
  21750541.278    21750544.162   -14377203.671 9 -12834248.621 9
 88  3 21  3 49 29.0800000  0  3G 6G 8G11
  20894950.919    20894952.952    -9115215.563 9  -5885366.331 9
  20308779.443    20308781.318    -5749435.138 9  -6032566.306 8
  21736122.895    21736126.837   -14452969.129 9 -12893286.622 8
 88  3 21  3 49 59.0800000  0  3G 6G 8G11
  20885992.422    20885994.853    -9162294.063 9  -5922050.856 8
  20310297.601    20310299.497    -5741462.267 8  -6026353.667 8
  21721789.419    21721792.439   -14528297.292 9 -12951983.867 8
 88  3 21  3 50 29.0800000  0  3G 6G 8G11
  20877086.122    20877087.625    -9209105.381 9  -5958527.202 8
  20311942.817    20311946.369    -5732813.009 9  -6019613.966 8
  21707538.991    21707541.959   -14603185.677 9 -13010338.423 8
 88  3 21  3 50 59.0800000  0  3G 6G 8G11
  20868229.247    20868230.849    -9255647.257 9  -5994793.598 9
  20313717.746    20313720.260    -5723488.133 9  -6012347.819 8
  21693370.740    21693374.153   -14677632.288 9 -13068348.749 8
 88  3 21  3 51 29.0800000  0  3G 6G 8G11
  20859423.770    20859426.418    -9301917.347 9  -6030848.201 9
  20315619.079    20315623.207    -5713488.851 9  -6004556.152 8
  21679288.494    21679292.376   -14751635.478 9 -13126013.536 8
 88  3 21  3 51 59.0800000  0  3G 6G 8G11
  20850671.495    20850673.598    -9347912.942 9  -6066688.923 9
  20317650.544    20317653.816    -5702816.042 8  -5996239.683 7
  21665290.834    21665295.770   -14825193.389 9 -13183331.359 7
 88  3 21  3 52 29.0800000  0  3G 6G 8G11
  20841970.990    20841973.136    -9393631.990 9  -6102314.146 9
  20319809.444    20319813.073    -5691471.246 9  -5987399.563 8
  21651379.493    21651382.505   -14898304.302 9 -13240300.881 8
 88  3 21  3 52 59.0800000  0  3G 6G 8G11
  20833324.174    20833327.365    -9439072.288 9  -6137722.172 9
  20322096.343    20322098.882    -5679455.565 8  -5978036.676 8
  21637551.311    21637555.786   -14970966.253 9 -13296920.544 7
 88  3 21  3 53 29.0800000  0  3G 6G 8G11
  20824730.674    20824731.847    -9484231.415 9  -6172911.087 9
  20324510.538    20324513.114    -5666770.480 9  -5968152.179 9
  21623810.444    21623812.952   -15043177.938 9 -13353189.372 8
 88  3 21  3 53 59.0800000  0  3G 6G 8G11
  20816191.148    20816193.294    -9529106.630 9  -6207878.797 9
  20327051.599    20327054.370    -5653416.670 8  -5957746.599 7
  21610154.737    21610158.515   -15114936.970 9 -13409105.481 8
 88  3 21  3 54 29.0800000  0  3G 6G 8G11
  20807706.254    20807707.356    -9573695.638 9  -6242623.462 9
  20329718.928    20329722.212    -5639395.423 8  -5946820.951 9
  21596586.350    21596589.418   -15186241.337 9 -13464667.308 9
 88  3 21  3 54 59.0800000  0  3G 6G 8G11
  20799276.594    20799277.953    -9617996.499 9  -6277143.613 8
  20332515.128    20332517.924    -5624708.691 9  -5935376.724 8
  21583104.689    21583107.230   -15257090.181 9 -13519874.181 8
 88  3 21  3 55 29.0800000  0  3G 6G 8G11
  20790901.681    20790901.352    -9662006.156 9  -6311436.849 8
  20335435.724    20335438.263    -5609357.187 8  -5923414.502 8
  21569709.285    21569712.079   -15327480.962 9 -13574724.129 8
 88  3 21  3 55 59.0800000  0  3G 6G 8G11
  20782581.744    20782583.762    -9705722.314 9  -6345501.383 8
  20338483.409    20338485.930    -5593342.261 9  -5910935.344 8
  21556402.115    21556403.839   -15397411.942 9 -13629215.771 8
 88  3 21  3 56 29.0800000  0  4G 6G 8G11G 9
  20774319.012    20774321.151    -9749142.973 9  -6379335.666 9
  20341656.834    20341658.518    -5576665.504 9  -5897940.461 7
  21543182.185    21543184.485   -15466882.224 9 -13683348.445 7
                  23070079.769   -29260320.430 9
 88  3 21  3 56 59.0800000  0  4G 6G 8G11G 9
  20766113.480    20766116.553    -9792265.859 9  -6412937.909 9
  20344955.731    20344957.601    -5559328.608 9  -5884431.184 8
  21530051.132    21530053.554   -15535889.729 9 -13737120.533 8
  23052715.376    23052718.095   -29351755.094 9  37188370.585 8
 88  3 21  3 57 29.0800000  0  4G 6G 8G11G 9
  20757964.538    20757967.378    -9835088.312 9  -6446306.046 8
  20348380.578    20348381.918    -5541332.822 9  -5870408.477 9
  21517006.735    21517009.443   -15604432.919 9 -13790530.801 7
  23035323.324    23035325.471   -29443157.309 9  37117148.128 8
 88  3 21  3 57 59.0800000  0  4G 6G 8G11G 9
  20749873.798    20749875.462    -9877608.012 9  -6479438.281 8
  20351929.572    20351932.658    -5522679.297 9  -5855873.256 8
  21504052.141    21504055.083   -15672510.347 8 -13843578.128 8
  23017935.982    23017938.765   -29534525.519 8  37045952.178 8
 88  3 21  3 58 29.0800000  0  4G 6G 8G11G 9
  20741840.156    20741841.727    -9919822.650 9  -6512332.805 9
  20355604.114    20355607.514    -5503370.057 9  -5840827.099 8
  21491186.831    21491190.648   -15740120.257 9 -13896261.153 7
  23000556.896    23000558.835   -29625857.990 9  36974784.073 9
 88  3 21  3 58 59.0800000  0  4G 6G 8G11G 9
  20733864.534    20733867.014    -9961729.950 9  -6544987.837 9
  20359402.917    20359405.846    -5483406.799 9  -5825271.306 9
  21478409.663    21478414.723   -15807261.317 8 -13948578.841 8
  22983182.889    22983185.315   -29717152.721 8  36903645.378 9
 88  3 21  3 59 29.0800000  0  4G 6G 8G11G 9
  20725949.453    20725951.356   -10003327.127 9  -6577401.223 8
  20363326.526    20363329.125    -5462790.770 9  -5809206.856 8
  21465722.931    21465726.526   -15873931.308 9 -14000529.473 8
  22965817.239    22965820.724   -29808407.248 8  36832537.992 9
 88  3 21  3 59 59.0800000  0  4G 6G 8G11G 9
  20718093.510    20718095.216   -10044611.772 9  -6609571.073 8
  20367374.137    20367375.649    -5441523.132 9  -5792634.673 8
  21453125.099    21453130.236   -15940128.673 9 -14052111.801 9
  22948460.940    22948464.031   -29899619.967 8  36761463.194 9
 88  3 21  4  0 29.0800000  0  4G 6G 8G11G 9
  20710297.264    20710298.963   -10085581.468 9  -6641495.515 9
  20371543.978    20371545.289    -5419605.831 9  -5775556.247 8
  21440619.344    21440622.342   -16005852.231 9 -14103324.948 8
  22931111.654    22931113.664   -29990788.871 9  36690422.511 9
 88  3 21  4  0 59.0800000  0  4G 6G 8G11G 9
  20702562.225    20702563.431   -10126233.984 9  -6673172.796 8
  20375838.479    20375840.336    -5397041.070 9  -5757973.305 8
  21428202.879    21428205.815   -16071100.510 8 -14154167.736 8
  22913771.644    22913774.256   -30081911.993 9  36619417.520 9
 88  3 21  4  1 29.0800000  0  4G 6G 8G11G 9
  20694887.042    20694888.527   -10166566.978 9  -6704601.089 9
  20380255.154    20380257.310    -5373830.073 9  -5739886.828 9
  21415876.689    21415881.517   -16135871.810 9 -14204638.856 8
  22896440.337    22896443.364   -30172987.298 9  36548449.779 9
 88  3 21  4  1 59.0800000  0  4G 6G 8G11G 9
  20687272.180    20687274.227   -10206577.810 9  -6735778.353 8
  20384795.001    20384797.873    -5349974.652 9  -5721298.185 9
  21403642.769    21403646.392   -16200164.634 8 -14254737.123 8
  22879118.480    22879121.142   -30264012.719 9  36477520.920 8
 88  3 21  4  2 29.0800000  0  4G 6G 8G11G 9
  20679720.085    20679722.925   -10246264.150 9  -6766702.779 9
  20389456.162    20389459.778    -5325476.402 9  -5702208.628 9
  21391499.609    21391502.856   -16263977.676 9 -14304461.549 8
  22861806.782    22861809.652   -30354986.231 9  36406632.489 8
 88  3 21  4  2 59.0800000  0  4G 6G 8G11G 9
  20672230.661    20672232.222   -10285623.808 9  -6797372.639 8
  20394240.383    20394241.809    -5300337.286 9  -5682619.700 8
  21379447.215    21379452.175   -16327309.597 9 -14353811.070 9
  22844505.146    22844508.580   -30445906.111 9  36335785.858 8
 88  3 21  4  3 29.0800000  0  4G 6G 8G11G 9
  20664803.602    20664805.877   -10324654.171 9  -6827785.891 9
  20399146.373    20399148.659    -5274559.047 9  -5662532.756 8
  21367487.602    21367491.812   -16390158.685 9 -14402784.371 8
  22827214.554    22827217.581   -30536769.909 9  36264982.909 9
 88  3 21  4  3 59.0800000  0  4G 6G 8G11G 9
  20657439.959    20657441.511   -10363352.987 9  -6857940.812 8
  20404172.248    20404174.290    -5248143.681 9  -5641949.352 9
  21355620.108    21355623.653   -16452523.784 8 -14451380.529 8
  22809934.709    22809937.427   -30627575.907 9  36194225.027 8
 88  3 21  4  4 29.0800000  0  4G 6G 8G11G 9
  20650138.071    20650140.635   -10401717.509 9  -6887835.236 8
  20409320.751    20409322.478    -5221092.577 8  -5620870.571 9
  21343844.837    21343848.245   -16514403.132 9 -14499598.195 8
  22792666.462    22792669.510   -30718321.690 9  36123514.044 8
 88  3 21  4  4 59.0800000  0  4G 6G 8G11G 9
  20642902.330    20642904.044   -10439745.593 9  -6917467.494 9
  20414588.307    20414590.221    -5193407.833 9  -5599298.037 8
  21332162.483    21332166.632   -16575795.886 9 -14547436.688 8
  22775410.420    22775413.260   -30809005.407 8  36052851.427 8
 88  3 21  4  5 29.0800000  0  4G 6G 8G11G 9
  20635730.223    20635732.032   -10477434.936 9  -6946835.813 9
  20419976.289    20419980.120    -5165091.400 9  -5577233.285 8
  21320573.234    21320576.453   -16636700.634 9 -14594894.896 8
  22758165.497    22758167.450   -30899624.945 9  35982238.816 8
 88  3 21  4  5 59.0800000  0  4G 6G 8G11G 9
  20628622.739    20628626.420   -10514783.087 9  -6975938.267 8
  20425484.554    20425486.697    -5136144.952 9  -5554677.591 8
  21309076.006    21309078.746   -16697115.858 9 -14641971.684 9
  22740933.459    22740935.183   -30990178.273 9  35911677.807 8
 88  3 21  4  6 29.0800000  0  4G 6G 8G11G 9
  20621580.881    20621583.185   -10551787.634 9  -7004772.976 8
  20431112.788    20431115.044    -5106570.750 9  -5531632.764 9
  21297673.331    21297675.609   -16757040.295 9 -14688666.029 8
  22723714.893    22723717.596   -31080663.127 9  35841170.169 8
 88  3 21  4  6 59.0800000  0  4G 6G 8G11G 9
  20614605.228    20614607.303   -10588446.156 9  -7033338.056 9
  20436860.189    20436862.045    -5076370.805 9  -5508100.332 8
  21286362.693    21286366.839   -16816472.637 8 -14734976.942 7
  22706510.980    22706511.537   -31171077.511 9  35770717.401 8
 88  3 21  4  7 29.0800000  0  4G 6G 8G11G 9
  20607695.469    20607698.001   -10624756.351 9  -7061631.704 9
  20442726.098    20442728.898    -5045546.950 9  -5484081.738 8
  21275147.588    21275150.208   -16875411.576 9 -14780903.381 8
  22689317.447    22689321.339   -31261419.091 9  35700321.408 9
 88  3 21  4  7 59.0800000  0  4G 6G 8G11G 9
  20600853.460    20600854.386   -10660715.615 9  -7089651.905 9
  20448709.171    20448711.541    -5014101.086 9  -5459578.455 8
  21264025.860    21264028.643   -16933855.676 9 -14826444.217 8
  22672141.094    22672143.690   -31351685.775 9  35629983.773 9
 88  3 21  4  8 29.0800000  0  4G 6G 8G11G 9
  20594077.091    20594079.928   -10696321.906 9  -7117397.059 9
  20454811.325    20454812.966    -4982035.455 9  -5434592.242 8
  21252997.880    21253001.785   -16991804.053 9 -14871598.791 9
  22654978.871    22654981.346   -31441875.529 8  35559706.074 9
 88  3 21  4  8 59.0800000  0  4G 6G 8G11G 9
  20587368.751    20587371.288   -10731572.800 9  -7144865.284 8
  20461030.671    20461031.783    -4949352.047 8  -5409124.639 9
  21242065.667    21242068.883   -17049255.591 9 -14916366.214 7
  22637830.019    22637832.895   -31531986.235 9  35489489.963 9
 88  3 21  4  9 29.0800000  0  4G 6G 8G11G 9
  20580729.639    20580730.698   -10766465.360 9  -7172054.293 9
  20467367.210    20467369.123    -4916052.650 8  -5383177.054 8
  21231227.471    21231231.804   -17106208.557 9 -14960745.128 7
  22620699.046    22620701.729   -31622015.226 9  35419337.526 8
 88  3 21  4  9 59.0800000  0  4G 6G 8G11G 9
  20574158.071    20574160.098   -10800997.762 8  -7198962.655 8
  20473820.082    20473822.495    -4882139.851 8  -5356751.488 9
  21220485.525    21220488.895   -17162662.275 9 -15004735.023 8
  22603583.357    22603585.596   -31711960.753 9  35349250.135 9
 88  3 21  4 10 29.0800000  0  4G 6G 8G11G 9
  20567656.396    20567658.292   -10835167.400 9  -7225588.339 8
  20480390.633    20480392.304    -4847615.657 9  -5329849.508 8
  21209837.540    21209840.369   -17218615.669 9 -15048335.058 8
  22586483.241    22586485.852   -31801820.411 8  35279229.646 8
 88  3 21  4 10 59.0800000  0  4G 6G 8G11G 9
  20561224.102    20561225.100   -10868972.059 9  -7251929.625 9
  20487075.572    20487078.457    -4812482.493 9  -5302473.021 8
  21199285.722    21199288.501   -17274067.373 9 -15091544.172 8
  22569401.386    22569403.096   -31891592.071 9  35209277.735 9
 88  3 21  4 11 29.0800000  0  4G 6G 8G11G 9
  20554860.693    20554862.170   -10902409.454 9  -7277984.736 9
  20493877.131    20493880.116    -4776742.235 9  -5274623.460 8
  21188829.267    21188832.562   -17329016.321 9 -15134361.503 8
  22552334.519    22552336.966   -31981273.436 9  35139396.179 9
 88  3 21  4 11 59.0800000  0  4G 6G 8G11G 9
  20548567.692    20548569.556   -10935477.081 9  -7303751.701 8
  20500793.335    20500796.306    -4740397.476 9  -5246302.870 8
  21178468.357    21178471.662   -17383461.801 9 -15176786.544 8
  22535286.104    22535288.451   -32070862.493 9  35069586.536 9
 88  3 21  4 12 29.0800000  0  4G 6G 8G11G 9
  20542345.916    20542347.807   -10968172.685 9  -7329228.801 9
  20507824.327    20507826.669    -4703450.457 9  -5217512.983 8
  21168204.515    21168207.627   -17437402.365 9 -15218818.128 8
  22518256.147    22518259.339   -32160356.750 9  34999850.768 8
 88  3 21  4 12 59.0800000  0  4G 6G 8G11G 9
  20536195.162    20536197.194   -11000493.821 9  -7354414.103 8
  20514968.963    20514970.503    -4665902.961 9  -5188255.173 8
  21158035.315    21158038.628   -17490837.146 9 -15260455.603 8
  22501244.363    22501246.359   -32249753.971 9  34930190.619 8
 88  3 21  4 13 29.0800000  0  4G 6G 8G11G 9
  20530116.270    20530118.276   -11032438.086 9  -7379305.738 9
  20522228.158    20522229.197    -4627757.350 9  -5158531.326 8
  21147964.380    21147967.026   -17543765.275 9 -15301698.301 8
  22484252.413    22484253.400   -32339051.673 9  34860608.020 8
 88  3 21  4 13 59.0800000  0  4G 6G 8G11G 9
  20524109.810    20524111.805   -11064003.294 9  -7403902.006 8
  20529599.223    20529601.736    -4589016.172 8  -5128343.401 7
  21137988.853    21137991.662   -17596185.953 9 -15342545.565 8
  22467278.455    22467279.714   -32428248.088 9  34791104.343 8
 88  3 21  4 14 29.0800000  0  4G 6G 8G11G 9
  20518176.714    20518176.925   -11095186.901 9  -7428200.916 9
  20537084.589    20537087.732    -4549681.518 8  -5097693.010 9
  21128110.281    21128112.048   -17648097.560 8 -15382996.143 8
  22450324.330    22450326.734   -32517340.236 9  34721681.911 9
 88  3 21  4 14 59.0800000  0  4G 6G 8G11G 9
  20512315.389    20512317.446   -11125986.458 9  -7452200.562 8
  20544682.053    20544685.798    -4509755.637 8  -5066581.931 9
  21118328.262    21118332.189   -17699499.410 9 -15423049.511 8
  22433390.854    22433394.145   -32606325.999 9  34652342.387 8
 88  3 21  4 15 29.0800000  0  4G 6G 8G11G 9
  20506527.717    20506529.237   -11156399.915 9  -7475899.377 8
  20552390.957    20552395.132    -4469241.452 9  -5035012.428 8
  21108644.072    21108646.533   -17750390.641 8 -15462704.994 8
  22416478.160    22416480.257   -32695203.176 9  34583087.470 8
 88  3 21  4 15 59.0800000  0  4G 6G 8G11G 9
  20500814.006    20500814.918   -11186424.777 9  -7499295.369 9
  20560213.363    20560216.221    -4428141.247 9  -5002986.290 9
  21099056.554    21099060.875   -17800770.097 9 -15501961.690 7
  22399586.989    22399589.750   -32783969.373 9  34513919.028 8
 88  3 21  4 16 29.0800000  0  4G 6G 8G11G 9
  20495174.570    20495175.483   -11216058.588 9  -7522386.659 8
  20568144.776    20568148.434    -4386456.828 9  -4970504.919 8
  21089568.053    21089571.151   -17850637.043 8 -15540819.022 8
  22382716.751    22382718.240   -32872621.943 9  34444839.119 8
 88  3 21  4 16 59.0800000  0  4G 6G 8G11G 9
  20489610.876    20489611.413   -11245299.059 9  -7545171.429 8
  20576188.144    20576190.457    -4344190.636 8  -4937570.216 8
  21080175.370    21080178.275   -17899990.660 9 -15579276.366 8
  22365868.265    22365870.597   -32961158.531 9  34375849.591 9
 88  3 21  4 17 29.0800000  0  4G 6G 8G11G 9
  20484121.598    20484122.864   -11274144.245 9  -7567648.194 9
  20584341.092    20584343.305    -4301345.548 8  -4904184.420 8
  21070881.628    21070885.497   -17948830.397 9 -15617333.289 8
  22349042.585    22349045.411   -33049577.277 9  34306951.895 9
 88  3 21  4 17 59.0800000  0  4G 6G 8G11G 9
  20478709.048    20478709.606   -11302591.598 9  -7589814.955 8
  20592604.562    20592605.890    -4257924.006 9  -4870349.449 8
  21061685.423    21061688.899   -17997154.931 9 -15654988.754 8
  22332240.224    22332242.672   -33137875.559 9  34238148.051 8
 88  3 21  4 18 29.0800000  0  4G 6G 8G11G 9
  20473370.435    20473372.753   -11330638.853 9  -7611669.965 8
  20600976.183    20600977.623    -4213928.182 9  -4836066.993 7
  21052588.289    21052591.427   -18044963.624 9 -15692242.259 7
  22315461.008    22315463.504   -33226050.796 9  34169440.081 8
 88  3 21  4 18 59.0800000  0  4G 6G 8G11G 9
  20468109.775    20468111.248   -11358283.243 8  -7633211.062 8
  20609457.554    20609459.024    -4169360.797 8  -4801339.142 8
  21043588.239    21043592.465   -18092255.521 8 -15729093.059 7
  22298705.623    22298707.684   -33314100.404 9  34100830.026 8
 88  3 21  4 19 29.0800000  0  4G 6G 8G11G 9
  20462926.205    20462928.226   -11385523.171 9  -7654436.997 8
  20618046.704    20618048.775    -4124224.770 8  -4766168.206 7
  21034687.609    21034691.251   -18139030.405 8 -15765540.991 8
  22281974.857    22281976.982   -33402022.415 9  34032319.382 8
 88  3 21  4 19 59.0800000  0  4G 6G 8G11G 9
  20457820.960    20457822.040   -11412356.096 8  -7675345.776 8
  20626743.516    20626746.644    -4078522.322 9  -4730555.906 8
  21025886.039    21025887.695   -18185287.178 9 -15801585.213 8
  22265268.503    22265270.256   -33489814.229 9  33963910.193 8
 88  3 21  4 20 29.0800000  0  4G 6G 8G11G 9
  20452792.061    20452792.706   -11438779.868 9  -7695935.726 8
  20635546.873    20635549.787    -4032255.910 9  -4694504.150 8
  21017181.703    21017185.082   -18231025.398 9 -15837225.379 7
  22248588.142    22248590.023   -33577473.354 9  33895604.407 8
 88  3 21  4 20 59.0800000  0  4G 6G 8G11G 9
  20447842.293    20447844.971   -11464792.033 9  -7716204.944 8
  20644458.322    20644460.678    -3985428.092 9  -4658014.946 8
  21008576.715    21008580.478   -18276244.202 9 -15872460.792 8
  22231932.235    22231934.252   -33664997.369 9  33827403.896 9
 88  3 21  4 21 29.0800000  0  4G 6G 8G11G 9
  20442971.099    20442973.275   -11490390.400 9  -7736151.719 8
  20653476.088    20653477.386    -3938041.574 9  -4621090.370 8
  21000070.484    21000074.893   -18320942.829 8 -15907290.870 7
  22215303.021    22215305.705   -33752383.578 9  33759310.775 8
 88  3 21  4 21 59.0800000  0  4G 6G 8G11G 9
  20438178.582    20438181.461   -11515572.703 9  -7755774.288 7
  20662599.599    20662601.256    -3890098.572 9  -4583732.187 8
  20991664.887    20991667.330   -18365120.771 9 -15941715.214 7
  22198700.623    22198702.720   -33839629.657 9  33691326.834 8
 88  3 21  4 22 29.0800000  0  4G 6G 8G11G 9
  20433466.333    20433468.507   -11540336.745 9  -7775070.934 8
  20671828.427    20671830.039    -3841601.993 8  -4545942.638 9
  20983356.657    20983360.212   -18408777.368 9 -15975733.320 7
  22182125.914    22182127.231   -33926733.245 9  33623453.924 9
 88  3 21  4 22 59.0800000  0  4G 6G 8G11G 9
  20428834.359    20428835.320   -11564680.388 8  -7794040.007 7
  20681161.596    20681163.380    -3792554.439 9  -4507723.764 8
  20975148.619    20975151.172   -18451911.960 8 -16009344.684 8
  22165577.455    22165579.437   -34013691.862 8  33555693.981 8
 88  3 21  4 23 29.0800000  0  4G 6G 8G11G 9
  20424281.235    20424283.364   -11588601.335 9  -7812679.708 8
  20690599.166    20690601.608    -3742958.802 9  -4469077.809 8
  20967039.333    20967043.021   -18494524.232 8 -16042549.030 8
  22149057.743    22149060.032   -34100503.051 9  33488048.905 9
 88  3 21  4 23 59.0800000  0  4G 6G 8G11G 9
  20419810.663    20419812.638   -11612097.468 8  -7830988.389 8
  20700140.420    20700143.864    -3692817.535 9  -4430006.690 9
  20959030.038    20959033.221   -18536613.674 8 -16075345.981 7
  22132567.285    22132568.681   -34187163.885 9  33420521.005 9
 88  3 21  4 24 29.0800000  0  4G 6G 8G11G 9
  20415420.213    20415422.789   -11635166.467 8  -7848964.232 8
  20709785.386    20709787.228    -3642133.542 9  -4390512.664 8
  20951120.191    20951123.639   -18578179.804 8 -16107735.154 7
  22116105.504    22116106.963   -34273672.347 9  33353111.832 8
 88  3 21  4 24 59.0800000  0  4G 6G 8G11G 9
  20411112.289    20411115.277   -11657806.023 9  -7866605.455 8
  20719533.208    20719534.920    -3590909.090 9  -4350597.511 8
  20943310.858    20943313.696   -18619221.953 8 -16139716.036 7
  22099672.348    22099674.980   -34360025.666 9  33285823.549 8
 88  3 21  4 25 29.0800000  0  4G 6G 8G11G 9
  20406886.276    20406888.158   -11680014.058 8  -7883910.417 8
  20729383.255    20729385.512    -3539147.568 9  -4310263.848 8
  20935600.833    20935603.723   -18659739.502 8 -16171288.129 7
  22083269.534    22083271.295   -34446221.260 9  33218658.165 9
 88  3 21  4 25 59.0800000  0  4G 6G 8G11G 9
  20402742.853    20402745.685   -11701788.257 9  -7900877.320 7
  20739335.068    20739337.625    -3486851.473 9  -4269513.648 8
  20927989.754    20927993.532   -18699731.699 9 -16202450.865 8
  22066897.815    22066900.026   -34532256.345 9  33151617.861 8
 88  3 21  4 26 29.0800000  0  3G 6G 8G11
  20398682.194    20398685.746   -11723126.626 8  -7917504.636 9
  20749387.499    20749389.671    -3434023.674 9  -4228349.129 9
  20920480.037    20920483.863   -18739198.357 8 -16233204.101 8
 88  3 21  4 26 59.0800000  0  4G 6G 8G11G13
  20394704.998    20394706.855   -11744027.083 8  -7933790.699 8
  20759541.168    20759543.051    -3380666.972 9  -4186772.475 9
  20913069.439    20913073.427   -18778139.487 9 -16263547.809 8
  23959045.277    23959049.989   -40185805.278 9  50984340.481 8
 88  3 21  4 27 29.0800000  0  4G 6G 8G11G13
  20390811.574    20390813.906   -11764487.478 9  -7949733.874 7
  20769794.784    20769797.110    -3326783.969 9  -4144785.718 9
  20905760.801    20905762.628   -18816554.320 9 -16293481.434 8
  23938413.397    23938416.414   -40294231.021 9  50899852.383 8
 88  3 21  4 27 59.0800000  0  4G 6G 8G11G13
  20387002.894    20387005.242   -11784505.595 9  -7965332.405 8
  20780148.797    20780149.962    -3272377.704 9  -4102391.227 9
  20898548.979    20898553.060   -18854442.842 9 -16323004.956 8
  23917823.018    23917826.873   -40402435.553 9  50815537.202 8
 88  3 21  4 28 29.0800000  0  4G 6G 8G11G13
  20383277.859    20383280.774   -11804079.059 9  -7980584.461 9
  20790600.386    20790602.994    -3217450.531 9  -4059590.835 9
  20891439.157    20891443.454   -18891804.494 8 -16352117.910 8
  23897274.557    23897277.178   -40510416.535 9  50731396.184 8
 88  3 21  4 28 59.0800000  0  4G 6G 8G11G13
  20379639.045    20379641.327   -11823205.755 9  -7995488.376 8
  20801151.604    20801152.829    -3162005.429 8  -4016386.859 9
  20884430.717    20884433.874   -18928639.145 9 -16380820.218 8
  23876769.891    23876773.492   -40618171.565 8  50647431.237 8
 88  3 21  4 29 29.0800000  0  4G 6G 8G11G13
  20376083.988    20376085.209   -11841883.832 9  -8010042.731 8
  20811799.551    20811802.368    -3106045.622 8  -3972781.826 8
  20877521.657    20877524.412   -18964946.192 9 -16409111.395 7
  23856307.430    23856311.786   -40725698.497 9  50563644.035 7
 88  3 21  4 29 59.0800000  0  4G 6G 8G11G13
  20372614.884    20372618.416   -11860111.152 9  -8024245.847 8
  20822545.396    20822548.709    -3049573.953 9  -3928777.943 9
  20870713.297    20870715.120   -19000725.261 8 -16436991.175 8
  23835889.515    23835892.435   -40832994.812 9  50480036.546 7
 88  3 21  4 30 29.0800000  0  4G 6G 8G11G13
  20369233.316    20369236.309   -11877885.524 8  -8038096.009 7
  20833388.735    20833392.135    -2992592.831 9  -3884377.076 9
  20864005.238    20864008.231   -19035976.289 9 -16464459.510 8
  23815516.302    23815519.555   -40940058.527 9  50396610.281 9
 88  3 21  4 30 59.0800000  0  4G 6G 8G11G13
  20365937.993    20365939.348   -11895204.950 9  -8051591.680 9
  20844328.959    20844330.764    -2935105.380 9  -3839581.665 8
  20857397.585    20857399.639   -19070698.999 8 -16491516.134 9
  23795187.174    23795191.211   -41046886.981 9  50313367.369 8
 88  3 21  4 31 29.0800000  0  4G 6G 8G11G13
  20362728.485    20362730.790   -11912067.064 8  -8064730.996 9
  20855364.097    20855366.631    -2877114.329 9  -3794393.831 8
  20850891.152    20850893.583   -19104893.171 9 -16518160.927 8
  23774904.127    23774906.725   -41153478.183 9  50230309.278 9
 88  3 21  4 31 59.0800000  0  4G 6G 8G11G13
  20359607.580    20359608.796   -11928470.103 8  -8077512.578 8
  20866494.742    20866496.928    -2818622.864 9  -3748816.063 9
  20844483.786    20844486.471   -19138558.536 9 -16544393.657 8
  23754665.643    23754669.670   -41259829.935 9  50147437.832 9
 88  3 21  4 32 29.0800000  0  4G 6G 8G11G13
  20356573.839    20356575.238   -11944412.032 8  -8089934.862 8
  20877719.296    20877722.640    -2759633.860 9  -3702850.614 9
  20838178.418    20838180.550   -19171695.054 9 -16570214.298 8
  23734472.827    23734477.105   -41365940.116 9  50064754.586 8
 88  3 21  4 32 59.0800000  0  4G 6G 8G11G13
  20353628.096    20353630.298   -11959890.495 9  -8101996.009 9
  20889039.092    20889041.230    -2700149.850 9  -3656499.433 8
  20831973.225    20831977.260   -19204302.628 8 -16595622.792 8
  23714327.764    23714331.904   -41471806.047 9  49982261.656 8
 88  3 21  4 33 29.0800000  0  4G 6G 8G11G13
  20350771.490    20350773.813   -11974903.973 9  -8113694.817 9
  20900452.028    20900453.943    -2640174.343 9  -3609765.274 8
  20825869.241    20825873.090   -19236381.262 9 -16620619.119 8
  23694228.401    23694232.576   -41577426.057 9  49899960.390 8
 88  3 21  4 33 59.0800000  0  4G 6G 8G11G13
  20348002.660    20348005.369   -11989450.377 9  -8125029.691 8
  20911957.867    20911961.389    -2579710.132 9  -3562650.308 9
  20819865.366    20819869.066   -19267930.850 9 -16645203.190 9
  23674177.772    23674180.967   -41682797.842 8  49817852.521 8
 88  3 21  4 34 29.0800000  0  4G 6G 8G11G13
  20345323.705    20345327.334   -12003527.659 9  -8135999.011 9
  20923556.033    20923558.184    -2518760.120 9  -3515156.785 9
  20813962.146    20813966.942   -19298951.093 9 -16669374.791 8
  23654172.549    23654176.445   -41787918.419 8  49735940.435 8
 88  3 21  4 34 59.0800000  0  4G 6G 8G11G13
  20342735.284    20342737.572   -12017133.677 8  -8146601.108 8
  20935246.826    20935248.994    -2457326.994 8  -3467286.817 9
  20808160.132    20808163.628   -19329442.207 8 -16693134.088 8
  23634219.008    23634221.654   -41892786.533 8  49654225.051 8
 88  3 21  4 35 29.0800000  0  4G 6G 8G11G13
  20340235.896    20340237.643   -12030266.810 9  -8156834.727 8
  20947028.102    20947030.480    -2395414.100 9  -3419042.995 8
  20802458.915    20802462.815   -19359404.114 9 -16716481.025 8
  23614310.509    23614314.796   -41997399.723 8  49572708.296 8
 88  3 21  4 35 59.0800000  0  4G 6G 8G11G13
  20337827.771    20337828.684   -12042924.892 9  -8166698.171 9
  20958901.033    20958903.182    -2333024.599 9  -3370427.803 8
  20796857.135    20796861.691   -19388836.550 9 -16739415.369 8
  23594453.100    23594455.494   -42101756.154 9  49491391.606 8
 88  3 21  4 36 29.0800000  0  4G 6G 8G11G13
  20335509.165    20335511.255   -12055105.825 9  -8176189.809 9
  20970863.723    20970865.500    -2270161.063 9  -3321443.223 8
  20791357.933    20791361.657   -19417739.522 9 -16761937.136 8
  23574643.432    23574647.409   -42205852.834 9  49410277.348 8
 88  3 21  4 36 59.0800000  0  4G 6G 8G11G13
  20333282.437    20333284.952   -12066807.889 9  -8185308.314 9
  20982915.215    20982917.099    -2206826.488 9  -3272091.600 9
  20785958.332    20785961.557   -19446113.172 9 -16784046.469 8
  23554883.714    23554887.868   -42309688.263 8  49329366.652 8
 88  3 21  4 37 29.0800000  0  4G 6G 8G11G13
  20331147.612    20331150.595   -12078029.116 9  -8194052.139 8
  20995056.722    20995058.853    -2143024.297 9  -3222375.607 8
  20780659.753    20780663.449   -19473957.680 8 -16805743.477 9
  23535175.006    23535179.090   -42413260.176 9  49248661.285 8
 88  3 21  4 37 59.0800000  0  4G 6G 8G11G13
  20329104.064    20329105.806   -12088767.710 9  -8202419.880 9
  21007286.762    21007288.658    -2078757.433 9  -3172297.539 9
  20775462.138    20775464.660   -19501273.140 9 -16827028.231 8
  23515515.528    23515520.265   -42516566.617 9  49168162.773 8
 88  3 21  4 38 29.0800000  0  4G 6G 8G11G13
  20327152.309    20327155.058   -12099021.817 9  -8210410.109 8
  21019603.487    21019605.646    -2014028.913 9  -3121859.715 9
  20770364.027    20770368.331   -19528059.651 8 -16847900.837 8
  23495908.057    23495912.094   -42619605.015 9  49087873.136 8
 88  3 21  4 38 59.0800000  0  4G 6G 8G11G13
  20325292.960    20325294.855   -12108789.175 9  -8218021.041 9
  21032008.974    21032011.217    -1948841.803 9  -3071064.564 8
  20765367.549    20765371.309   -19554317.110 9 -16868361.165 9
  23476351.975    23476356.437   -42722372.831 9  49007794.339 7
 88  3 21  4 39 29.0800000  0  4G 6G 8G11G13
  20323528.008    20323530.234   -12118068.119 9  -8225251.384 9
  21044500.211    21044501.991    -1883198.983 9  -3019914.322 9
  20760472.320    20760475.198   -19580046.043 9 -16888409.679 8
  23456847.727    23456852.571   -42824868.435 8  48927927.635 8
 88  3 21  4 39 59.0800000  0  4G 6G 8G11G13
  20321855.813    20321858.063   -12126856.906 9  -8232099.807 9
  21057076.856    21057078.546    -1817103.582 8  -2968411.408 8
  20755676.407    20755680.347   -19605246.277 8 -16908046.207 9
  23437395.886    23437400.518   -42927089.741 9  48848274.684 8
 88  3 21  4 40 29.0800000  0  4G 6G 8G11G13
  20320276.799    20320279.662   -12135153.488 9  -8238564.682 9
  21069740.950    21069742.683    -1750558.246 9  -2916557.904 8
  20750981.696    20750985.698   -19629917.588 8 -16927270.600 8
  23417997.410    23418000.860   -43029034.814 9  48768836.946 8
 88  3 21  4 40 59.0800000  0  4G 6G 8G11G13
  20318793.029    20318795.099   -12142956.059 9  -8244644.606 8
  21082488.576    21082490.293    -1683566.426 9  -2864356.483 8
  20746387.039    20746390.844   -19654060.814 9 -16946083.479 9
  23398650.540    23398653.980   -43130700.931 9  48689616.591 8
 88  3 21  4 41 29.0800000  0  4G 6G 8G11G13
  20317402.246    20317403.581   -12150263.131 9  -8250338.438 8
  21095320.551    21095323.095    -1616131.079 9  -2811809.463 9
  20741893.004    20741896.277   -19677676.577 9 -16964485.345 8
  23379357.735    23379360.758   -43232086.171 9  48610615.115 8
 88  3 21  4 41 59.0800000  0  4G 6G 8G11G13
  20316105.810    20316108.409   -12157072.806 9  -8255644.682 9
  21108236.462    21108239.266    -1548255.459 8  -2758919.385 9
  20737499.579    20737502.982   -19700764.563 9 -16982475.981 8
  23360118.780    23360122.134   -43333188.838 9  48531833.831 8
 88  3 21  4 42 29.0800000  0  4G 6G 8G11G13
  20314905.065    20314907.622   -12163383.508 8  -8260562.116 9
  21121237.062    21121238.894    -1479942.740 9  -2705688.691 8
  20733206.303    20733209.920   -19723325.297 9 -17000055.758 9
  23340933.353    23340936.559   -43434006.981 9  48453274.288 8
 88  3 21  4 42 59.0800000  0  4G 6G 8G11G13
  20313799.518    20313801.697   -12169193.228 9  -8265089.183 8
  21134319.454    21134320.980    -1411195.767 9  -2652119.645 8
  20729013.232    20729017.511   -19745358.824 8 -17017224.724 9
  23321803.660    23321806.755   -43534537.991 9  48374938.464 8
 88  3 21  4 43 29.0800000  0  4G 6G 8G11G13
  20312789.916    20312790.544   -12174500.289 9  -8269224.565 8
  21147483.975    21147486.102    -1342017.923 9  -2598214.834 8
  20724920.120    20724923.852   -19766865.704 8 -17033983.311 8
  23302727.493    23302731.052   -43634780.750 9  48296827.256 8
 88  3 21  4 43 59.0800000  0  4G 6G 8G11G13
  20311876.056    20311878.497   -12179303.054 9  -8272966.992 9
  21160728.509    21160731.246    -1272412.173 9  -2543976.601 8
  20720928.308    20720932.393   -19787846.325 8 -17050331.845 8
  23283706.847    23283710.220   -43734733.189 9  48218942.268 8
 88  3 21  4 44 29.0800000  0  4G 6G 8G11G13
  20311057.911    20311060.719   -12183599.854 9  -8276315.164 8
  21174054.605    21174057.168    -1202381.647 9  -2489407.371 9
  20717036.163    20717039.472   -19808301.021 9 -17066270.561 9
  23264742.335    23264746.919   -43834392.164 9  48141285.941 8
 88  3 21  4 44 59.0800000  0  4G 6G 8G11G13
  20310336.462    20310339.404   -12187389.063 9  -8279267.804 8
  21187461.816    21187464.404    -1131929.512 9  -2434509.607 9
  20713243.563    20713246.811   -19828230.351 9 -17081799.911 8
  23245834.043    23245837.556   -43933756.499 9  48063859.196 8
 88  3 21  4 45 29.0800000  0  4G 6G 8G11G13
  20309713.408    20309715.239   -12190668.931 9  -8281823.564 8
  21200947.659    21200950.357    -1061059.077 9  -2379285.899 9
  20709550.774    20709555.241   -19847634.388 8 -17096919.920 9
  23226982.384    23226985.671   -44032823.897 8  47986663.851 8
 88  3 21  4 45 59.0800000  0  4G 6G 8G11G13
  20309185.373    20309187.956   -12193437.742 9  -8283981.072 9
  21214513.093    21214514.692     -989773.238 9  -2323738.496 9
  20705958.870    20705961.904   -19866513.582 9 -17111630.952 8
  23208187.386    23208190.021   -44131592.161 9  47909701.598 9
 88  3 21  4 46 29.0800000  0  4G 6G 8G11G13
  20308756.815    20308759.225   -12195693.980 8  -8285739.202 8
  21228156.947    21228158.119     -918075.378 9  -2267870.035 9
  20702465.340    20702468.859   -19884868.622 8 -17125933.565 8
  23189449.419    23189453.857   -44230059.923 9  47832973.496 8
 88  3 21  4 46 59.0800000  0  4G 6G 8G11G13
  20308425.235    20308427.368   -12197436.054 9  -8287096.677 9
  21241878.496    21241879.957     -845968.765 9  -2211683.065 8
  20699073.161    20699076.138   -19902700.133 8 -17139828.234 7
  23170768.912    23170773.201   -44328224.691 9  47756481.488 8
 88  3 21  4 47 29.0800000  0  4G 6G 8G11G13
  20308191.873    20308193.912   -12198662.556 9  -8288052.400 8
  21255677.591    21255678.849     -773456.594 9  -2155180.084 9
  20695777.946    20695782.240   -19920008.682 8 -17153315.410 9
  23152147.114    23152151.459   -44426085.038 9  47680226.685 8
 88  3 21  4 47 59.0800000  0  4G 6G 8G11G13
  20308057.147    20308059.245   -12199371.241 8  -8288604.627 9
  21269552.712    21269554.838     -700541.292 9  -2098362.970 9
  20692583.241    20692587.479   -19936793.907 8 -17166394.776 8
  23133583.369    23133586.754   -44523638.370 9  47604211.123 7
 88  3 21  4 48 29.0800000  0  4G 6G 8G11G13
  20308020.503    20308022.711   -12199560.584 9  -8288752.176 8
  21283503.458    21283506.552     -627226.471 9  -2041234.544 8
  20689489.407    20689493.739   -19953056.753 8 -17179067.122 7
  23115078.453    23115081.242   -44620882.768 9  47528436.294 9
 88  3 21  4 48 59.0800000  0  4G 6G 8G11G13
  20308084.041    20308085.941   -12199229.451 9  -8288494.157 8
  21297529.794    21297532.584     -553515.310 9  -1983797.271 8
  20686494.513    20686496.466   -19968798.113 9 -17191333.100 8
  23096632.357    23096635.429   -44717816.759 9  47452903.334 8
 88  3 21  4 49 29.0800000  0  4G 6G 8G11G13
  20308246.320    20308248.713   -12198377.102 9  -8287830.005 9
  21311631.884    21311634.296     -479411.272 9  -1926053.870 8
  20683597.350    20683600.539   -19984018.966 9 -17203193.484 8
  23078246.079    23078249.480   -44814438.367 9  47377613.778 8
 88  3 21  4 49 59.0800000  0  4G 6G 8G11G13
  20308507.681    20308508.590   -12197001.093 9  -8286757.807 9
  21325807.716    21325809.904     -404917.204 9  -1868006.532 9
  20680799.776    20680803.277   -19998719.312 9 -17214648.287 8
  23059919.868    23059921.374   -44910745.752 9  47302569.048 9
 88  3 21  4 50 29.0800000  0  4G 6G 8G11G13
  20308870.024    20308873.037   -12195100.184 9  -8285276.592 8
  21340057.020    21340059.033     -330036.308 9  -1809657.786 9
  20678101.709    20678104.482   -20012899.778 8 -17225697.993 8
  23041652.253    23041655.760   -45006736.632 9  47227770.993 8
 88  3 21  4 50 59.0800000  0  4G 6G 8G11G13
  20309332.671    20309333.997   -12192672.682 9  -8283385.035 8
  21354379.385    21354381.482     -254771.373 9  -1751009.784 9
  20675501.238    20675505.977   -20026561.143 8 -17236343.190 8
  23023446.564    23023449.368   -45102409.364 9  47153220.829 8
 88  3 21  4 51 29.0800000  0  4G 6G 8G11G13
  20309892.592    20309896.092   -12189717.707 8  -8281082.472 9
  21368774.492    21368776.666     -179126.404 9  -1692065.671 8
  20673000.895    20673003.922   -20039704.502 8 -17246584.775 7
  23005301.273    23005305.364   -45197762.327 9  47078919.844 7
 88  3 21  4 51 59.0800000  0  4G 6G 8G11G13
  20310556.546    20310559.180   -12186233.694 9  -8278367.674 9
  21383240.316    21383242.502     -103104.208 9  -1632827.591 9
  20670598.149    20670601.544   -20052330.578 8 -17256423.255 8
  22987218.203    22987220.228   -45292793.679 9  47004869.433 7
 88  3 21  4 52 29.0800000  0  4G 6G 8G11G13
  20311321.174    20311323.073   -12182219.235 8  -8275239.536 9
  21397777.748    21397779.465      -26708.063 8  -1573298.140 8
  20668293.163    20668297.331   -20064439.920 8 -17265859.089 8
  22969195.067    22969199.136   -45387501.871 9  46931070.851 8
 88  3 21  4 52 59.0800000  0  4G 6G 8G11G13
  20312186.371    20312188.449   -12177672.633 9  -8271696.748 9
  21412386.317    21412388.505       50059.350 9  -1513479.385 9
  20666087.269    20666091.033   -20076032.752 8 -17274892.445 8
  22951233.323    22951238.226   -45481884.484 9  46857525.985 9
 88  3 21  4 53 29.0800000  0  4G 6G 8G11G13
  20313152.696    20313155.497   -12172592.281 9  -8267738.043 8
  21427064.639    21427067.434      127194.649 9  -1453373.969 9
  20663979.941    20663981.785   -20087109.772 8 -17283523.876 8
  22933336.092    22933339.825   -45575939.342 9  46784236.498 9
 88  3 21  4 53 59.0800000  0  4G 6G 8G11G13
  20314221.182    20314223.105   -12166977.141 8  -8263362.616 8
  21441813.042    21441815.085      204694.819 9  -1392984.226 9
  20661970.070    20661973.552   -20097672.242 8 -17291754.379 7
  22915500.740    22915505.444   -45669665.084 8  46711203.480 8
 88  3 21  4 54 29.0800000  0  4G 6G 8G11G13
  20315391.525    20315393.707   -12160825.967 9  -8258569.500 9
  21456628.757    21456631.888      282556.419 9  -1332312.860 9
  20660056.726    20660061.414   -20107720.902 8 -17299584.484 8
  22897729.127    22897733.174   -45763059.853 9  46638428.362 9
 88  3 21  4 54 59.0800000  0  4G 6G 8G11G13
  20316664.589    20316666.752   -12154137.357 9  -8253357.615 9
  21471514.008    21471516.281      360776.542 9  -1271362.120 9
  20658242.149    20658246.408   -20117256.160 8 -17307014.551 8
  22880019.046    22880024.042   -45856121.337 9  46565912.942 8
 88  3 21  4 55 29.0800000  0  4G 6G 8G11G13
  20318040.033    20318042.100   -12146910.608 8  -8247726.399 9
  21486466.264    21486469.091      439351.073 9  -1210135.213 9
  20656524.910    20656529.485   -20126279.390 7 -17314045.616 8
  22862374.498    22862377.271   -45948849.273 8  46493657.437 8
 88  3 21  4 55 59.0800000  0  4G 6G 8G11G13
  20319518.111    20319521.162   -12139143.300 9  -8241673.962 9
  21501485.684    21501488.255      518277.934 9  -1148633.785 8
  20654906.839    20654909.534   -20134790.835 7 -17320677.888 7
  22844793.605    22844796.017   -46041240.283 9  46421664.454 8
 88  3 21  4 56 29.0800000  0  4G 6G 8G11G13
  20321098.283    20321101.029   -12130834.307 9  -8235199.435 8
  21516571.293    21516572.833      597553.619 9  -1086860.526 9
  20653383.707    20653385.740   -20142791.650 8 -17326912.299 7
  22827276.331    22827278.916   -46133292.490 9  46349935.487 9
 88  3 21  4 56 59.0800000  0  4G 6G 8G11G13
  20322783.241    20322785.887   -12121983.544 8  -8228302.748 8
  21531722.732    21531724.503      677174.542 9  -1024818.259 9
  20651958.040    20651960.573   -20150283.273 7 -17332749.924 8
  22809822.291    22809826.186   -46225005.903 9  46278470.505 9
 88  3 21  4 57 29.0800000  0  4G 6G 8G11G13
  20324571.645    20324573.717   -12112588.811 9  -8220982.203 9
  21546938.617    21546941.331      757138.236 9   -962508.898 8
  20650629.029    20650632.967   -20157265.920 8 -17338190.924 8
  22792434.772    22792439.229   -46316377.535 8  46207271.851 8
 88  3 21  4 57 59.0800000  0  4G 6G 8G11G13
  20326462.339    20326465.268   -12102649.519 9  -8213237.318 8
  21562220.610    21562222.260      837440.945 9   -899935.357 8
  20649397.423    20649400.263   -20163740.672 8 -17343236.179 7
  22775113.100    22775116.743   -46407406.212 9  46136340.443 8
 88  3 21  4 58 29.0800000  0  4G 6G 8G11G13
  20328458.323    20328460.743   -12092164.008 9  -8205066.805 9
  21577565.387    21577568.173      918080.099 9   -837099.657 9
  20648261.897    20648264.669   -20169708.494 7 -17347886.408 8
  22757857.189    22757860.040   -46498089.627 9  46065678.057 8
 88  3 21  4 58 59.0800000  0  4G 6G 8G11G13
  20330557.460    20330559.851   -12081131.188 8  -8196469.813 8
  21592973.993    21592976.110      999052.262 9   -774004.473 9
  20647222.212    20647224.547   -20175170.332 8 -17352142.369 7
  22740666.355    22740670.475   -46588425.908 9  45995286.163 7
 88  3 21  4 59 29.0800000  0  4G 6G 8G11G13
  20332760.881    20332763.713   -12069549.890 8  -8187445.443 9
  21608445.552    21608447.012     1080354.264 9   -710652.277 9
  20646279.226    20646283.722   -20180127.238 7 -17356004.889 7
  22723542.211    22723545.695   -46678413.901 8  45925165.660 9
 88  3 21  4 59 59.0800000  0  4G 6G 8G11G13
  20335071.047    20335071.901   -12057419.576 8  -8177993.257 9
  21623978.215    21623981.443     1161982.229 9   -647046.078 9
  20645432.032    20645434.456   -20184580.378 8 -17359474.851 7
  22706483.940    22706489.099   -46768052.700 8  45855317.245 9
 88  3 21  5  0 29.0800000  0  4G 6G 8G11G13
  20337483.896    20337485.027   -12044738.352 8  -8168111.801 8
  21639572.605    21639575.197     1243933.840 9   -583187.678 9
  20644679.725    20644684.384   -20188530.169 8 -17362552.589 7
  22689494.560    22689497.450   -46857339.532 9  45785743.105 9
 88  3 21  5  0 59.0800000  0  4G 6G 8G11G13
  20340001.518    20340003.382   -12031505.264 9  -8157800.326 8
  21655228.871    21655231.730     1326206.177 9   -519079.375 9
  20644024.938    20644028.561   -20191977.809 7 -17365239.046 8
  22672570.116    22672574.497   -46946272.260 9  45716444.887 9
 88  3 21  5  1 29.0800000  0  4G 6G 8G11G13
  20342623.271    20342626.115   -12017719.932 9  -8147058.526 9
  21670945.667    21670946.680     1408795.267 9   -454724.244 9
  20643463.632    20643466.284   -20194924.927 7 -17367535.502 7
  22655713.755    22655718.974   -47034850.297 9  45647423.058 9
 88  3 21  5  1 59.0800000  0  4G 6G 8G11G13
  20345353.160    20345355.079   -12003380.898 9  -8135885.274 8
  21686721.928    21686723.909     1491698.248 9   -390124.531 9
  20642996.476    20643000.365   -20197371.886 8 -17369442.199 8
  22638926.783    22638929.656   -47123071.774 9  45578679.065 9
 88  3 21  5  2 29.0800000  0  4G 6G 8G11G13
  20348187.470    20348189.885   -11988486.543 9  -8124279.301 8
  21702556.741    21702558.178     1574912.823 9   -325282.018 9
  20642625.124    20642629.659   -20199319.699 7 -17370959.960 8
  22622206.916    22622210.080   -47210934.376 9  45510214.718 9
 88  3 21  5  2 59.0800000  0  4G 6G 8G11G13
  20351127.236    20351129.321   -11973037.082 9  -8112240.771 8
  21718450.534    21718452.520     1658434.937 9   -260199.857 8
  20642350.158    20642354.126   -20200770.500 7 -17372090.451 7
  22605555.842    22605559.382   -47298437.118 8  45442030.779 8
 88  3 21  5  3 29.0800000  0  4G 6G 8G11G13
  20354172.848    20354174.838   -11957031.392 9  -8099768.826 8
  21734401.420    21734402.916     1742260.932 9   -194880.915 8
  20642168.216    20642171.549   -20201725.074 8 -17372834.273 8
  22588973.294    22588976.929   -47385579.181 9  45374127.889 7
 88  3 21  5  3 59.0800000  0  4G 6G 8G11G13
  20357324.025    20357327.452   -11940469.072 9  -8086863.136 8
  21750410.154    21750412.018     1826387.378 9   -129327.849 8
  20642080.548    20642084.602   -20202185.280 8 -17373192.876 7
  22572460.192    22572463.061   -47472359.338 9  45306506.996 8
 88  3 21  5  4 29.0800000  0  4G 6G 8G11G13
  20360581.937    20360583.687   -11923349.055 9  -8073522.880 9
  21766476.230    21766477.499     1910811.179 9    -63543.081 8
  20642086.026    20642089.770   -20202152.277 8 -17373167.147 8
  22556015.615    22556019.750   -47558775.589 9  45239169.670 7
 88  3 21  5  4 59.0800000  0  4G 6G 8G11G13
  20363947.368    20363948.935   -11905668.929 9  -8059746.167 8
  21782597.949    21782599.039     1995530.707 9      2472.135 8
  20642186.510    20642190.306   -20201625.640 7 -17372756.770 7
  22539639.916    22539644.322   -47644824.941 9  45172118.236 8
 88  3 21  5  5 29.0800000  0  4G 6G 8G11G13
  20367417.841    20367419.402   -11887428.982 9  -8045533.235 8
  21798774.749    21798776.608     2080541.640 9     68714.417 9
  20642382.007    20642385.452   -20200607.562 8 -17371963.443 9
  22523335.533    22523338.731   -47730507.343 9  45105352.739 8
 88  3 21  5  5 59.0800000  0  4G 6G 8G11G13
  20370995.458    20370997.290   -11868628.565 8  -8030883.571 8
  21815006.607    21815007.595     2165840.961 9    135181.403 9
  20642668.339    20642670.385   -20199099.116 7 -17370788.030 8
  22507101.492    22507104.945   -47815821.166 9  45038874.456 8
 88  3 21  5  6 29.0800000  0  4G 6G 8G11G13
  20374679.432    20374682.040   -11849267.216 9  -8015796.826 8
  21831292.599    21831294.853     2251425.112 9    201870.350 9
  20643048.299    20643051.127   -20197102.233 8 -17369232.003 7
  22490935.936    22490940.710   -47900765.636 9  44972683.970 8
 88  3 21  5  6 59.0800000  0  4G 6G 8G11G13
  20378470.890    20378473.129   -11829343.769 9  -8000272.074 9
  21847632.720    21847634.507     2337291.185 9    268778.973 9
  20643521.306    20643524.733   -20194617.912 8 -17367296.153 7
  22474843.306    22474846.601   -47985338.194 9  44906783.288 8
 88  3 21  5  7 29.0800000  0  4G 6G 8G11G13
  20382369.404    20382371.955   -11808856.945 8  -7984308.334 8
  21864025.551    21864027.972     2423436.737 9    335905.367 9
  20644085.346    20644089.469   -20191646.977 7 -17364981.118 8
  22458820.289    22458824.065   -48069537.743 9  44841173.277 8
 88  3 21  5  7 59.0800000  0  4G 6G 8G11G13
  20386374.895    20386377.551   -11787805.947 9  -7967904.967 8
  21880470.926    21880473.269     2509858.634 9    403247.094 9
  20644745.300    20644747.549   -20188190.690 8 -17362287.913 7
  22442868.971    22442873.352   -48153362.508 9  44775855.296 9
 88  3 21  5  8 29.0800000  0  4G 6G 8G11G13
  20390488.877    20390491.268   -11766190.766 9  -7951061.990 8
  21896968.906    21896970.738     2596553.063 9    470801.191 9
  20645493.993    20645497.863   -20184250.595 8 -17359217.710 7
  22426989.121    22426993.174   -48236811.549 9  44710830.096 9
 88  3 21  5  8 59.0800000  0  4G 6G 8G11G13
  20394709.108    20394711.427   -11744010.644 8  -7933778.805 8
  21913517.120    21913519.069     2683517.151 9    538565.417 9
  20646334.944    20646339.246   -20179828.088 8 -17355771.599 8
  22411181.010    22411184.303   -48319883.609 9  44646098.653 8
 88  3 21  5  9 29.0800000  0  4G 6G 8G11G13
  20399037.547    20399040.719   -11721264.749 8  -7916054.744 8
  21930116.720    21930119.070     2770748.202 8    606537.646 9
  20647267.490    20647272.727   -20174924.688 8 -17351950.773 8
  22395444.200    22395447.655   -48402577.024 9  44581662.252 8
 88  3 21  5  9 59.0800000  0  4G 6G 8G11G13
  20403473.240    20403475.294   -11697952.170 8  -7897889.109 8
  21946765.864    21946768.788     2858243.436 9    674715.740 8
  20648292.036    20648296.697   -20169540.971 7 -17347755.656 8
  22379780.773    22379785.120   -48484889.629 9  44517522.574 9
 88  3 21  5 10 29.0800000  0  4G 6G 8G11G13
  20408018.273    20408020.111   -11674072.573 8  -7879281.647 9
  21963465.284    21963467.562     2945998.983 9    743096.675 9
  20649408.730    20649412.782   -20163678.758 9 -17343187.683 8
  22364189.844    22364194.409   -48566820.985 9  44453679.993 8
 88  3 21  5 10 59.0800000  0  4G 6G 8G11G13
  20412668.928    20412671.939   -11649624.321 8  -7860231.098 8
  21980214.981    21980216.529     3034012.679 9    811678.769 9
  20650615.084    20650618.973   -20157338.790 8 -17338247.464 8
  22348671.262    22348675.565   -48648368.269 9  44390136.687 8
 88  3 21  5 11 29.0800000  0  4G 6G 8G11G13
  20417430.710    20417433.690   -11624607.918 8  -7840737.827 8
  21997010.792    21997013.583     3122280.719 9    880459.045 8
  20651912.788    20651916.248   -20150523.258 7 -17332936.647 7
  22333227.242    22333230.712   -48729531.507 8  44326892.631 8
 88  3 21  5 11 59.0800000  0  4G 6G 8G11G13
  20422299.677    20422300.745   -11599022.906 9  -7820801.473 8
  22013855.983    22013858.258     3210799.944 9    949435.058 9
  20653298.698    20653302.522   -20143233.785 8 -17327256.538 7
  22317855.475    22317859.321   -48810309.751 9  44263948.571 8
 88  3 21  5 12 29.0800000  0  4G 6G 8G11G13
  20427276.924    20427278.914   -11572868.281 8  -7800421.261 8
  22030748.006    22030749.392     3299567.481 9   1018604.557 9
  20654777.304    20654780.386   -20135471.140 8 -17321207.695 7
  22302557.442    22302560.428   -48890701.027 9  44201306.044 8
 88  3 21  5 12 59.0800000  0  4G 6G 8G11G13
  20432361.041    20432363.761   -11546143.857 9  -7779597.046 8
  22047686.277    22047688.622     3388579.883 9   1087964.857 9
  20656343.054    20656346.702   -20127237.201 8 -17314791.640 7
  22287333.650    22287335.824   -48970703.677 9  44138966.328 7
 88  3 21  5 13 29.0800000  0  4G 6G 8G11G13
  20437555.854    20437559.222   -11518849.121 9  -7758328.456 8
  22064669.761    22064673.127     3477834.186 8   1157513.646 9
  20657999.637    20658003.659   -20118533.469 7 -17308009.501 7
  22272184.230    22272186.044   -49050317.463 9  44076929.636 9
 88  3 21  5 13 59.0800000  0  4G 6G 8G11G13
  20442859.002    20442860.797   -11490984.067 8  -7736615.430 8
  22081700.793    22081702.950     3567327.162 9   1227248.426 9
  20659745.565    20659749.040   -20109362.014 8 -17300862.912 7
  22257107.917    22257111.236   -49129541.077 9  44015196.961 8
 88  3 21  5 14 29.0800000  0  4G 6G 8G11G13
  20448270.174    20448272.379   -11462547.952 8  -7714457.448 8
  22098775.999    22098777.672     3657056.050 9   1297167.016 9
  20661579.744    20661583.386   -20099723.630 7 -17293352.484 8
  22242106.654    22242110.196   -49208372.448 9  43953769.946 8
 88  3 21  5 14 59.0800000  0  4G 6G 8G11G13
  20453790.138    20453792.157   -11433540.609 8  -7691854.336 9
  22115894.620    22115896.573     3747017.445 9   1367266.802 9
  20663500.960    20663504.662   -20089620.328 8 -17285479.777 7
  22227180.040    22227183.381   -49286811.015 9  43892649.007 8
 88  3 21  5 15 29.0800000  0  4G 6G 8G11G13
  20459418.771    20459420.896   -11403961.506 8  -7668805.729 8
  22133057.212    22133059.893     3837208.682 8   1437545.673 8
  20665511.637    20665514.856   -20079053.377 9 -17277245.771 8
  22212328.444    22212332.549   -49364855.678 9  43831834.996 9
 88  3 21  5 15 59.0800000  0  4G 6G 8G11G13
  20465155.731    20465158.174   -11373810.380 8  -7645311.358 8
  22150263.832    22150266.006     3927626.609 8   1508001.187 9
  20667611.988    20667613.830   -20068024.331 8 -17268651.713 8
  22197551.510    22197556.296   -49442505.384 9  43771328.759 8
 88  3 21  5 16 29.0800000  0  4G 6G 8G11G13
  20471002.322    20471004.286   -11343086.815 8  -7621370.931 8
  22167512.484    22167513.754     4018267.808 9   1578630.697 8
  20669798.172    20669800.767   -20056534.652 9 -17259698.716 9
  22182852.786    22182856.009   -49519758.302 9  43711131.703 8
 88  3 21  5 16 59.0800000  0  4G 6G 8G11G13
  20476957.072    20476960.014   -11311790.789 9  -7596984.439 8
  22184802.358    22184804.794     4109129.163 9   1649431.744 9
  20672072.254    20672074.415   -20044586.501 8 -17250388.456 8
  22168226.413    22168230.249   -49596613.792 9  43651244.343 8
 88  3 21  5 17 29.0800000  0  4G 6G 8G11G13
  20483022.177    20483024.416   -11279922.198 9  -7572151.798 8
  22202133.417    22202135.376     4200207.554 9   1720401.910 9
  20674432.164    20674435.651   -20032181.470 9 -17240722.192 8
  22153677.986    22153681.620   -49673071.060 9  43591667.272 9
 88  3 21  5 17 59.0800000  0  4G 6G 8G11G13
  20489195.856    20489198.828   -11247480.131 9  -7546872.294 8
  22219506.232    22219508.391     4291501.065 9   1791539.714 8
  20676878.518    20676881.537   -20019320.464 8 -17230700.616 7
  22139203.723    22139208.446   -49749127.949 8  43532402.183 9
 88  3 21  5 18 29.0800000  0  4G 6G 8G11G13
  20495477.947    20495480.329   -11214465.154 8  -7521146.368 8
  22236918.861    22236921.260     4383005.351 9   1862841.741 9
  20679412.864    20679415.298   -20006006.043 8 -17220325.748 8
  22124806.683    22124811.387   -49824784.289 9  43473449.221 8
 88  3 21  5 18 59.0800000  0  4G 6G 8G11G13
  20501871.206    20501872.613   -11180877.074 9  -7494973.858 8
  22254370.726    22254373.332     4474717.887 9   1934306.044 8
  20682032.689    20682035.356   -19992239.615 8 -17209598.655 9
  22110486.647    22110491.370   -49900039.248 9  43414809.022 9
 88  3 21  5 19 29.0800000  0  4G 6G 8G11G13
  20508370.278    20508374.361   -11146715.238 8  -7468354.259 8
  22271862.477    22271865.333     4566636.127 9   2005930.627 8
  20684737.924    20684741.370   -19978022.694 8 -17198520.529 8
  22096243.566    22096246.969   -49974891.175 9  43356482.862 9
 88  3 21  5 19 59.0800000  0  4G 6G 8G11G13
  20514980.601    20514984.459   -11111978.783 9  -7441286.918 7
  22289391.660    22289395.655     4658757.772 9   2077713.712 9
  20687528.654    20687532.693   -19963355.651 9 -17187091.675 8
  22082075.788    22082079.919   -50049338.132 9  43298472.263 8
 88  3 21  5 20 29.0800000  0  4G 6G 8G11G13
  20521700.635    20521702.774   -11076668.346 9  -7413772.335 7
  22306960.657    22306963.579     4751078.974 9   2149652.298 9
  20690404.586    20690407.858   -19948241.168 8 -17175314.137 8
  22067985.466    22067990.821   -50123380.044 9  43240777.286 9
 88  3 21  5 20 59.0800000  0  4G 6G 8G11G13
  20528529.169    20528531.088   -11040783.974 9  -7385810.502 7
  22324566.086    22324569.809     4843596.560 9   2221743.909 9
  20693366.132    20693367.985   -19932681.334 9 -17163189.575 8
  22053973.411    22053978.039   -50197016.018 9  43183398.628 9
 88  3 21  5 21 29.0800000  0  4G 6G 8G11G13
  20535467.176    20535468.522   -11004325.589 8  -7357401.403 8
  22342208.766    22342211.808     4936307.672 9   2293986.311 9
  20696412.248    20696415.423   -19916677.769 9 -17150719.256 8
  22040039.371    22040041.861   -50270244.930 9  43126337.173 9
 88  3 21  5 21 59.0800000  0  4G 6G 8G11G13
  20542514.277    20542515.635   -10967293.125 8  -7328544.951 8
  22359887.395    22359890.080     5029209.593 9   2366377.398 9
  20699542.221    20699545.003   -19900231.838 9 -17137904.240 7
  22026182.222    22026184.726   -50343065.310 9  43069594.032 9
 88  3 21  5 22 29.0800000  0  4G 6G 8G11G13
  20549670.843    20549672.894   -10929686.364 9  -7299241.003 8
  22377601.484    22377604.811     5122299.160 9   2438914.722 8
  20702755.236    20702758.300   -19883345.149 8 -17124745.783 8
  22012402.564    22012405.473   -50415476.601 9  43013169.667 8
 88  3 21  5 22 59.0800000  0  4G 6G 8G11G13
  20556935.732    20556937.076   -10891505.418 9  -7269489.643 8
  22395351.560    22395354.579     5215573.480 8   2511595.994 9
  20706051.684    20706054.747   -19866019.635 8 -17111245.368 8
  21998700.136    21998703.668   -50487477.825 9  42957064.845 7
 88  3 21  5 23 29.0800000  0  4G 6G 8G11G13
  20564311.266    20564312.486   -10852751.087 8  -7239291.483 7
  22413135.409    22413137.781     5309029.154 9   2584418.587 9
  20709431.091    20709434.054   -19848257.691 8 -17097404.887 8
  21985077.298    21985081.320   -50559068.653 9  42901279.795 8
 88  3 21  5 23 59.0800000  0  4G 6G 8G11G13
  20571794.227    20571797.861   -10813422.868 8  -7208646.147 8
  22430953.418    22430956.320     5402663.576 9   2657380.466 9
  20712894.374    20712897.734   -19830060.657 8 -17083225.369 8
  21971532.615    21971535.895   -50630247.716 9  42845815.609 9
 88  3 21  5 24 29.0800000  0  4G 6G 8G11G13
  20579388.234    20579389.608   -10773520.069 9  -7177553.072 8
  22448805.331    22448807.159     5496474.180 9   2730479.621 8
  20716439.776    20716442.435   -19811430.156 9 -17068708.099 9
  21958066.918    21958070.184   -50701014.040 9  42790673.036 8
 88  3 21  5 24 59.0800000  0  4G 6G 8G11G13
  20587091.136    20587092.935   -10733043.940 9  -7146013.254 8
  22466689.438    22466691.626     5590458.009 8   2803713.766 9
  20720067.134    20720069.580   -19792368.275 9 -17053854.693 8
  21944679.220    21944682.629   -50771366.967 9  42735852.598 8
 88  3 21  5 25 29.0800000  0  4G 6G 8G11G13
  20594901.318    20594903.859   -10691994.576 9  -7114026.759 8
  22484607.128    22484608.068     5684611.953 8   2877080.467 8
  20723775.398    20723779.868   -19772876.481 9 -17038666.272 8
  21931370.146    21931372.335   -50841305.318 9  42681355.190 7
 88  3 21  5 25 59.0800000  0  4G 6G 8G11G13
  20602822.958    20602823.941   -10650371.695 9  -7081593.368 7
  22502555.261    22502558.078     5778933.457 8   2950577.742 8
  20727566.277    20727570.084   -19752956.651 7 -17023144.314 8
  21918139.797    21918142.390   -50910828.330 9  42627181.431 8
 88  3 21  5 26 29.0800000  0  4G 6G 8G11G13
  20610851.941    20610854.960   -10608175.166 9  -7048712.976 7
  22520535.390    22520537.693     5873419.925 9   3024203.552 8
  20731437.947    20731443.003   -19732610.469 8 -17007290.136 9
  21904989.121    21904992.723   -50979935.000 9  42573332.085 8
 88  3 21  5 26 59.0800000  0  4G 6G 8G11G13
  20618990.461    20618992.906   -10565405.626 9  -7015386.096 8
  22538546.481    22538548.832     5968067.778 9   3097955.129 9
  20735391.128    20735394.194   -19711839.937 9 -16991105.295 8
  21891918.168    21891921.293   -51048624.681 9  42519807.680 8
 88  3 21  5 27 29.0800000  0  4G 6G 8G11G13
  20627239.133    20627240.521   -10522063.442 9  -6981612.985 8
  22556587.179    22556590.042     6062874.395 9   3171830.402 8
  20739424.495    20739428.073   -19690647.204 9 -16974591.487 8
  21878926.358    21878929.657   -51116896.414 9  42466608.949 8
 88  3 21  5 27 59.0800000  0  4G 6G 8G11G13
  20635595.085    20635596.802   -10478148.828 9  -6947393.826 9
  22574658.686    22574661.608     6157836.823 8   3245827.089 9
  20743537.248    20743540.039   -19669033.924 9 -16957749.977 8
  21866014.120    21866017.264   -51184749.558 9  42413736.391 8
 88  3 21  5 28 29.0800000  0  4G 6G 8G11G13
  20644061.516    20644062.591   -10433661.681 9  -6912728.548 8
  22592757.990    22592760.385     6252952.557 9   3319943.246 8
  20747728.701    20747731.446   -19647001.741 9 -16940582.049 8
  21853181.533    21853186.203   -51252182.898 9  42361190.956 8
 88  3 21  5 28 59.0800000  0  4G 6G 8G11G13
  20652635.923    20652638.509   -10388602.572 9  -6877617.587 8
  22610886.185    22610889.326     6348218.569 9   3394176.484 9
  20752000.950    20752005.052   -19624552.504 8 -16923089.129 8
  21840429.919    21840433.356   -51319196.292 8  42308972.752 9
 88  3 21  5 29 29.0800000  0  4G 6G 8G11G13
  20661318.937    20661320.641   -10342972.105 9  -6842061.401 8
  22629041.877    22629045.696     6443631.944 8   3468524.560 9
  20756352.146    20756355.180   -19601688.544 9 -16905273.051 8
  21827757.150    21827760.498   -51385789.531 8  42257081.933 9
 88  3 21  5 29 59.0800000  0  4G 6G 8G11G13
  20670110.559    20670112.787   -10296770.606 9  -6806060.253 8
  22647227.326    22647230.407     6539190.243 9   3542985.560 9
  20760781.846    20760784.727   -19578411.617 8 -16887135.183 8
  21815165.706    21815169.506   -51451961.046 9  42205519.735 8
 88  3 21  5 30 29.0800000  0  4G 6G 8G11G13
  20679011.779    20679014.164   -10249998.063 9  -6769614.134 9
  22665438.256    22665441.387     6634890.998 9   3617557.557 9
  20765290.772    20765293.515   -19554723.196 9 -16868676.666 8
  21802653.029    21802658.580   -51517710.222 9  42154286.638 8
 88  3 21  5 30 59.0800000  0  4G 6G 8G11G13
  20688020.344    20688023.725   -10202655.360 9  -6732723.755 9
  22683676.156    22683679.025     6730730.884 8   3692237.987 8
  20769875.988    20769879.214   -19530625.557 9 -16849899.291 8
  21790222.215    21790225.671   -51583036.496 8  42103383.079 8
 88  3 21  5 31 29.0800000  0  4G 6G 8G11G13
  20697137.807    20697141.291   -10154742.574 9  -6695389.154 9
  22701940.032    22701943.402     6826707.319 9   3767024.803 9
  20774538.302    20774541.333   -19506120.576 8 -16830804.496 8
  21777871.493    21777875.637   -51647939.096 9  42052809.642 7
 88  3 21  5 31 59.0800000  0  4G 6G 8G11G13
  20706363.110    20706366.474   -10106259.428 9  -6657610.120 8
  22720230.192    22720232.640     6922818.528 8   3841916.638 9
  20779277.879    20779281.934   -19481209.496 8 -16811393.258 9
  21765601.977    21765605.922   -51712416.492 8  42002567.536 8
 88  3 21  5 32 29.0800000  0  4G 6G 8G11G13
  20715698.271    20715700.454   -10057207.434 9  -6619387.813 8
  22738543.983    22738546.871     7019060.537 9   3916910.396 8
  20784095.422    20784098.481   -19455894.919 9 -16791667.605 9
  21753412.651    21753417.650   -51776469.074 9  41952656.453 8
 88  3 21  5 32 59.0800000  0  4G 6G 8G11G13
  20725140.252    20725143.438   -10007587.054 9  -6580722.620 9
  22756882.381    22756885.857     7115430.498 9   3992003.867 9
  20788990.544    20788992.660   -19430178.644 9 -16771628.941 9
  21741305.498    21741310.124   -51840095.942 9  41903077.089 8
 88  3 21  5 33 29.0800000  0  4G 6G 8G11G13
  20734690.966    20734693.503    -9957398.921 9  -6541615.005 8
  22775244.725    22775247.335     7211925.975 9   4067195.136 9
  20793959.813    20793962.507   -19404063.179 8 -16751279.228 9
  21729278.439    21729283.113   -51903297.415 9  41853829.219 8
 88  3 21  5 33 59.0800000  0  4G 6G 8G11G13
  20744349.145    20744351.693    -9906643.890 8  -6502065.652 8
  22793631.280    22793633.064     7308543.566 9   4142481.565 9
  20799004.670    20799007.006   -19377550.837 8 -16730620.272 9
  21717333.121    21717337.247   -51966072.556 9  41804913.536 8
 88  3 21  5 34 29.0800000  0  4G 6G 8G11G13
  20754115.791    20754117.999    -9855322.506 8  -6462074.993 9
  22812039.439    22812042.394     7405280.677 9   4217861.122 9
  20804123.474    20804128.473   -19350643.242 9 -16709653.311 8
  21705468.395    21705472.254   -52028420.709 9  41756330.586 9
 88  3 21  5 34 59.0800000  0  4G 6G 8G11G13
  20763990.144    20763992.796    -9803435.381 9  -6421643.496 9
  22830469.613    22830472.576     7502134.747 8   4293331.820 9
  20809319.009    20809323.272   -19323342.613 8 -16688380.086 8
  21693685.078    21693689.101   -52090342.025 9  41708080.242 8
 88  3 21  5 35 29.0800000  0  4G 6G 8G11G13
  20773970.618    20773973.361    -9750982.579 9  -6380771.211 8
  22848922.414    22848925.370     7599103.778 9   4368892.106 9
  20814589.605    20814592.623   -19295649.906 9 -16666801.352 9
  21681984.447    21681987.832   -52151834.445 9  41660164.070 9
 88  3 21  5 35 59.0800000  0  4G 6G 8G11G13
  20784059.103    20784062.481    -9697965.141 9  -6339458.956 8
  22867396.539    22867398.076     7696184.707 9   4444539.569 8
  20819934.373    20819936.896   -19267567.825 9 -16644919.205 8
  21670364.316    21670367.186   -52212898.031 9  41612582.075 9
 88  3 21  5 36 29.0800000  0  4G 6G 8G11G13
  20794256.077    20794257.781    -9644384.310 9  -6297707.681 9
  22885890.408    22885893.470     7793374.576 9   4520271.922 9
  20825352.189    20825355.463   -19239098.465 8 -16622735.304 8
  21658825.434    21658828.949   -52273533.393 9  41565333.753 8
 88  3 21  5 36 59.0800000  0  4G 6G 8G11G13
  20804558.812    20804561.024    -9590240.104 9  -6255517.423 8
  22904405.706    22904407.782     7890670.959 9   4596087.280 9
  20830841.882    20830845.207   -19210243.725 9 -16600251.085 7
  21647368.454    21647372.065   -52333739.180 9  41518420.165 7
 88  3 21  5 37 29.0800000  0  4G 6G 8G11G13
  20814969.121    20814972.479    -9535532.867 9  -6212888.444 8
  22922940.021    22922942.680     7988071.599 9   4671983.869 8
  20836404.564    20836410.084   -19181005.119 8 -16577467.739 8
  21635994.270    21635996.495   -52393514.540 9  41471841.986 8
 88  3 21  5 37 59.0800000  0  4G 6G 8G11G13
  20825486.943    20825488.144    -9480264.311 9  -6169822.050 7
  22941493.787    22941496.484     8085573.548 9   4747959.404 8
  20842040.978    20842044.646   -19151385.614 8 -16554387.588 8
  21624700.732    21624704.066   -52452860.114 9  41425598.689 8
 88  3 21  5 38 29.0800000  0  4G 6G 8G11G13
  20836110.659    20836112.687    -9424434.890 9  -6126318.633 8
  22960067.062    22960069.866     8183174.169 9   4824011.827 9
  20847750.643    20847752.872   -19121386.819 8 -16531011.903 8
  21613489.621    21613491.550   -52511774.815 9  41379691.144 8
 88  3 21  5 38 59.0800000  0  4G 6G 8G11G13
  20846841.919    20846843.145    -9368045.253 9  -6082378.677 8
  22978657.824    22978661.159     8280870.831 9   4900139.087 8
  20853531.133    20853533.681   -19091010.541 9 -16507342.079 7
  21602360.547    21602363.590   -52570257.770 9  41334120.019 8
 88  3 21  5 39 29.0800000  0  4G 6G 8G11G13
  20857679.256    20857681.718    -9311096.211 9  -6038002.839 9
  22997267.171    22997270.283     8378661.314 9   4976339.459 9
  20859383.143    20859385.661   -19060258.694 9 -16483379.612 8
  21591314.045    21591316.869   -52628308.577 8  41288885.641 8
 88  3 21  5 39 59.0800000  0  4G 6G 8G11G13
  20868622.378    20868624.697    -9253588.491 9  -5993191.658 8
  23015893.456    23015895.566     8476542.908 9   5052610.808 9
  20865306.575    20865308.207   -19029133.280 9 -16459126.060 8
  21580349.302    21580352.684   -52685927.322 9  41243987.938 8
 88  3 21  5 40 29.0800000  0  4G 6G 8G11G13
  20879671.447    20879673.929    -9195523.805 9  -5947946.466 7
  23034537.158    23034538.860     8574512.405 9   5128950.672 9
  20871298.613    20871302.219   -18997637.395 8 -16434583.803 8
  21569467.438    21569469.346   -52743114.198 9  41199426.749 8
 88  3 21  5 40 59.0800000  0  4G 6G 8G11G13
  20890827.329    20890829.451    -9136903.104 9  -5902268.021 8
  23053196.347    23053198.583     8672567.478 9   5205357.205 8
  20877362.541    20877366.751   -18965773.004 9 -16409754.386 7
  21558666.827    21558669.602   -52799869.233 9  41155202.073 8
 88  3 21  5 41 29.0800000  0  4G 6G 8G11G13
  20902087.703    20902090.443    -9077726.257 9  -5856156.219 8
  23071871.628    23071873.184     8770706.335 8   5281829.027 9
  20883496.264    20883500.001   -18933541.043 8 -16384638.565 8
  21547948.925    21547952.180   -52856190.511 8  41111315.390 8
 88  3 21  5 41 59.0800000  0  4G 6G 8G11G13
  20913455.286    20913456.584    -9017994.635 9  -5809612.121 8
  23090561.985    23090564.491     8868926.142 8   5358363.936 9
  20889700.422    20889702.346   -18900944.129 8 -16359238.358 7
  21537314.147    21537317.074   -52912078.234 9  41067766.535 7
 88  3 21  5 42 29.0800000  0  4G 6G 8G11G13
  20924927.030    20924928.832    -8957709.144 9  -5762636.447 8
  23109267.346    23109269.582     8967224.436 9   5434959.992 9
  20895972.263    20895973.944   -18867983.858 9 -16333555.044 9
  21526762.080    21526763.992   -52967531.927 9  41024555.867 7
 88  3 21  5 42 59.0800000  0  4G 6G 8G11G13
  20936503.239    20936504.859    -8896871.311 9  -5715230.387 7
  23127987.152    23127989.917     9065598.483 9   5511615.063 9
  20902311.404    20902315.107   -18834663.359 9 -16307591.027 8
  21516291.698    21516296.283   -53022552.076 9  40981683.052 7
 88  3 21  5 43 29.0800000  0  4G 6G 8G11G13
  20948185.278    20948187.050    -8835482.291 9  -5667394.802 7
  23146720.962    23146723.807     9164045.420 9   5588326.961 9
  20908719.790    20908722.684   -18800984.708 9 -16281347.932 8
  21505903.593    21505908.754   -53077138.495 9  40939148.203 8
 88  3 21  5 43 59.0800000  0  4G 6G 8G11G13
  20959971.909    20959973.361    -8773543.044 9  -5619130.478 7
  23165469.055    23165470.106     9262562.622 9   5665093.611 9
  20915196.396    20915200.856   -18766949.890 9 -16254827.287 7
  21495599.617    21495602.625   -53131291.283 9  40896951.243 8
 88  3 21  5 44 29.0800000  0  4G 6G 8G11G13
  20971862.814    20971865.498    -8711054.445 9  -5570438.104 8
  23184228.841    23184230.117     9361148.234 9   5741913.554 9
  20921740.363    20921745.225   -18732560.631 9 -16228030.457 8
  21485377.354    21485379.790   -53185009.795 9  40855092.669 7
 88  3 21  5 44 59.0800000  0  4G 6G 8G11G13
  20983858.426    20983860.527    -8648017.465 9  -5521318.411 9
  23203001.369    23203003.662     9459799.887 8   5818784.958 9
  20928352.785    20928355.446   -18697819.274 9 -16200959.256 8
  21475236.906    21475241.057   -53238293.364 9  40813573.029 8
 88  3 21  5 45 29.0800000  0  4G 6G 8G11G13
  20995958.695    20995960.329    -8584433.572 9  -5471772.545 8
  23221785.366    23221788.467     9558514.744 8   5895705.602 9
  20935030.378    20935034.105   -18662727.858 9 -16173615.283 8
  21465179.283    21465183.903   -53291142.693 9  40772391.746 8
 88  3 21  5 45 59.0800000  0  4G 6G 8G11G13
  21008161.569    21008164.423    -8520303.934 9  -5421801.415 8
  23240582.392    23240585.354     9657289.843 9   5972673.183 9
  20941774.847    20941777.455   -18627288.849 9 -16146000.481 8
  21455205.683    21455210.699   -53343557.288 9  40731549.220 8
 88  3 21  5 46 29.0800000  0  4G 6G 8G11G13
  21020468.042    21020471.714    -8455629.842 9  -5371406.050 8
  23259389.865    23259392.060     9756123.267 9   6049686.227 9
  20948584.309    20948586.313   -18591504.411 9 -16118116.495 8
  21445314.417    21445317.564   -53395537.197 9  40691045.422 8
 88  3 21  5 46 59.0800000  0  4G 6G 8G11G13
  21032878.734    21032881.946    -8390412.313 8  -5320587.225 7
  23278206.899    23278210.670     9855012.793 8   6126742.974 9
  20955458.855    20955461.733   -18555376.350 9 -16089964.765 8
  21435506.740    21435509.918   -53447082.290 9  40650880.442 7
 88  3 21  5 47 29.0800000  0  4G 6G 8G11G13
  21045393.578    21045395.981    -8324652.595 8  -5269345.911 8
  23297035.657    23297037.810     9953955.860 9   6203841.449 8
  20962397.836    20962401.103   -18518906.682 9 -16061546.838 8
  21425780.988    21425784.148   -53498192.245 9  40611054.521 7
 88  3 21  5 47 59.0800000  0  4G 6G 8G11G13
  21058010.021    21058011.332    -8258352.070 9  -5217683.183 8
  23315873.175    23315876.042    10052949.905 9   6280979.669 8
  20969402.451    20969406.276   -18482097.607 9 -16032864.455 8
  21416138.034    21416140.792   -53548866.780 9  40571567.868 8
 88  3 21  5 48 29.0800000  0  4G 6G 8G11G13
  21070728.112    21070731.038    -8191511.968 9  -5165599.996 7
  23334721.170    23334723.548    10151992.705 9   6358155.865 8
  20976471.600    20976475.046   -18444951.471 9 -16003919.395 9
  21406577.859    21406579.406   -53599106.396 9  40532420.135 8
 88  3 21  5 48 59.0800000  0  4G 6G 8G11G13
  21083550.669    21083552.482    -8124133.555 9  -5113097.374 8
  23353578.385    23353579.686    10251082.065 9   6435368.349 9
  20983605.197    20983607.151   -18407470.435 9 -15974713.388 8
  21397099.789    21397102.183   -53648910.770 9  40493611.549 8
 88  3 21  5 49 29.0800000  0  4G 6G 8G11G13
  21096474.320    21096477.655    -8056217.949 9  -5060176.151 8
  23372442.142    23372444.267    10350216.017 9   6512615.571 8
  20990800.317    20990802.824   -18369656.525 8 -15945248.001 8
  21387705.106    21387707.773   -53698279.623 9  40455142.327 9
 88  3 21  5 49 59.0800000  0  4G 6G 8G11G13
  21109500.600    21109502.965    -7987766.845 9  -5006837.657 9
  23391314.046    23391316.546    10449391.942 9   6589895.495 9
  20998058.745    20998061.655   -18331511.980 9 -15915524.978 8
  21378393.220    21378395.985   -53747213.650 9  40417011.930 8
 88  3 21  5 50 29.0800000  0  4G 6G 8G11G13
  21122628.406    21122629.933    -7918781.513 9  -4953082.868 8
  23410194.523    23410197.419    10548607.508 9   6667206.313 8
  21005379.704    21005381.589   -18293038.794 9 -15885545.872 8
  21369164.754    21369167.693   -53795711.976 9  40379221.045 9
 88  3 21  5 50 59.0800000  0  4G 6G 8G11G13
  21135857.346    21135859.026    -7849263.098 9  -4898912.702 8
  23429081.923    23429083.997    10647859.914 9   6744545.842 9
  21012762.652    21012766.150   -18254239.321 9 -15855312.506 8
  21360017.942    21360021.237   -53843774.975 9  40341769.362 7
 88  3 21  5 51 29.0800000  0  4G 6G 8G11G13
  21149186.852    21149189.024    -7779213.351 9  -4844328.492 9
  23447975.723    23447978.848    10747147.216 8   6821912.559 8
  21020207.961    21020211.407   -18215115.716 9 -15824826.589 8
  21350954.755    21350958.048   -53891403.215 9  40304656.471 8
 88  3 21  5 51 59.0800000  0  4G 6G 8G11G13
  21162618.064    21162620.453    -7708633.514 9  -4789331.253 8
  23466875.499    23466878.249    10846467.356 9   6899304.861 9
  21027714.222    21027717.148   -18175670.073 9 -15794089.733 8
  21341973.605    21341977.191   -53938596.074 9  40267882.836 8
 88  3 21  5 52 29.0800000  0  4G 6G 8G11G13
  21176149.481    21176151.728    -7637525.108 9  -4733922.123 8
  23485780.447    23485784.021    10945818.093 9   6976721.012 9
  21035281.419    21035284.545   -18135904.612 9 -15763103.656 9
  21333075.997    21333079.457   -53985353.779 9  40231448.269 7
 88  3 21  5 52 59.0800000  0  4G 6G 8G11G13
  21189780.747    21189784.298    -7565889.505 9  -4678102.211 8
  23504692.199    23504695.240    11045196.832 8   7054158.968 9
  21042909.356    21042911.793   -18095821.431 9 -15731870.014 9
  21324262.444    21324264.913   -54031676.297 9  40195352.824 8
 88  3 21  5 53 29.0800000  0  4G 6G 8G11G13
  21203512.390    21203514.775    -7493728.191 9  -4621872.643 8
  23523607.192    23523611.392    11144601.154 8   7131616.863 9
  21050597.554    21050600.173   -18055422.537 9 -15700390.359 8
  21315530.051    21315533.064   -54077563.659 9  40159596.451 8
 88  3 21  5 53 59.0800000  0  4G 6G 8G11G13
  21217344.205    21217346.425    -7421043.010 9  -4565234.855 9
  23542528.162    23542532.112    11244028.833 8   7209092.940 9
  21058344.612    21058346.934   -18014710.625 9 -15668666.797 8
  21306880.221    21306883.934   -54123017.066 9  40124178.228 8
 88  3 21  5 54 59.0800000  0  4G 6G 8G11G13
  21245305.236    21245307.016    -7274106.348 9  -4450738.798 8
  23580382.113    23580384.827    11442946.677 8   7364093.806 8
  21074015.591    21074019.035   -17932355.043 8 -15604493.607 8
  21289829.517    21289832.480   -54212619.571 9  40054358.121 7
 88  3 21  5 55 29.0800000  0  4G 6G 8G11G13
  21259434.253    21259437.036    -7199858.349 9  -4392883.254 8
  23599313.515    23599315.774    11542432.003 9   7441614.821 9
  21081939.054    21081942.537   -17890715.945 9 -15572047.554 8
  21281427.213    21281429.743   -54256769.494 9  40019955.600 9
 88  3 21  5 55 59.0800000  0  4G 6G 8G11G13
  21273661.711    21273664.900    -7125092.325 9  -4334624.049 8
  23618247.040    23618251.044    11641932.609 9   7519147.755 9
  21089920.233    21089924.199   -17848771.823 9 -15539363.826 8
  21273108.204    21273111.213   -54300485.496 9  39985891.194 9
 88  3 21  5 56 29.0800000  0  4G 6G 8G11G13
  21287988.356    21287989.771    -7049810.198 9  -4275962.693 7
  23637184.064    23637187.418    11741446.046 9   7596690.685 9
  21097960.627    21097964.076   -17806525.381 9 -15506444.522 9
  21264872.945    21264875.843   -54343767.493 9  39952164.972 8
 88  3 21  5 56 59.0800000  0  4G 6G 8G11G13
  21302410.755    21302413.913    -6974013.774 9  -4216900.560 8
  23656121.942    23656125.089    11840969.813 9   7674241.647 9
  21106057.242    21106060.201   -17763978.891 8 -15473291.410 9
  21256718.016    21256720.777   -54386616.161 9  39918776.406 8
 88  3 21  5 57 29.0800000  0  4G 6G 8G11G13
  21316931.981    21316934.435    -6897704.740 8  -4157438.996 8
  23675062.221    23675065.386    11940501.521 9   7751798.792 9
  21114209.561    21114212.151   -17721134.913 9 -15439906.504 8
  21248646.536    21248649.404   -54429031.522 9  39885725.489 8
 88  3 21  5 57 59.0800000  0  4G 6G 8G11G13
  21331549.912    21331552.815    -6820884.366 9  -4097578.990 8
  23694005.145    23694007.952    12040040.028 9   7829361.249 8
  21122419.203    21122421.668   -17677994.432 9 -15406290.542 8
  21240658.252    21240661.572   -54471013.826 9  39853012.015 8
 88  3 21  5 58 29.0800000  0  4G 6G 8G11G13
  21346267.077    21346268.853    -6743554.288 9  -4037321.814 9
  23712948.055    23712950.641    12139583.214 9   7906927.369 8
  21130684.400    21130687.653   -17634559.670 9 -15372445.282 8
  21232751.359    21232755.367   -54512563.034 8  39820636.034 7
 88  3 21  5 58 59.0800000  0  4G 6G 8G11G13
  21361078.575    21361081.878    -6665716.791 9  -3976669.253 8
  23731889.580    23731893.226    12239128.330 9   7984494.979 8
  21139004.712    21139008.693   -17590833.463 9 -15338372.914 9
  21224927.365    21224931.076   -54553679.643 9  39788597.120 7
 88  3 21  5 59 29.0800000  0  4G 6G 8G11G13
  21375986.452    21375988.852    -6587373.278 9  -3915622.387 7
  23750833.124    23750835.335    12338673.194 9   8062062.405 9
  21147380.372    21147383.886   -17546818.079 9 -15304075.214 8
  21217185.804    21217188.782   -54594364.227 9  39756894.862 8
 88  3 21  5 59 59.0800000  0  4G 6G 8G11G13
  21390991.456    21390993.449    -6508526.093 9  -3854183.046 9
  23769775.401    23769777.652    12438215.388 9   8139627.750 8
  21155811.018    21155814.321   -17502516.027 8 -15269554.138 8
  21209525.685    21209527.747   -54634617.719 9  39725528.526 8
 88  3 21  6  0 29.0800000  0  4G 6G 8G11G13
  21406090.817    21406093.396    -6429176.983 9  -3792352.604 8
  23788716.861    23788719.132    12537752.755 8   8217189.318 8
  21164295.967    21164299.345   -17457929.306 9 -15234811.239 8
  21201946.958    21201949.595   -54674440.370 9  39694497.908 8
 88  3 21  6  0 59.0800000  0  4G 6G 8G11G13
  21421285.517    21421287.859    -6349328.000 9  -3730132.646 8
  23807657.439    23807659.753    12637283.690 9   8294745.894 8
  21172834.893    21172836.120   -17413060.142 9 -15199848.251 8
  21194451.851    21194454.093   -54713832.366 9  39663802.851 8
 88  3 21  6  1 29.0800000  0  4G 6G 8G11G13
  21436575.866    21436576.602    -6268980.746 9  -3667524.432 8
  23826596.225    23826597.166    12736806.088 9   8372295.802 8
  21181426.419    21181429.101   -17367910.539 9 -15164666.747 8
  21187036.247    21187040.877   -54752793.991 9  39633443.152 8
 88  3 21  6  1 59.0800000  0  4G 6G 8G11G13
  21451959.152    21451961.910    -6188136.836 9  -3604529.214 7
  23845531.626    23845533.626    12836318.259 8   8449837.737 9
  21190070.152    21190073.746   -17322482.758 9 -15129268.473 9
  21179704.722    21179707.890   -54791325.012 9  39603418.996 9
 88  3 21  6  2 29.0800000  0  4G 6G 8G11G13
  21467436.894    21467440.278    -6106798.157 9  -3541148.444 7
  23864466.488    23864467.634    12935817.660 8   8527369.715 9
  21198767.169    21198770.621   -17276778.865 9 -15093655.047 8
  21172453.817    21172457.962   -54829426.017 9  39573729.921 7
 88  3 21  6  2 59.0800000  0  4G 6G 8G11G13
  21483008.318    21483012.349    -6024966.970 9  -3477383.915 8
  23883396.777    23883400.174    13035302.615 8   8604890.444 9
  21207517.331    21207519.840   -17230801.391 9 -15057828.464 8
  21165285.877    21165287.900   -54867098.426 9  39544374.807 7
 88  3 21  6  3 29.0800000  0  4G 6G 8G11G13
  21498675.600    21498677.538    -5942645.398 9  -3413237.246 9
  23902325.978    23902328.364    13134770.644 8   8682397.969 9
  21216317.258    21216319.523   -17184552.697 8 -15021790.515 8
  21158198.105    21158201.073   -54904342.958 9  39515353.097 7
 88  3 21  6  3 59.0800000  0  4G 6G 8G11G13
  21514432.356    21514435.582    -5859836.356 9  -3348710.757 9
  23921248.477    23921252.803    13234218.589 8   8759889.839 9
  21225170.158    21225172.442   -17138035.989 9 -14985543.732 9
  21151192.484    21151194.360   -54941160.083 9  39486664.440 8
 88  3 21  6  4 29.0800000  0  4G 6G 8G11G13
  21530282.885    21530285.583    -5776539.644 8  -3283804.255 9
  23940170.289    23940173.161    13333646.983 9   8837366.473 9
  21234072.745    21234075.618   -17091250.896 9 -14949087.822 9
  21144268.459    21144269.688   -54977548.897 9  39458309.523 7
 88  3 21  6  4 59.0800000  0  4G 6G 8G11G13
  21546226.326    21546228.801    -5692757.092 9  -3218519.169 8
  23959086.329    23959090.039    13433053.722 8   8914826.247 9
  21243026.234    21243029.627   -17044200.236 9 -14912424.967 8
  21137424.621    21137427.233   -55013509.740 8  39430288.109 8
 88  3 21  6  5 29.0800000  0  4G 6G 8G11G13
  21562262.258    21562264.718    -5608492.070 9  -3152858.148 8
  23977998.218    23978001.811    13532435.675 8   8992266.697 9
  21252029.410    21252032.398   -16996887.073 9 -14875557.558 9
  21130663.085    21130665.822   -55049044.396 9  39402598.776 7
 88  3 21  6  5 59.0800000  0  4G 6G 8G11G13
  21578389.308    21578391.727    -5523745.770 9  -3086822.103 8
  23996905.968    23996909.139    13631792.064 8   9069687.232 9
  21261082.471    21261085.360   -16949312.584 9 -14838486.509 8
  21123981.952    21123985.163   -55084152.537 9  39375241.803 8
 88  3 21  6  6 29.0800000  0  4G 6G 8G11G13
  21594607.227    21594608.461    -5438520.339 9  -3020412.702 8
  24015807.316    24015809.999    13731120.576 9   9147086.054 9
  21270185.810    21270188.477   -16901479.041 9 -14801213.611 8
  21117382.140    21117385.821   -55118834.415 9  39348216.973 8
 88  3 21  6  6 59.0800000  0  4G 6G 8G11G13
  21610914.945    21610917.243    -5352818.211 9  -2953631.842 8
  24034703.257    24034706.392    13830418.906 9   9224461.365 9
  21279336.626    21279339.259   -16853389.346 9 -14763741.128 9
  21110862.177    21110866.643   -55153091.288 9  39321523.308 8
 88  3 21  6  7 29.0800000  0  4G 6G 8G11G13
  21627314.401    21627315.533    -5266641.352 9  -2886481.073 8
  24053592.549    24053595.651    13929685.237 9   9301811.754 9
  21288535.575    21288537.761   -16805045.386 9 -14726070.507 9
  21104425.387    21104428.227   -55186923.677 9  39295160.435 9
 88  3 21  6  7 59.0800000  0  4G 6G 8G11G13
  21643802.681    21643805.956    -5179991.662 8  -2818961.859 9
  24072476.171    24072478.804    14028917.855 9   9379135.855 8
  21297782.718    21297784.746   -16756449.154 9 -14688203.318 8
  21098067.597    21098070.010   -55220331.830 9  39269128.110 8
 88  3 21  6  8 29.0800000  0  4G 6G 8G11G13
  21660381.667    21660383.111    -5092871.303 9  -2751075.904 8
  24091352.628    24091354.929    14128114.841 9   9456432.192 8
  21307078.046    21307080.459   -16707602.900 9 -14650141.299 8
  21091790.469    21091794.302   -55253316.483 9  39243425.801 8
 88  3 21  6  8 59.0800000  0  4G 6G 8G11G13
  21677047.581    21677052.937    -5005282.466 9  -2682824.868 8
  24110222.171    24110224.622    14227274.469 9   9533699.415 9
  21316420.971    21316423.216   -16658508.923 9 -14611886.271 8
  21085594.838    21085598.058   -55285878.637 9  39218052.711 8
 88  3 21  6  9 29.0800000  0  4G 6G 8G11G13
  21693805.503    21693808.022    -4917227.377 8  -2614210.541 8
  24129083.788    24129087.974    14326394.617 9   9610935.887 9
  21325808.782    21325811.595   -16609169.489 8 -14573439.954 9
  21079477.710    21079480.756   -55318019.098 9  39193008.199 7
 88  3 21  6  9 59.0800000  0  4G 6G 8G11G13
  21710650.072    21710653.027    -4828707.800 8  -2545234.261 9
  24147938.142    24147942.041    14425474.315 9   9688140.855 8
  21335245.004    21335247.287   -16559586.274 9 -14534803.679 9
  21073442.797    21073445.380   -55349738.175 9  39168292.056 8
 88  3 21  6 10 29.0800000  0  4G 6G 8G11G13
  21727582.689    21727585.055    -4739726.344 9  -2475898.066 8
  24166784.732    24166787.305    14524510.802 9   9765312.132 8
  21344725.935    21344729.784   -16509761.984 9 -14495979.568 9
  21067487.045    21067489.020   -55381036.244 9  39143903.957 8
 88  3 21  6 10 59.0800000  0  4G 6G 8G11G13
  21744602.534    21744605.657    -4650285.012 9  -2406203.546 9
  24185621.499    24185624.440    14623502.772 7   9842448.747 8
  21354252.774    21354256.447   -16459698.355 9 -14456968.953 8
  21061611.193    21061613.514   -55411913.767 9  39119843.561 8
 88  3 21  6 11 29.0800000  0  4G 6G 8G11G13
  21761709.769    21761713.235    -4560386.151 9  -2336152.493 8
  24204451.339    24204453.065    14722448.442 7   9919549.274 8
  21363825.023    21363828.629   -16409397.470 9 -14417773.460 8
  21055814.512    21055818.091   -55442372.035 9  39096109.859 7
 88  3 21  6 11 59.0800000  0  4G 6G 8G11G13
  21778903.529    21778907.373    -4470031.918 9  -2265746.640 9
  24223270.005    24223272.343    14821345.903 8   9996612.222 7
  21373440.949    21373445.325   -16358861.896 9 -14378395.095 9
  21050098.009    21050101.021   -55472412.177 9  39072701.967 8
 88  3 21  6 12 29.0800000  0  4G 6G 8G11G13
  21796184.245    21796187.446    -4379224.657 9  -2194987.745 8
  24242079.920    24242083.151    14920193.268 7  10073636.113 7
  21383101.630    21383105.225   -16308093.695 9 -14338835.466 8
  21044461.036    21044463.727   -55502034.197 9  39049619.884 7
 88  3 21  6 12 59.0800000  0  4G 6G 8G11G13
  21813549.951    21813552.934    -4287966.771 9  -2123877.745 8
  24260879.550    24260883.093    15018988.738 7  10150619.561 8
  21392806.957    21392810.658   -16257095.275 9 -14299096.444 9
  21038902.361    21038907.080   -55531239.084 9  39026862.846 9
 88  3 21  6 13 29.0800000  0  4G 6G 8G11G13
  21831001.155    21831004.723    -4196260.358 9  -2052418.227 9
  24279669.944    24279673.330    15117730.758 7  10227561.375 9
  21402555.438    21402558.347   -16205868.427 9 -14259179.436 9
  21033424.123    21033427.710   -55560028.121 9  39004429.836 8
 88  3 21  6 13 59.0800000  0  4G 6G 8G11G13
  21848536.879    21848539.745    -4104108.216 9  -1980611.383 8
  24298448.802    24298452.076    15216417.120 8  10304459.809 9
  21412346.192    21412350.305   -16154415.645 9 -14219086.358 9
  21028025.325    21028028.819   -55588401.875 9  38982320.425 9
 88  3 21  6 14 29.0800000  0  4G 6G 8G11G13
  21866157.114    21866160.171    -4011512.273 9  -1908458.717 9
  24317218.682    24317220.775    15315046.485 9  10381313.855 9
  21422179.878    21422181.982   -16102738.979 9 -14178818.835 8
  21022705.085    21022708.085   -55616361.038 9  38960534.079 8
 88  3 21  6 14 59.0800000  0  4G 6G 8G11G13
  21883861.620    21883864.713    -3918474.512 9  -1835961.771 9
  24335975.697    24335979.830    15413617.687 9  10458122.553 9
  21432055.167    21432059.300   -16050840.288 9 -14138378.293 8
  21017463.244    21017467.610   -55643906.445 9  38939070.136 9
 88  3 21  6 15 29.0800000  0  4G 6G 8G11G13
  21901650.471    21901653.071    -3824997.773 9  -1763122.784 8
  24354721.067    24354724.223    15512128.632 9  10534884.315 9
  21441973.959    21441976.047   -15998721.839 9 -14097766.533 9
  21012300.486    21012303.546   -55671039.106 9  38917927.816 8
 88  3 21  6 15 59.0800000  0  4G 6G 8G11G13
  21919521.617    21919523.392    -3731085.107 9  -1689944.103 8
  24373455.324    24373459.029    15610576.543 9  10611596.956 9
  21451932.901    21451935.881   -15946386.385 9 -14056985.659 9
  21007216.420    21007219.019   -55697760.303 9  38897106.117 8
 88  3 21  6 16 29.0800000  0  4G 6G 8G11G13
  21937474.960    21937477.354    -3636738.210 9  -1616427.036 8
  24392177.682    24392180.716    15708960.571 9  10688259.820 9
  21461933.575    21461936.232   -15893835.933 9 -14016037.269 8
  21002209.088    21002212.646   -55724070.620 9  38876604.577 8
 88  3 21  6 16 59.0800000  0  4G 6G 8G11G13
  21955510.290    21955513.060    -3541958.790 9  -1542572.976 8
  24410887.318    24410890.684    15807279.835 9  10764872.219 8
  21471974.189    21471977.924   -15841071.510 9 -13974922.134 9
  20997280.994    20997283.387   -55749969.624 9  38856423.559 7
 88  3 21  6 17 29.0800000  0  4G 6G 8G11G13
  21973627.563    21973631.687    -3446749.074 9  -1468383.610 8
  24429584.952    24429586.969    15905533.141 9  10841433.220 9
  21482055.331    21482059.061   -15788094.981 9 -13933641.718 9
  20992430.229    20992432.948   -55775458.147 9  38836562.388 8
 88  3 21  6 17 59.0800000  0  4G 6G 8G11G13
  21991827.945    21991829.105    -3351112.102 9  -1393861.304 9
  24448268.017    24448270.622    16003717.949 9  10917940.861 9
  21492176.232    21492179.622   -15734909.056 9 -13892198.146 9
  20987657.852    20987661.416   -55800538.299 9  38817019.427 7
 88  3 21  6 18 29.0800000  0  4G 6G 8G11G13
  22010107.049    22010110.730    -3255050.202 9  -1319007.897 8
  24466938.006    24466941.447    16101833.144 9  10994394.254 9
  21502336.275    21502338.722   -15681515.991 8 -13850593.159 9
  20982962.964    20982965.987   -55825210.824 9  38797794.089 8
 88  3 21  6 18 59.0800000  0  4G 6G 8G11G13
  22028467.437    22028471.027    -3158566.015 9  -1243825.416 8
  24485596.087    24485598.840    16199876.594 9  11070791.741 9
  21512536.273    21512539.001   -15627917.886 9 -13808828.401 9
  20978345.036    20978348.537   -55849476.265 9  38778885.967 8
 88  3 21  6 19 29.0800000  0  4G 6G 8G11G13
  22046907.310    22046910.465    -3061662.876 9  -1168316.473 9
  24504238.698    24504242.134    16297845.920 9  11147131.469 9
  21522773.818    21522776.395   -15574117.857 9 -13766906.299 8
  20973804.264    20973808.243   -55873336.667 9  38760293.456 9
 88  3 21  6 19 59.0800000  0  4G 6G 8G11G13
  22065427.418    22065431.105    -2964342.841 9  -1092482.704 9
  24522866.042    24522869.878    16395739.849 9  11223412.451 8
  21533049.304    21533051.871   -15520117.106 9 -13724827.785 9
  20969340.816    20969342.896   -55896792.839 9  38742015.926 7
 88  3 21  6 20 29.0800000  0  4G 6G 8G11G13
  22084025.282    22084027.624    -2866607.841 9  -1016325.573 9
  24541480.033    24541483.771    16493557.860 8  11299634.262 8
  21543363.141    21543365.845   -15465917.547 9 -13682594.370 9
  20964954.466    20964956.365   -55919844.904 8  38724053.292 8
 88  3 21  6 20 59.0800000  0  4G 6G 8G11G13
  22102702.324    22102705.223    -2768459.442 9   -939846.312 9
  24560080.459    24560083.021    16591299.122 8  11375796.252 9
  21553714.707    21553717.327   -15411520.391 9 -13640206.993 8
  20960643.675    20960646.730   -55942493.212 9  38706405.266 9
 88  3 21  6 21 29.0800000  0  4G 6G 8G11G13
  22121458.610    22121460.277    -2669900.326 9   -863047.011 9
  24578666.315    24578668.533    16688962.033 7  11451897.202 8
  21564104.177    21564106.081   -15356927.723 9 -13597667.248 8
  20956412.067    20956415.621   -55964737.829 9  38689071.801 8
 88  3 21  6 21 59.0800000  0  4G 6G 8G11G13
  22140290.238    22140293.201    -2570933.847 9   -785930.299 8
  24597235.106    24597237.620    16786544.003 7  11527935.061 9
  21574529.635    21574531.246   -15302142.165 9 -13554977.190 9
  20952254.646    20952258.000   -55986581.746 9  38672050.586 8
 88  3 21  6 22 29.0800000  0  4G 6G 8G11G13
  22159200.306    22159203.366    -2471563.297 9   -708498.706 8
  24615789.104    24615791.804    16884042.820 7  11603908.136 7
  21584989.797    21584993.383   -15247166.892 9 -13512139.317 7
  20948173.023    20948175.984   -56008026.635 9  38655340.290 9
 88  3 21  6 22 59.0800000  0  4G 6G 8G11G13
  22178186.601    22178189.340    -2371790.283 9   -630753.536 9
  24634326.322    24634328.696    16981458.377 9  11679816.344 8
  21595486.959    21595490.438   -15192002.820 9 -13469154.331 9
  20944168.338    20944173.437   -56029072.003 8  38638941.312 7
 88  3 21  6 23 29.0800000  0  4G 6G 8G11G13
  22197249.238    22197250.880    -2271617.217 9   -552696.623 9
  24652848.271    24652849.294    17078789.334 8  11755658.646 7
  21606019.995    21606023.444   -15136652.061 8 -13426023.880 9
  20940240.220    20940243.136   -56049718.946 9  38622852.794 8
 88  3 21  6 23 59.0800000  0  4G 6G 8G11G13
  22216385.614    22216388.892    -2171047.250 9   -474330.441 8
  24671352.793    24671355.591    17176033.570 9  11831433.362 8
  21616588.644    21616590.977   -15081117.205 9 -13382749.978 8
  20936386.697    20936389.850   -56069969.162 8  38607073.424 8
 88  3 21  6 24 29.0800000  0  4G 6G 8G11G13
  22235599.143    22235603.156    -2070083.221 9   -395657.190 9
  24689842.712    24689843.660    17273189.435 9  11907139.228 8
  21627191.076    21627193.522   -15025400.585 9 -13339334.430 8
  20932607.715    20932611.917   -56089823.957 9  38591602.165 8
 88  3 21  6 24 59.0800000  0  4G 6G 8G11G13
  22254886.543    22254889.245    -1968726.869 9   -316678.249 8
  24708311.849    24708315.634    17370256.179 9  11982775.654 8
  21637827.759    21637830.902   -14969502.790 8 -13295777.702 9
  20928905.515    20928908.303   -56109283.464 9  38576438.923 8
 88  3 21  6 25 29.0800000  0  4G 6G 8G11G13
  22274247.650    22274251.426    -1866981.288 9   -237395.986 8
  24726766.142    24726768.566    17467232.016 9  12058341.247 8
  21648498.926    21648501.426   -14913426.387 9 -13252081.808 8
  20925277.156    20925280.714   -56128349.882 9  38561581.983 8
 88  3 21  6 25 59.0800000  0  4G 6G 8G11G13
  22293683.566    22293685.868    -1764849.185 9   -157812.565 9
  24745201.223    24745205.025    17564115.727 9  12133835.056 8
  21659203.577    21659205.805   -14857173.756 9 -13208248.596 9
  20921724.099    20921725.517   -56147023.844 9  38547030.866 7
 88  3 21  6 26 29.0800000  0  4G 6G 8G11G13
  22313191.864    22313194.329    -1662333.538 9    -77930.249 9
  24763620.033    24763622.634    17660905.351 9  12209255.521 8
  21669940.886    21669943.773   -14800747.475 9 -13164280.083 8
  20918244.752    20918247.681   -56165306.728 9  38532784.458 8
 88  3 21  6 26 59.0800000  0  4G 6G 8G11G13
  22332771.922    22332775.939    -1559436.311 9      2249.376 9
  24782020.408    24782023.069    17757600.109 9  12284602.076 8
  21680711.995    21680713.497   -14744148.838 9 -13120177.258 8
  20914840.156    20914841.047   -56183199.021 9  38518842.439 8
 88  3 21  6 27 29.0800000  0  4G 6G 8G11G13
  22352424.385    22352428.412    -1456160.061 9     82724.344 8
  24800403.456    24800405.842    17854198.791 9  12359873.764 8
  21691514.200    21691517.176   -14687379.493 9 -13075941.420 8
  20911508.966    20911511.879   -56200701.564 9  38505204.111 8
 88  3 21  6 27 59.0800000  0  4G 6G 8G11G13
  22372149.659    22372151.345    -1352507.758 9    163492.350 8
  24818766.450    24818768.760    17950700.134 9  12435069.608 9
  21702348.636    21702352.061   -14630441.677 9 -13031574.298 9
  20908251.679    20908255.193   -56217816.156 8  38491868.064 7
 88  3 21  6 28 29.0800000  0  4G 6G 8G11G13
  22391944.896    22391947.134    -1248481.914 9    244551.426 8
  24837111.704    24837115.110    18047102.823 9  12510188.575 9
  21713215.611    21713218.087   -14573336.914 9 -12987077.094 9
  20905068.933    20905071.328   -56234543.851 9  38478833.510 8
 88  3 21  6 28 59.0800000  0  4G 6G 8G11G13
  22411811.617    22411813.267    -1144084.949 9    325899.691 9
  24855437.915    24855440.207    18143405.727 9  12585229.802 9
  21724113.873    21724116.661   -14516067.128 8 -12942451.298 8
  20901960.159    20901962.301   -56250884.718 9  38466100.392 7
 88  3 21  6 29 29.0800000  0  4G 6G 8G11G13
  22431746.988    22431750.495    -1039320.130 9    407534.579 8
  24873743.998    24873746.737    18239607.313 9  12660192.061 9
  21735042.151    21735046.540   -14458635.198 8 -12897699.151 9
  20898923.068    20898925.870   -56266841.397 8  38453666.606 8
 88  3 21  6 29 59.0800000  0  4G 6G 8G11G13
  22451752.401    22451755.490     -934190.022 9    489454.137 9
  24892031.502    24892034.162    18335706.160 9  12735074.261 9
  21746002.614    21746005.009   -14401042.962 9 -12852822.104 9
  20895959.225    20895961.582   -56282414.776 9  38441531.515 8
 88  3 21  6 30 29.0800000  0  4G 6G 8G11G13
  22471827.251    22471830.457     -828697.563 9    571656.024 9
  24910297.792    24910301.552    18431701.087 8  12809875.485 9
  21756991.479    21756995.912   -14343292.200 9 -12807821.507 9
  20893068.900    20893071.841   -56297605.726 9  38429694.417 8
 88  3 21  6 30 59.0800000  0  4G 6G 8G11G13
  22491970.327    22491972.711     -722845.408 9    654138.203 8
  24928545.158    24928548.739    18527590.397 8  12884594.425 9
  21768011.133    21768014.928   -14285384.731 9 -12762698.805 9
  20890251.160    20890253.625   -56312415.455 8  38418154.382 8
 88  3 21  6 31 29.0800000  0  3G 6G11G13
  22512180.570    22512184.288     -616636.198 9    736898.597 9
  21779059.950    21779063.183   -14227322.688 9 -12717455.671 9
  20887504.884    20887507.093   -56326845.892 9  38406909.900 8
 88  3 21  6 31 59.0800000  0  3G 6G11G13
  22532459.164    22532463.145     -510072.941 9    819934.888 8
  21790138.440    21790140.607   -14169107.898 9 -12672093.505 8
  20884831.616    20884833.525   -56340898.135 9  38395960.106 8
 88  3 21  6 32 29.0800000  0  3G 6G11G13
  22552804.642    22552807.850     -403157.989 9    903245.208 9
  21801245.345    21801248.106   -14110741.863 9 -12626613.493 9
  20882227.781    20882231.113   -56354572.724 9  38385304.592 7
 88  3 21  6 32 59.0800000  0  3G 6G11G13
  22573216.596    22573219.743     -295893.979 9    986827.534 9
  21812380.176    21812383.486   -14052226.534 9 -12581017.134 9
  20879697.645    20879701.152   -56367871.074 9  38374942.240 8
 88  3 21  6 33 29.0800000  0  3G 6G11G13
  22593693.885    22593697.544     -188284.096 9   1070679.363 8
  21823543.323    21823546.099   -13993564.051 9 -12535306.117 8
  20877238.199    20877241.894   -56380794.641 9  38364871.933 8
 88  3 21  6 33 59.0800000  0  3G 6G11G13
  22614237.022    22614239.822      -80331.061 9   1154798.595 9
  21834734.029    21834736.898   -13934756.545 9 -12489482.088 9
  20874849.800    20874853.381   -56393344.468 9  38355092.852 8
 88  3 21  6 34 29.0800000  0  3G 6G11G13
  22634844.096    22634847.834       27962.389 9   1239183.085 9
  21845952.230    21845954.155   -13875805.509 9 -12443546.223 9
  20872532.539    20872535.115   -56405522.104 9  38345603.796 8
 88  3 21  6 34 59.0800000  0  3G 6G11G13
  22655516.000    22655519.009      136593.554 9   1323830.730 9
  21857196.992    21857199.333   -13816712.902 9 -12397500.052 8
  20870286.128    20870289.299   -56417328.704 9  38336403.851 8
 88  3 21  6 35 29.0800000  0  3G 6G11G13
  22676252.020    22676254.499      245559.177 9   1408738.993 9
  21868467.736    21868471.886   -13757480.784 9 -12351345.148 8
  20868109.904    20868111.750   -56428765.776 9  38327491.866 8
 88  3 21  6 35 59.0800000  0  3G 6G11G13
  22697050.088    22697053.314      354856.290 9   1493905.573 9
  21879766.020    21879768.331   -13698111.425 9 -12305083.313 9
  20866003.723    20866006.474   -56439834.693 9  38318866.738 8
 88  3 21  6 36 29.0800000  0  3G 6G11G13
  22717911.794    22717914.504      464482.526 9   1579328.598 9
  21891090.045    21891090.990   -13638606.075 8 -12258715.515 8
  20863967.019    20863971.363   -56450536.380 9  38310527.773 7
 88  3 21  6 36 59.0800000  0  3G 6G11G13
  22738834.994    22738838.263      574435.094 9   1665005.896 9
  21902438.069    21902440.575   -13578966.646 9 -12212243.232 8
  20861999.539    20862001.933   -56460872.331 9  38302473.797 8
 88  3 21  6 37 29.0800000  0  3G 6G11G13
  22759819.706    22759822.305      684710.804 9   1750934.996 9
  21913812.301    21913814.866   -13519195.384 9 -12165668.211 8
  20860102.178    20860105.226   -56470844.209 9  38294703.494 8
 88  3 21  6 37 59.0800000  0  3G 6G11G13
  22780865.156    22780868.123      795306.984 9   1837113.802 9
  21925210.284    21925213.614   -13459293.741 9 -12118991.616 8
  20858274.326    20858277.062   -56480452.725 9  38287216.353 8
 88  3 21  6 38 29.0800000  0  3G 6G11G13
  22801971.659    22801974.812      906220.943 9   1923540.246 9
  21936634.601    21936637.930   -13399263.491 9 -12072214.806 7
  20856514.445    20856515.738   -56489699.258 9  38280011.265 8
 88  3 21  6 38 59.0800000  0  3G 6G11G13
  22823137.363    22823140.378     1017449.351 9   2010211.729 8
  21948081.862    21948084.699   -13339106.603 8 -12025339.329 7
  20854823.336    20854825.509   -56498586.184 9  38273086.405 8
 88  3 21  6 39 29.0800000  0  3G 6G11G13
  22844361.642    22844365.365     1128989.140 9   2097125.855 8
  21959554.113    21959555.978   -13278825.126 8 -11978366.755 8
  20853200.376    20853201.965   -56507114.713 9  38266440.821 8
 88  3 21  6 39 59.0800000  0  3G 6G11G13
  22865646.461    22865649.994     1240837.611 9   2184280.477 8
  21971048.943    21971051.096   -13218420.885 9 -11931298.516 8
  20851645.763    20851647.381   -56515285.785 9  38260073.748 8
 88  3 21  6 40 29.0800000  0  3G 6G11G13
  22886988.712    22886992.842     1352992.111 9   2271673.595 8
  21982566.076    21982567.216   -13157895.559 9 -11884135.936 8
  20850158.334    20850161.292   -56523100.435 9  38253984.420 9
 88  3 21  6 40 59.0800000  0  3G 6G11G13
  22908390.294    22908392.470     1465448.894 9   2359302.223 9
  21994105.743    21994109.133   -13097250.885 9 -11836880.344 9
  20848739.679    20848741.231   -56530560.413 9  38248171.445 8
 88  3 21  6 41 29.0800000  0  3G 6G11G13
  22929846.330    22929850.154     1578206.079 9   2447164.933 8
  22005668.167    22005673.008   -13036489.026 9 -11789533.453 8
  20847386.390    20847389.333   -56537667.380 9  38242633.553 8
 88  3 21  6 41 59.0800000  0  3G 6G11G13
  22951359.076    22951362.530     1691260.073 9   2535258.935 9
  22017253.118    22017256.070   -12975611.316 9 -11742096.275 9
  20846101.165    20846104.088   -56544422.730 9  38237369.655 8
 88  3 21  6 42 29.0800000  0  3G 6G11G13
  22972929.783    22972932.882     1804608.763 9   2623582.594 8
  22028859.351    22028862.882   -12914618.940 9 -11694569.748 9
  20844881.871    20844884.545   -56550827.856 9  38232378.650 8
 88  3 21  6 42 59.0800000  0  3G 6G11G13
  22994554.003    22994557.832     1918248.289 9   2712132.824 9
  22040486.549    22040490.977   -12853514.652 9 -11646956.037 9
  20843729.649    20843732.444   -56556883.974 8  38227659.602 9
 88  3 21  6 43 29.0800000  0  3G 6G11G13
  23016234.122    23016237.221     2032175.842 9   2800907.501 9
  22052136.088    22052139.424   -12792299.825 9 -11599256.185 9
  20842643.403    20842647.069   -56562592.584 9  38223211.341 8
 88  3 21  6 43 59.0800000  0  3G 6G11G13
  23037967.106    23037971.293     2146388.721 8   2889904.523 9
  22063805.978    22063808.824   -12730975.949 9 -11551471.362 9
  20841622.616    20841626.275   -56567955.172 9  38219032.720 9
 88  3 21  6 44 29.0800000  0  3G 6G11G13
  23059754.506    23059759.061     2260884.111 9   2979121.670 9
  22075495.384    22075498.882   -12669544.850 9 -11503602.977 8
  20840668.113    20840670.599   -56572972.472 9  38215123.142 9
 88  3 21  6 44 59.0800000  0  3G 6G11G13
  23081596.121    23081600.221     2375658.452 8   3068556.196 9
  22087205.504    22087209.492   -12608008.776 9 -11455652.801 8
  20839779.230    20839780.165   -56577646.998 9  38211480.669 9
 88  3 21  6 45 29.0800000  0  3G 6G11G13
  23103490.421    23103493.689     2490709.076 9   3158206.044 8
  22098935.041    22098938.341   -12546369.015 9 -11407621.821 8
  20838953.773    20838956.976   -56581980.140 9  38208104.211 8
 88  3 21  6 45 59.0800000  0  3G 6G11G13
  23125435.271    23125438.761     2606033.266 8   3248069.037 8
  22110684.002    22110687.063   -12484627.070 8 -11359511.226 9
  20838194.335    20838196.844   -56585972.886 9  38204992.985 8
 88  3 21  6 46 29.0800000  0  3G 6G11G13
  23147432.871    23147435.653     2721627.715 9   3338142.650 9
  22122453.276    22122454.848   -12422785.055 9 -11311322.632 9
  20837497.933    20837501.944   -56589627.172 8  38202145.498 8
 88  3 21  6 46 59.0800000  0  3G 6G11G13
  23169479.693    23169483.441     2837489.810 9   3428424.768 8
  22134239.036    22134242.446   -12360844.276 9 -11263057.102 8
  20836867.609    20836870.434   -56592944.135 9  38199560.862 9
 88  3 21  6 47 29.0800000  0  3G 6G11G13
  23191578.084    23191579.324     2953616.486 9   3518913.112 8
  22146044.072    22146048.371   -12298806.375 8 -11214715.874 9
  20836300.113    20836302.869   -56595924.847 9  38197238.235 8
 88  3 21  6 47 59.0800000  0  3G 6G11G13
  23213726.450    23213729.477     3070004.653 9   3609605.168 9
  22157868.668    22157871.064   -12236673.123 9 -11166300.370 8
  20835797.408    20835800.406   -56598571.378 9  38195176.008 8
 88  3 21  6 48 29.0800000  0  3G 6G11G13
  23235923.933    23235927.024     3186651.299 9   3700498.671 9
  22169709.921    22169712.930   -12174446.292 9 -11117811.929 9
  20835355.607    20835359.586   -56600885.254 9  38193372.992 9
 88  3 21  6 48 59.0800000  0  3G 6G11G13
  23258167.994    23258171.722     3303553.027 9   3791590.942 8
  22181568.754    22181572.061   -12112127.566 8 -11069251.891 8
  20834979.041    20834981.662   -56602868.008 9  38191827.996 8
 88  3 21  6 49 29.0800000  0  3G 6G11G13
  23280462.683    23280466.027     3420707.239 9   3882879.932 8
  22193445.506    22193447.869   -12049718.310 9 -11020621.308 9
  20834664.039    20834667.777   -56604521.488 9  38190539.585 7
 88  3 21  6 49 59.0800000  0  3G 6G11G13
  23302803.622    23302807.017     3538110.696 9   3974363.155 9
  22205337.405    22205340.811   -11987220.247 8 -10971921.533 8
  20834412.441    20834415.158   -56605846.797 9  38189506.887 9
 88  3 21  6 50 29.0800000  0  3G 6G11G13
  23325191.474    23325196.222     3655760.006 9   4066037.930 8
  22217246.217    22217250.994   -11924635.403 8 -10923154.129 8
  20834221.373    20834225.607   -56606845.869 9  38188728.391 7
 88  3 21  6 50 59.0800000  0  3G 6G11G13
  23347626.295    23347629.073     3773652.745 9   4157902.387 9
  22229174.024    22229176.194   -11861964.920 9 -10874319.986 9
  20834093.235    20834097.255   -56607519.294 9  38188203.656 8
 88  3 21  6 51 29.0800000  0  3G 6G11G13
  23370106.366    23370108.817     3891786.129 9   4249954.393 8
  22241113.902    22241118.383   -11799210.041 8 -10825420.085 9
  20834026.832    20834030.848   -56607868.628 9  38187931.456 8
 88  3 21  6 51 59.0800000  0  3G 6G11G13
  23392631.803    23392634.892     4010156.808 9   4342191.263 9
  22253072.351    22253075.958   -11736372.867 9 -10776456.048 9
  20834021.516    20834025.120   -56607895.995 8  38187910.133 8
 88  3 21  6 52 29.0800000  0  3G 6G11G13
  23415201.153    23415204.342     4128761.234 9   4434610.271 9
  22265044.446    22265048.320   -11673455.193 9 -10727429.296 9
  20834078.035    20834080.777   -56607603.644 9  38188137.949 9
 88  3 21  6 52 59.0800000  0  3G 6G11G13
  23437814.297    23437818.143     4247597.098 9   4527209.642 8
  22277032.520    22277036.860   -11610457.677 8 -10678340.311 7
  20834194.080    20834197.031   -56606991.563 9  38188614.895 8
 88  3 21  6 53 29.0800000  0  3G 6G11G13
  23460471.064    23460475.299     4366661.343 8   4619986.931 9
  22289035.577    22289038.977   -11547382.307 8 -10629190.680 8
  20834372.253    20834373.824   -56606062.084 9  38189339.167 8
 88  3 21  6 53 59.0800000  0  3G 6G11G13
  23483171.052    23483175.030     4485950.581 8   4712939.553 9
  22301053.753    22301055.951   -11484231.038 8 -10579981.904 8
  20834608.832    20834610.562   -56604817.012 9  38190309.370 8
 88  3 21  6 54 29.0800000  0  3G 6G11G13
  23505913.587    23505917.851     4605461.649 8   4806065.048 9
  22313084.901    22313089.172   -11421004.913 9 -10530714.796 8
  20834904.174    20834906.871   -56603257.637 9  38191524.471 9
 88  3 21  6 54 59.0800000  0  3G 6G11G13
  23528696.553    23528702.044     4725191.491 9   4899361.005 9
  22325130.367    22325132.827   -11357705.648 9 -10481390.686 8
  20835260.554    20835263.611   -56601385.799 9  38192983.054 8
 88  3 21  6 55 29.0800000  0  3G 6G11G13
  23551523.047    23551526.141     4845137.406 9   4992825.330 9
  22337188.947    22337192.540   -11294334.749 9 -10432010.771 9
  20835676.289    20835679.328   -56599202.347 8  38194684.446 8
 88  3 21  6 55 59.0800000  0  3G 6G11G13
  23574387.570    23574390.714     4965296.299 8   5086455.625 8
  22349261.422    22349265.635   -11230893.489 9 -10382576.025 8
  20836151.136    20836153.340   -56596709.422 9  38196626.997 8
 88  3 21  6 56 29.0800000  0  3G 6G11G13
  23597293.967    23597296.862     5085664.630 9   5180249.121 8
  22361347.211    22361350.214   -11167383.819 9 -10333087.964 9
  20836683.788    20836686.684   -56593908.779 9  38198809.331 8
 88  3 21  6 56 59.0800000  0  3G 6G11G13
  23620238.114    23620241.851     5206239.732 9   5274203.745 9
  22373445.292    22373448.342   -11103806.913 9 -10283547.529 8
  20837276.243    20837277.580   -56590801.543 9  38201230.547 8
 88  3 21  6 57 29.0800000  0  3G 6G11G13
  23643222.498    23643225.212     5327018.374 9   5368316.951 9
  22385556.934    22385559.086   -11040164.587 9 -10233956.088 9
  20837924.219    20837928.260   -56587389.829 9  38203889.040 9
 88  3 21  6 57 59.0800000  0  3G 6G11G13
  23666244.089    23666246.145     5447997.273 9   5462586.239 8
  22397679.284    22397682.202   -10976458.433 9 -10184314.937 8
  20838631.740    20838633.956   -56583674.958 9  38206783.757 8
 88  3 21  6 58 29.0800000  0  3G 6G11G13
  23689302.738    23689306.010     5569173.995 9   5557009.649 9
  22409813.819    22409817.030   -10912689.245 9 -10134624.663 9
  20839395.723    20839399.041   -56579658.142 9  38209913.747 9
 88  3 21  6 58 59.0800000  0  3G 6G11G13
  23712399.421    23712402.478     5690544.957 9   5651584.431 8
  22421960.524    22421964.443   -10848858.525 9 -10084886.444 9
  20840217.453    20840220.508   -56575341.678 9  38213277.228 9
 88  3 21  6 59 29.0800000  0  3G 6G11G13
  23735530.126    23735534.471     5812107.443 9   5746308.422 8
  22434118.755    22434122.273   -10784967.858 9 -10035101.520 8
  20841095.435    20841097.828   -56570726.712 9  38216873.324 9
 88  3 21  6 59 59.0800000  0  3G 6G11G13
  23758699.662    23758701.960     5933857.388 9   5841178.518 8
  22446288.029    22446290.863   -10721019.454 9  -9985271.607 8
  20842030.289    20842032.236   -56565815.477 9  38220700.254 8
 88  3 21  7  0 29.0800000  0  3G 6G11G13
  23781902.466    23781906.470     6055792.382 8   5936192.765 9
  22458467.505    22458471.289   -10657013.949 8  -9935397.200 9
  20843020.340    20843024.447   -56560608.809 9  38224757.399 8
 88  3 21  7  0 59.0800000  0  3G 6G11G13
  23805141.144    23805144.704     6177909.707 9   6031349.112 9
  22470658.072    22470661.654   -10592952.391 9  -9885479.104 9
  20844067.112    20844069.877   -56555108.700 9  38229043.211 9
 88  3 21  7  1 29.0800000  0  3G 6G11G13
  23828412.979    23828417.300     6300206.179 8   6126645.064 9
  22482858.899    22482862.096   -10528836.333 9  -9835518.544 8
  20845169.728    20845171.736   -56549316.744 9  38233556.441 8
 88  3 21  7  1 59.0800000  0  3G 6G11G13
  23851718.394    23851722.367     6422678.374 8   6222077.898 9
  22495070.258    22495072.163   -10464667.562 9  -9785516.910 9
  20846326.806    20846330.198   -56543234.663 8  38238295.720 8
 88  3 21  7  2 29.0800000  0  3G 6G11G13
  23875057.153    23875061.864     6545323.421 9   6317645.446 9
  22507290.475    22507293.186   -10400447.072 8  -9735474.976 9
  20847538.944    20847541.597   -56536863.287 9  38243260.422 8
 88  3 21  7  2 59.0800000  0  3G 6G11G13
  23898427.911    23898431.739     6668138.016 9   6413345.110 9
  22519520.361    22519522.966   -10336176.515 9  -9685394.025 8
  20848806.356    20848809.461   -56530205.333 9  38248448.430 8
 88  3 21  7  3 29.0800000  0  3G 6G11G13
  23921830.748    23921835.292     6791119.351 9   6509174.683 9
  22531761.213    22531763.581   -10271857.098 9  -9635275.005 9
  20850127.292    20850131.385   -56523261.890 9  38253858.921 9
 88  3 21  7  3 59.0800000  0  3G 6G11G13
  23945264.946    23945268.769     6914264.400 9   6605131.847 9
  22544008.674    22544012.294   -10207489.607 9  -9585118.521 9
  20851501.985    20851505.710   -56516034.475 9  38259490.682 9
 88  3 21  7  4 29.0800000  0  3G 6G11G13
  23968728.663    23968732.458     7037570.493 8   6701214.516 9
  22556267.075    22556269.524   -10143075.286 9  -9534925.540 9
  20852931.557    20852934.871   -56508524.042 9  38265342.986 8
 88  3 21  7  4 59.0800000  0  3G 6G11G13
  23992223.747    23992227.897     7161034.128 9   6797419.907 9
  22568533.462    22568536.022   -10078616.048 9  -9484697.567 9
  20854415.532    20854416.989   -56500733.081 9  38271413.883 9
 88  3 21  7  5 29.0800000  0  3G 6G11G13
  24015746.824    24015749.996     7284651.582 9   6893745.213 9
  22580807.456    22580810.827   -10014113.544 9  -9434435.876 8
  20855950.470    20855952.268   -56492663.447 9  38277701.905 8
 88  3 21  7  5 59.0800000  0  3G 6G11G13
  24039298.773    24039302.509     7408419.681 9   6990187.892 8
  22593089.365    22593092.869    -9949569.275 9  -9384141.640 8
  20857539.235    20857541.311   -56484316.791 9  38284205.792 8
 88  3 21  7  6 29.0800000  0  3G 9G11G13
                  21048757.315   -97515085.753 9
  22605379.870    22605383.252    -9884983.678 9  -9333815.199 8
  20859179.455    20859181.383   -56475693.858 9  38290924.955 8
 88  3 21  7  6 59.0800000  0  4G 3G 9G11G13
  23303752.475    23303755.950   -97695591.881 9 123954405.393 9
  21063564.665    21063568.105   -97437411.314 9 123951350.738 8
  22617677.056    22617680.133    -9820358.249 9  -9283457.727 9
  20860871.550    20860875.771   -56466797.320 9  38297857.323 9
 88  3 21  7  7 29.0800000  0  4G 3G 9G11G13
  23292228.064    23292231.649   -97756152.718 8 123907214.641 8
  21078448.827    21078451.382   -97359197.405 9 124012296.631 8
  22629982.609    22629985.723    -9755694.212 9  -9233070.168 8
  20862615.838    20862620.913   -56457628.332 9  38305001.996 7
 88  3 21  7  7 59.0800000  0  4G 3G 9G11G13
  23280744.895    23280749.013   -97816495.040 8 123860194.669 8
  21093434.277    21093436.778   -97280447.387 9 124073660.273 8
  22642295.664    22642298.392    -9690993.029 8  -9182653.663 8
  20864413.855    20864416.042   -56448188.482 9  38312357.735 8
 88  3 21  7  8 29.0800000  0  4G 3G 9G11G13
  23269303.987    23269308.170   -97876619.602 9 123813344.389 9
  21108521.033    21108523.042   -97201164.190 9 124135439.355 9
  22654614.920    22654617.013    -9626256.020 9  -9132209.259 9
  20866262.202    20866263.356   -56438479.404 9  38319923.256 7
 88  3 21  7  8 59.0800000  0  4G 3G 9G11G13
  23257903.990    23257906.770   -97936526.942 8 123766663.371 8
  21123709.372    21123711.040   -97121350.166 9 124197632.076 8
  22666940.743    22666943.181    -9561484.176 9  -9081737.687 9
  20868159.933    20868162.191   -56428503.295 9  38327696.846 8
 88  3 21  7  9 29.0800000  0  4G 3G 9G11G13
  23246543.767    23246548.045   -97996217.112 9 123720151.561 8
  21138997.585    21139000.396   -97041007.851 9 124260236.457 8
  22679272.510    22679275.644    -9496678.716 9  -9031239.928 9
  20870108.359    20870111.128   -56418260.995 9  38335677.873 7
 88  3 21  7  9 59.0800000  0  4G 3G 9G11G13
  23235227.926    23235231.776   -98055689.509 8 123673809.461 8
  21154386.879    21154388.943   -96960139.337 9 124323250.855 8
  22691610.163    22691612.924    -9431840.370 9  -8980716.549 9
  20872107.886    20872110.191   -56407753.574 9  38343865.480 8
 88  3 21  7 10 29.0800000  0  4G 3G 9G11G13
  23223952.034    23223954.095   -98114945.517 9 123627635.954 9
  21169875.240    21169877.213   -96878748.088 9 124386672.594 8
  22703954.445    22703957.531    -9366970.709 9  -8930168.776 9
  20874157.614    20874160.039   -56396983.749 8  38352257.548 8
 88  3 21  7 10 59.0800000  0  4G 3G 9G11G13
  23212717.106    23212719.898   -98173985.707 9 123581630.638 7
  21185461.898    21185463.698   -96796836.676 9 124450499.654 8
  22716304.427    22716307.595    -9302071.254 9  -8879597.786 9
  20876255.623    20876259.431   -56385953.377 9  38360852.644 8
 88  3 21  7 11 29.0800000  0  4G 3G 9G11G13
  23201523.301    23201525.903   -98232809.572 9 123535793.871 8
  21201148.360    21201150.082   -96714407.507 9 124514730.161 7
  22728659.499    22728663.153    -9237142.993 9  -8829004.340 9
  20878405.901    20878407.587   -56374663.619 9  38369649.871 8
 88  3 21  7 11 59.0800000  0  4G 3G 9G11G13
  23190370.876    23190373.800   -98291417.747 9 123490125.191 9
  21216930.340    21216934.151   -96631463.330 8 124579361.957 8
  22741019.574    22741023.729    -9172187.042 9  -8778389.323 9
  20880602.281    20880605.714   -56363116.145 9  38378647.894 8
 88  3 21  7 12 29.0800000  0  4G 3G 9G11G13
  23179258.381    23179261.527   -98349810.603 9 123444624.277 8
  21232812.929    21232814.864   -96548007.040 8 124644392.797 8
  22753385.860    22753390.172    -9107204.594 9  -8727753.686 9
  20882849.958    20882850.479   -56351312.795 9  38387845.307 7
 88  3 21  7 12 59.0800000  0  4G 3G 9G11G13
  23168188.287    23168189.694   -98407989.605 9 123399290.009 9
  21248790.828    21248793.769   -96464042.245 9 124709819.878 8
  22765756.786    22765760.611    -9042197.540 9  -8677098.853 8
  20885142.572    20885144.532   -56339255.842 9  38397240.342 8
 88  3 21  7 13 29.0800000  0  4G 3G 9G11G13
  23157158.254    23157160.626   -98465953.182 9 123354123.606 8
  21264864.967    21264867.996   -96379569.444 9 124775642.815 8
  22778131.757    22778135.201    -8977165.224 8  -8626424.344 9
  20887485.998    20887488.468   -56326944.447 9  38406833.638 8
 88  3 21  7 13 59.0800000  0  4G 3G 9G11G13
  23146169.848    23146171.131   -98523701.751 9 123309124.718 8
  21281035.291    21281039.849   -96294591.800 9 124841859.139 8
  22790512.037    22790516.067    -8912108.624 9  -8575730.901 9
  20889875.558    20889878.738   -56314381.046 9  38416623.323 7
 88  3 21  7 14 29.0800000  0  4G 3G 9G11G13
  23135220.147    23135223.087   -98581237.288 9 123264291.851 9
  21297301.951    21297304.336   -96209113.700 9 124908465.432 8
  22802896.084    22802898.984    -8847030.694 9  -8525020.834 8
  20892313.723    20892316.941   -56301568.429 9  38426607.180 7
 88  3 21  7 14 59.0800000  0  4G 3G 9G11G13
  23124311.827    23124314.128   -98638560.338 9 123219624.557 8
  21313662.880    21313665.680   -96123137.407 9 124975459.927 7
  22815283.227    22815286.700    -8781932.218 8  -8474294.772 9
  20894800.419    20894801.991   -56288508.250 9  38436783.955 7
 88  3 21  7 15 29.0800000  0  4G 3G 9G11G13
  23113444.367    23113446.819   -98695670.479 9 123175123.172 9
  21330117.214    21330121.108   -96036665.548 9 125042840.569 7
  22827676.028    22827678.079    -8716813.444 9  -8423552.885 8
  20897332.292    20897334.629   -56275201.556 9  38447152.793 7
 88  3 21  7 15 59.0800000  0  4G 3G 9G11G13
  23102616.780    23102619.573   -98752568.222 9 123130787.279 9
  21346667.145    21346669.052   -95949700.939 9 125110605.186 8
  22840071.308    22840074.027    -8651675.852 9  -8372796.331 9
  20899910.538    20899913.726   -56261650.054 9  38457712.411 8
 88  3 21  7 16 29.0800000  0  4G 3G 9G11G13
  23091830.643    23091832.407   -98809253.560 9 123086616.905 8
  21363308.425    21363310.798   -95862246.499 9 125178751.473 8
  22852468.864    22852472.675    -8586520.175 9  -8322025.698 9
  20902535.790    20902538.289   -56247855.472 9  38468461.434 8
 88  3 21  7 16 59.0800000  0  4G 3G 9G11G13
  23081083.595    23081086.500   -98865727.302 9 123042611.413 8
  21380043.877    21380045.784   -95774304.803 9 125247277.453 7
  22864872.267    22864874.595    -8521347.908 9  -8271242.120 9
  20905206.544    20905210.106   -56233819.313 9  38479398.700 7
 88  3 21  7 17 29.0800000  0  4G 3G 9G11G13
  23070377.028    23070379.554   -98921989.376 9 122998770.852 9
  21396870.684    21396872.515   -95685878.452 9 125316181.095 7
  22877276.648    22877279.806    -8456159.401 9  -8220445.901 9
  20907923.291    20907927.104   -56219542.682 9  38490523.359 7
 88  3 21  7 17 59.0800000  0  4G 3G 9G11G13
  23059710.303    23059713.326   -98978041.319 9 122955094.041 9
  21413788.870    21413789.435   -95596971.187 8 125385459.459 8
  22889684.688    22889687.955    -8390956.879 9  -8169638.764 9
  20910684.895    20910687.012   -56205028.554 9  38501833.069 8
 88  3 21  7 18 29.0800000  0  4G 3G 9G11G13
  23049083.638    23049087.068   -99033882.629 9 122911581.353 8
  21430798.675    21430800.600   -95507585.577 9 125455110.570 7
  22902094.120    22902097.373    -8325740.459 8  -8118820.782 9
  20913491.661    20913494.561   -56190277.305 9  38513327.558 8
 88  3 21  7 18 59.0800000  0  4G 3G 9G11G13
  23038497.741    23038499.513   -99089514.352 9 122868231.978 8
  21447898.571    21447900.743   -95417725.043 9 125525131.746 8
  22914506.787    22914510.130    -8260511.626 9  -8067993.140 9
  20916344.144    20916346.647   -56175291.325 9  38525004.927 8
 88  3 21  7 19 29.0800000  0  4G 3G 9G11G13
  23027951.656    23027954.177   -99144936.545 9 122825045.881 9
  21465087.932    21465090.663   -95327391.958 9 125595521.137 8
  22926922.047    22926925.176    -8195270.882 9  -8017156.205 8
  20919239.564    20919243.775   -56160072.376 9  38536863.851 8
 88  3 21  7 19 59.0800000  0  4G 3G 9G11G13
  23017445.091    23017447.548   -99200149.874 9 122782022.522 9
  21482368.633    21482369.472   -95236589.310 9 125666276.429 8
  22939338.262    22939341.644    -8130019.548 9  -7966311.016 8
  20922180.813    20922182.023   -56144621.690 9  38548903.350 8
 88  3 21  7 20 29.0800000  0  4G 3G 9G11G13
  23006976.527    23006980.729   -99255154.252 8 122739161.992 9
  21499734.823    21499738.197   -95145319.451 9 125737395.770 8
  22951757.453    22951761.269    -8064757.923 9  -7915457.806 8
  20925165.138    20925167.321   -56128939.983 9  38561122.861 8
 88  3 21  7 20 59.0800000  0  4G 3G 9G11G13
  22996550.308    22996552.981   -99309951.127 9 122696463.133 8
  21517192.717    21517194.039   -95053586.689 9 125808875.815 7
  22964178.371    22964181.905    -7999488.144 9  -7864598.232 9
  20928191.651    20928194.748   -56113030.300 9  38573520.020 8
 88  3 21  7 21 29.0800000  0  4G 3G 9G11G13
  22986162.430    22986165.259   -99364540.417 9 122653926.051 9
  21534736.525    21534738.274   -94961392.770 9 125880715.230 8
  22976599.852    22976604.202    -7934210.088 9  -7813732.229 8
  20931264.035    20931265.647   -56096893.055 9  38586094.514 8
 88  3 21  7 21 59.0800000  0  4G 3G 9G11G13
  22975813.090    22975815.640   -99418922.547 9 122611550.387 8
  21552367.051    21552368.974   -94868741.213 9 125952911.220 7
  22989023.650    22989027.052    -7868925.108 9  -7762860.811 8
  20934376.804    20934378.531   -56080530.640 9  38598844.452 8
 88  3 21  7 22 29.0800000  0  4G 3G 9G11G13
  22965504.052    22965507.884   -99473097.659 9 122569336.037 8
  21570084.920    21570087.430   -94775634.610 9 126025461.814 8
  23001448.504    23001450.845    -7803633.578 8  -7711984.296 9
  20937532.093    20937534.736   -56063943.615 9  38611769.403 8
 88  3 21  7 22 59.0800000  0  4G 3G 9G11G13
  22955233.898    22955236.512   -99527067.039 9 122527281.997 8
  21587886.745    21587890.257   -94682076.905 9 126098363.891 8
  23013873.709    23013876.299    -7738337.308 9  -7661104.097 8
  20940731.490    20940733.475   -56047135.109 9  38624866.930 8
 88  3 21  7 23 29.0800000  0  4G 3G 9G11G13
  22945003.260    22945004.767   -99580830.822 9 122485388.168 8
  21605777.241    21605780.341   -94588070.579 9 126171615.547 8
  23026300.174    23026302.659    -7673036.684 9  -7610220.500 8
  20943972.236    20943975.165   -56030105.740 9  38638136.565 8
 88  3 21  7 23 59.0800000  0  4G 3G 9G11G13
  22934810.927    22934815.000   -99634389.275 9 122443654.318 8
  21623750.421    21623753.890   -94493618.312 9 126245214.686 8
  23038726.005    23038730.192    -7607732.689 9  -7559334.276 9
  20947254.912    20947255.953   -56012856.642 9  38651577.424 8
 88  3 21  7 24 29.0800000  0  4G 3G 9G11G13
  22924658.300    22924661.081   -99687743.338 9 122402079.757 7
  21641808.145    21641810.426   -94398724.291 9 126319158.067 6
  23051153.781    23051156.505    -7542426.455 9  -7508446.306 5
  20950578.641    20950581.041   -55995390.309 9  38665187.551 8
 88  3 21  7 24 59.0800000  0  4G 3G 9G11G13
  22914544.007    22914547.222   -99740893.310 8 122360664.212 9
  21659949.526    21659951.748   -94303390.573 9 126393444.070 8
  23063581.663    23063585.021    -7477118.333 9  -7457556.850 8
  20953942.441    20953944.759   -55977707.461 9  38678966.404 8
 88  3 21  7 25 29.0800000  0  4G 3G 9G11G13
  22904467.927    22904472.022   -99793839.967 8 122319407.109 8
  21678173.542    21678176.798   -94207620.697 9 126468069.919 8
  23076010.708    23076013.365    -7411809.336 9  -7406666.717 9
  20957348.364    20957351.408   -55959810.371 9  38692912.202 8
 88  3 21  7 25 59.0800000  0  4G 3G 9G11G13
  22894432.244    22894434.238   -99846583.766 9 122278308.062 8
  21696480.263    21696482.707   -94111418.109 9 126543032.969 9
  23088437.698    23088440.679    -7346500.753 9  -7355776.891 9
  20960794.750    20960797.583   -55941700.737 9  38707023.606 7
 88  3 21  7 26 29.0800000  0  4G 3G 9G11G13
  22884434.006    22884436.343   -99899125.438 9 122237366.524 9
  21714868.906    21714872.142   -94014785.669 9 126618330.942 9
  23100864.611    23100868.928    -7281193.317 9  -7304887.978 8
  20964281.114    20964284.046   -55923379.872 9  38721299.624 8
 88  3 21  7 26 59.0800000  0  4G 3G 9G11G13
  22874473.950    22874475.366   -99951465.476 9 122196582.097 8
  21733338.902    21733341.790   -93917726.487 9 126693961.444 8
  23113292.898    23113296.519    -7215887.771 8  -7254000.545 9
  20967808.216    20967809.118   -55904849.620 9  38735738.771 8
 88  3 21  7 27 29.0800000  0  4G 3G 9G11G13
  22864552.810    22864554.830  -100003604.204 9 122155954.534 8
  21751888.862    21751891.478   -93820243.540 9 126769922.159 7
  23125719.974    23125722.669    -7150584.912 9  -7203115.199 9
  20971373.702    20971375.942   -55886110.927 9  38750340.353 7
 88  3 21  7 27 59.0800000  0  4G 3G 9G11G13
  22854668.754    22854671.821  -100055542.362 9 122115483.263 9
  21770519.785    21770522.999   -93722340.359 9 126846210.337 7
  23138144.860    23138148.304    -7085285.667 9  -7152232.666 9
  20974978.746    20974980.427   -55867165.488 9  38765103.032 8
 88  3 21  7 28 29.0800000  0  4G 3G 9G11G13
  22844823.407    22844827.135  -100107280.281 9 122075168.027 8
  21789229.665    21789233.014   -93624019.813 9 126922823.722 7
  23150570.324    23150574.512    -7019990.259 9  -7101353.129 9
  20978622.725    20978625.303   -55848015.095 9  38780025.416 7
 88  3 21  7 28 59.0800000  0  4G 3G 9G11G13
  22835016.569    22835017.590  -100158818.796 9 122035008.163 8
  21808017.457    21808020.864   -93525285.324 9 126999759.659 8
  23162994.714    23162997.848    -6954700.111 9  -7050477.692 9
  20982305.141    20982308.195   -55828661.529 9  38795106.103 7
 88  3 21  7 29 29.0800000  0  4G 3G 9G11G13
  22825246.104    22825249.272  -100210159.175 9 121995002.687 8
  21826885.475    21826887.416   -93426140.502 9 127077015.340 8
  23175417.821    23175421.479    -6889416.366 9  -6999607.238 8
  20986026.795    20986029.764   -55809106.527 9  38810343.769 8
 88  3 21  7 29 59.0800000  0  4G 3G 9G11G13
  22815513.931    22815516.791  -100261300.790 9 121955152.087 8
  21845828.258    21845831.319   -93326587.506 9 127154589.083 8
  23187840.542    23187844.290    -6824138.955 8  -6948741.706 8
  20989785.522    20989788.676   -55789350.697 9  38825737.931 8
 88  3 21  7 30 29.0800000  0  4G 3G 9G11G13
  22805818.767    22805822.099  -100312244.544 9 121915455.676 8
  21864850.005    21864853.256   -93226630.258 9 127232477.822 7
  23200260.687    23200262.943    -6758869.000 9  -6897881.995 9
  20993583.094    20993586.395   -55769396.371 9  38841286.760 8
 88  3 21  7 30 59.0800000  0  4G 3G 9G11G13
  22796162.924    22796165.571  -100362990.677 9 121875913.244 8
  21883947.957    21883951.058   -93126270.849 9 127310679.950 9
  23212678.462    23212682.416    -6693606.366 9  -6847027.989 9
  20997417.942    20997420.545   -55749244.055 9  38856989.864 9
 88  3 21  7 31 29.0800000  0  4G 3G 9G11G13
  22786543.519    22786547.066  -100413540.016 9 121836524.162 8
  21903121.849    21903123.973   -93025513.387 9 127389192.229 9
  23225095.826    23225100.066    -6628352.406 9  -6796180.757 8
  21001290.445    21001293.414   -55728896.107 9  38872845.413 8
 88  3 21  7 31 59.0800000  0  4G 3G 9G11G13
  22776961.891    22776963.558  -100463893.402 9 121797287.773 9
  21922370.796    21922373.807   -92924361.582 9 127468011.804 8
  23237512.899    23237514.578    -6563107.894 8  -6745340.873 9
  21005199.803    21005202.376   -55708354.304 9  38888852.014 8
 88  3 21  7 32 29.0800000  0  4G 3G 9G11G13
  22767417.035    22767419.315  -100514051.987 9 121758203.185 8
  21941694.117    21941695.984   -92822818.347 9 127547136.365 8
  23249925.412    23249930.006    -6497873.860 9  -6694509.165 8
  21009144.818    21009147.621   -55687619.825 9  38905008.763 9
 88  3 21  7 32 59.0800000  0  4G 3G 9G11G13
  22757908.992    22757912.793  -100564016.112 9 121719270.111 8
  21961089.402    21961092.593   -92720887.197 9 127626563.206 8
  23262336.457    23262340.053    -6432651.056 8  -6643686.207 8
  21013126.842    21013128.703   -55666694.497 9  38921314.202 8
 88  3 21  7 33 29.0800000  0  4G 3G 9G11G13
  22748439.152    22748440.561  -100613785.983 9 121680488.409 8
  21980559.994    21980563.765   -92618570.907 9 127706290.175 8
  23274746.099    23274749.567    -6367440.034 9  -6592872.426 9
  21017144.454    21017147.235   -55645579.511 9  38937767.432 8
 88  3 21  7 33 59.0800000  0  4G 3G 9G11G13
  22739003.563    22739006.069  -100663362.467 9 121641857.398 8
  22000103.081    22000106.594   -92515873.016 9 127786314.477 7
  23287153.414    23287157.125    -6302241.504 9  -6542068.394 8
  21021198.451    21021200.655   -55624276.357 9  38954367.293 7
 88  3 21  7 34 29.0800000  0  4G 3G 9G11G13
  22729606.619    22729608.701  -100712745.610 9 121603377.053 8
  22019718.733    22019720.491   -92412796.357 9 127866633.946 8
  23299558.396    23299561.372    -6237055.535 9  -6491274.134 9
  21025287.774    21025289.662   -55602785.898 9  38971113.096 8
 88  3 21  7 34 59.0800000  0  4G 3G 9G11G13
  22720246.289    22720248.204  -100761936.025 9 121565046.881 8
  22039404.203    22039407.323   -92309344.154 9 127947246.019 9
  23311960.545    23311963.464    -6171883.028 9  -6440490.363 9
  21029412.786    21029415.747   -55581110.254 9  38988003.197 8
 88  3 21  7 35 29.0800000  0  4G 3G 9G11G13
  22710921.911    22710924.587  -100810935.276 9 121526865.660 8
  22059161.830    22059163.714   -92205520.502 9 128028147.538 8
  23324359.226    23324363.228    -6106725.049 8  -6389717.924 8
  21033573.115    21033576.319   -55559251.018 9  39005036.378 8
 88  3 21  7 35 59.0800000  0  4G 3G 9G11G13
  22701633.993    22701637.027  -100859743.737 9 121488833.110 9
  22078988.377    22078990.985   -92101328.210 9 128109336.324 8
  23336755.756    23336759.357    -6041581.624 8  -6338956.824 8
  21037766.913    21037770.859   -55537209.194 9  39022211.834 8
 88  3 21  7 36 29.0800000  0  3G 3G 9G13
  22692382.313    22692384.272  -100908362.085 9 121450948.702 8
  22098884.459    22098888.204   -91996770.861 9 128190809.544 9
  21041995.686    21041999.631   -55514986.998 9  39039527.828 8
 88  3 21  7 36 59.0800000  0  4G 3G 9G12G13
  22683166.611    22683169.171  -100956790.217 9 121413212.516 8
  22118850.892    22118853.317   -91891851.451 9 128272564.903 8
  20822822.827    20822825.915  -108357954.318 9 137650781.078 7
  21046258.969    21046262.831   -55492585.308 9  39056983.686 8
 88  3 21  7 37 29.0800000  0  4G 3G 9G12G13
  22673987.145    22673989.051  -101005028.965 9 121375623.899 8
  22138884.620    22138886.084   -91786572.981 9 128354600.052 7
  20825590.984    20825594.201  -108343410.479 9 137662113.925 8
  21050555.561    21050558.450   -55470005.226 9  39074578.554 8
 88  3 21  7 37 59.0800000  0  4G 3G 9G12G13
  22664843.085    22664845.554  -101053079.564 9 121338181.888 9
  22158986.246    22158988.149   -91680939.420 9 128436911.899 7
  20828481.505    20828484.634  -108328218.811 9 137673951.585 7
  21054885.572    21054888.526   -55447249.207 9  39092310.518 8
 88  3 21  7 38 29.0800000  0  4G 3G 9G12G13
  22655735.436    22655738.640  -101100942.128 9 121300886.389 8
  22179153.746    22179156.670   -91574953.871 9 128519498.028 8
  20831495.466    20831498.968  -108312379.445 9 137686293.938 8
  21059249.085    21059252.724   -55424318.234 9  39110178.808 8
 88  3 21  7 38 59.0800000  0  4G 3G 9G12G13
  22646662.588    22646665.305  -101148617.219 9 121263736.993 9
  22199389.067    22199390.282   -91468619.972 9 128602355.620 8
  20834633.188    20834636.735  -108295893.081 9 137699140.439 8
  21063646.275    21063648.630   -55401214.176 9  39128181.985 7
 88  3 21  7 39 29.0800000  0  4G 3G 9G12G13
  22637626.400    22637628.612  -101196105.514 9 121226733.146 8
  22219688.877    22219692.118   -91361940.669 9 128685482.317 8
  20837893.477    20837895.682  -108278759.933 9 137712490.942 9
  21068075.374    21068077.521   -55377937.626 9  39146319.545 8
 88  3 21  7 39 59.0800000  0  4G 3G 9G12G13
  22628624.969    22628627.156  -101243408.361 9 121189873.807 9
  22240054.559    22240057.926   -91254919.331 9 128768875.557 8
  20841277.015    20841279.539  -108260980.510 9 137726345.021 9
  21072537.796    21072538.836   -55354490.228 9  39164590.257 7
 88  3 21  7 40 29.0800000  0  4G 3G 9G12G13
  22619658.538    22619661.541  -101290526.099 9 121153158.712 9
  22260484.823    22260487.164   -91147559.639 9 128852532.437 8
  20844782.562    20844785.801  -108242555.160 9 137740702.413 7
  21077031.015    21077033.332   -55330873.736 9  39182992.720 8
 88  3 21  7 40 59.0800000  0  4G 3G 9G12G13
  22610727.803    22610730.230  -101337459.242 9 121116587.443 8
  22280978.142    22280981.619   -91039864.872 9 128936450.424 8
  20848411.947    20848415.316  -108223484.260 9 137755562.851 7
  21081556.552    21081558.101   -55307089.438 9  39201525.922 7
 88  3 21  7 41 29.0800000  0  4G 3G 9G12G13
  22601830.434    22601835.321  -101384208.705 9 121080159.319 8
  22301535.701    22301537.228   -90931838.285 9 129020626.963 8
  20852163.552    20852166.940  -108203768.920 9 137770925.435 8
  21086114.576    21086117.213   -55283138.767 9  39220188.782 7
 88  3 21  7 41 59.0800000  0  4G 3G 9G12G13
  22592969.767    22592972.618  -101430774.864 9 121043874.009 9
  22322153.810    22322156.161   -90823483.125 8 129105059.530 8
  20856038.512    20856040.715  -108183409.535 9 137786789.884 8
  21090705.027    21090706.771   -55259023.066 9  39238980.236 7
 88  3 21  7 42 29.0800000  0  4G 3G 9G12G13
  22584142.736    22584145.792  -101477158.624 8 121007730.855 8
  22342834.477    22342838.177   -90714803.223 8 129189745.162 8
  20860034.335    20860037.661  -108162406.906 9 137803155.555 9
  21095323.878    21095327.213   -55234743.552 9  39257899.334 8
 88  3 21  7 42 59.0800000  0  4G 3G 9G12G13
  22575351.297    22575353.557  -101523360.946 9 120971729.063 8
  22363577.248    22363580.210   -90605801.838 8 129274681.276 8
  20864152.573    20864156.716  -108140762.091 9 137820021.637 8
  21099976.412    21099978.873   -55210302.289 9  39276944.471 8
 88  3 21  7 43 29.0800000  0  4G 3G 9G12G13
  22566594.424    22566596.102  -101569382.280 9 120935868.300 9
  22384379.750    22384383.176   -90496482.518 9 129359865.146 8
  20868394.518    20868397.109  -108118475.256 9 137837387.975 9
  21104657.436    21104660.670   -55185700.287 9  39296114.866 8
 88  3 21  7 43 59.0800000  0  4G 3G 9G12G13
  22557871.388    22557873.858  -101615222.638 8 120900148.560 8
  22405242.477    22405246.469   -90386847.970 8 129445294.636 8
  20872756.988    20872760.719  -108095546.140 9 137855254.806 8
  21109369.413    21109373.146   -55160938.512 9  39315409.747 8
 88  3 21  7 44 29.0800000  0  4G 3G 9G12G13
  22549182.046    22549184.161  -101660883.416 9 120864568.740 8
  22426164.622    22426168.712   -90276902.159 9 129530966.688 8
  20877242.590    20877246.374  -108071976.246 9 137873620.950 8
  21114111.669    21114114.899   -55136018.662 9  39334827.818 9
 88  3 21  7 44 59.0800000  0  4G 3G 9G12G13
  22540526.305    22540529.008  -101706365.162 9 120829128.436 7
  22447145.021    22447149.202   -90166648.272 9 129616878.784 9
  20881849.277    20881853.060  -108047766.808 9 137892485.438 7
  21118882.765    21118887.275   -55110941.984 9  39354368.082 8
 88  3 21  7 45 29.0800000  0  4G 3G 9G12G13
  22531905.651    22531909.408  -101751668.319 9 120793827.289 8
  22468183.900    22468186.899   -90056089.711 9 129703028.309 9
  20886578.283    20886581.640  -108022917.891 9 137911848.225 8
  21123685.285    21123687.121   -55085709.532 9  39374029.736 8
 88  3 21  7 45 59.0800000  0  4G 3G 9G12G13
  22523319.406    22523322.014  -101796794.070 9 120758664.387 8
  22489280.504    22489282.881   -89945230.361 9 129789412.203 9
  20891429.044    20891432.611  -107997430.803 9 137931708.279 8
  21128515.289    21128517.712   -55060323.580 9  39393810.991 8
 88  3 21  7 46 29.0800000  0  4G 3G 9G12G13
  22514765.786    22514768.074  -101841743.124 9 120723639.155 8
  22510432.950    22510436.384   -89834073.204 9 129876028.166 8
  20896400.554    20896401.845  -107971306.121 9 137952065.156 8
  21133375.455    21133378.112   -55034784.704 9  39413711.419 7
 88  3 21  7 46 59.0800000  0  4G 3G 9G12G13
  22506245.091    22506247.207  -101886515.984 9 120688751.212 8
  22531641.555    22531644.566   -89722621.682 9 129962873.474 9
  20901493.116    20901494.754  -107944544.955 8 137972918.003 8
  21138263.105    21138266.564   -55009094.184 9  39433729.996 8
 88  3 21  7 47 29.0800000  0  4G 3G 9G12G13
  22497759.106    22497761.532  -101931113.751 9 120653999.720 9
  22552905.334    22552907.765   -89610879.559 9 130049945.238 8
  20906706.446    20906707.954  -107917148.212 9 137994266.110 8
  21143180.842    21143181.971   -54983254.381 9  39453864.909 7
 88  3 21  7 47 59.0800000  0  4G 3G 9G12G13
  22489304.863    22489307.900  -101975536.002 9 120619384.986 7
  22574223.293    22574227.549   -89498849.401 9 130137241.445 8
  20912040.183    20912042.436  -107889115.948 9 138016109.418 8
  21148126.202    21148127.834   -54957265.740 9  39474115.796 8
 88  3 21  7 48 29.0800000  0  4G 3G 9G12G13
  22480884.967    22480888.343  -102019784.625 9 120584905.544 8
  22595597.591    22595600.225   -89386535.984 9 130224758.381 8
  20917495.104    20917497.967  -107860450.545 9 138038446.083 9
  21153100.197    21153101.767   -54931130.138 9  39494481.192 7
 88  3 21  7 48 59.0800000  0  4G 3G 9G12G13
  22472498.550    22472500.084  -102063860.022 8 120550561.103 8
  22617022.218    22617025.846   -89273942.139 9 130312493.814 8
  20923070.657    20923073.496  -107831152.830 9 138061275.458 8
  21158101.371    21158103.520   -54904848.421 9  39514960.453 9
 88  3 21  7 49 29.0800000  0  4G 3G 9G12G13
  22464143.446    22464146.053  -102107763.170 9 120516350.862 8
  22638500.561    22638504.847   -89161071.652 9 130400444.829 8
  20928765.575    20928767.589  -107801224.024 9 138084596.603 8
  21163130.854    21163132.371   -54878422.394 9  39535552.150 9
 88  3 21  7 49 59.0800000  0  4G 3G 9G12G13
  22455821.987    22455824.132  -102151494.730 9 120482274.330 8
  22660031.395    22660034.964   -89047927.780 9 130488608.857 8
  20934580.673    20934583.669  -107770664.955 9 138108408.841 8
  21168187.166    21168187.463   -54851853.025 9  39556255.544 8
 88  3 21  7 50 29.0800000  0  4G 3G 9G12G13
  22447532.095    22447534.998  -102195054.157 9 120448331.934 7
  22681613.686    22681617.323   -88934513.021 9 130576983.983 9
  20940516.037    20940520.238  -107739475.672 9 138132712.158 7
  21173270.566    21173272.325   -54825140.950 9  39577070.137 8
 88  3 21  7 50 59.0800000  0  4G 3G 9G12G13
  22439275.910    22439277.774  -102238443.004 9 120414522.459 8
  22703247.180    22703250.144   -88820831.835 9 130665566.720 8
  20946570.769    20946573.436  -107707658.081 9 138157505.090 7
  21178379.635    21178382.368   -54798288.276 9  39597994.289 9
 88  3 21  7 51 29.0800000  0  4G 3G 9G12G13
  22431051.688    22431053.613  -102281661.535 9 120380845.679 8
  22724929.475    22724932.945   -88706886.726 9 130754355.083 8
  20952744.716    20952748.366  -107675212.772 9 138182787.131 8
  21183516.806    21183520.083   -54771295.235 9  39619027.828 8
 88  3 21  7 51 59.0800000  0  4G 3G 9G12G13
  22422859.518    22422862.316  -102324710.975 9 120347300.669 7
  22746661.841    22746665.571   -88592682.085 9 130843345.711 8
  20959037.976    20959040.456  -107642141.462 9 138208556.966 8
  21188679.523    21188682.300   -54744163.738 9  39640169.257 9
 88  3 21  7 52 29.0800000  0  4G 3G 9G12G13
  22414700.040    22414701.584  -102367591.920 9 120313886.959 7
  22768443.464    22768446.050   -88478220.797 9 130932536.298 8
  20965451.113    20965453.687  -107608445.049 9 138234813.905 9
  21193868.195    21193871.269   -54716894.871 9  39661417.711 8
 88  3 21  7 52 59.0800000  0  4G 3G 9G12G13
  22406571.551    22406573.314  -102410304.724 9 120280604.261 8
  22790273.104    22790276.809   -88363505.874 9 131021924.542 9
  20971982.012    20971984.708  -107574124.527 9 138261557.154 8
  21199082.984    21199086.260   -54689489.626 9  39682772.450 8
 88  3 21  7 53 29.0800000  0  4G 3G 9G12G13
  22398474.909    22398477.917  -102452850.857 9 120247451.437 9
  22812150.364    22812153.208   -88248541.460 9 131111507.214 8
  20978630.735    20978633.085  -107539182.023 9 138288785.069 8
  21204322.894    21204326.312   -54661949.822 9  39704232.035 8
 88  3 21  7 53 59.0800000  0  4G 3G 9G12G13
  22390410.758    22390413.447  -102495230.455 9 120214428.375 8
  22834074.684    22834076.531   -88133331.035 9 131201281.565 8
  20985398.551    20985400.815  -107503618.044 9 138316497.256 8
  21209589.238    21209592.445   -54634276.687 9  39725795.520 8
 88  3 21  7 54 29.0800000  0  4G 3G 9G12G13
  22382377.644    22382379.017  -102537444.860 9 120181534.046 8
  22856043.334    22856046.308   -88017878.369 9 131291244.685 9
  20992284.487    20992286.782  -107467434.937 9 138344691.876 8
  21214880.892    21214883.605   -54606471.507 9  39747461.891 9
 88  3 21  7 54 59.0800000  0  4G 3G 9G12G13
  22374375.649    22374378.041  -102579494.354 9 120148768.224 9
  22878058.793    22878062.216   -87902186.787 9 131381393.960 8
  20999286.983    20999290.032  -107430634.026 9 138373367.904 8
  21220195.469    21220200.905   -54578535.410 9  39769230.279 8
 88  3 21  7 55 29.0800000  0  4G 3G 9G12G13
  22366405.762    22366407.831  -102621379.585 9 120116130.387 8
  22900119.224    22900121.855   -87786259.412 9 131471726.976 8
  21006408.083    21006410.377  -107393215.800 9 138402524.938 7
  21225536.175    21225539.947   -54550469.314 9  39791099.973 8
 88  3 21  7 55 59.0800000  0  4G 3G 9G12G13
  22358466.226    22358468.242  -102663102.014 9 120083619.421 8
  22922223.828    22922226.331   -87670099.894 9 131562240.866 7
  21013644.986    21013647.246  -107355182.230 9 138432161.478 8
  21230902.480    21230905.899   -54522274.460 9  39813069.985 8
 88  3 21  7 56 29.0800000  0  4G 3G 9G12G13
  22350557.216    22350559.561  -102704661.631 9 120051235.305 9
  22944370.845    22944374.169   -87553711.768 9 131652932.904 8
  21020999.295    21021001.955  -107316534.681 9 138462276.443 8
  21236291.868    21236294.658   -54493952.024 9  39835139.407 8
 88  3 21  7 56 59.0800000  0  4G 3G 9G12G13
  22342679.423    22342681.912  -102746059.489 9 120018977.246 9
  22966561.673    22966564.599   -87437098.217 9 131743800.605 8
  21028470.911    21028472.539  -107277274.484 9 138492868.788 8
  21241705.540    21241708.458   -54465503.372 9  39857307.185 7
 88  3 21  7 57 29.0800000  0  4G 3G 9G12G13
  22334832.777    22334835.380  -102787295.937 9 119986844.971 8
  22988795.003    22988798.103   -87320262.781 9 131834841.165 8
  21036057.480    21036060.348  -107237403.014 9 138523937.441 7
  21247143.262    21247145.864   -54436929.406 9  39879572.615 8
 88  3 21  7 57 59.0800000  0  4G 3G 9G12G13
  22327016.696    22327019.909  -102828371.223 9 119954838.244 9
  23011069.496    23011073.052   -87203208.822 8 131926052.049 8
  21043760.683    21043763.668  -107196921.533 9 138555481.441 7
  21252604.867    21252607.488   -54408231.350 9  39901934.741 8
 88  3 21  7 58 29.0800000  0  4G 3G 9G12G13
  22319230.063    22319232.465  -102869287.009 9 119922955.830 9
  23033384.543    23033389.590   -87085939.861 9 132017430.437 8
  21051579.560    21051582.533  -107155832.187 9 138587499.105 8
  21258089.367    21258091.544   -54379410.951 9  39924392.189 8
 88  3 21  7 58 59.0800000  0  4G 3G 9G12G13
  22311473.865    22311476.825  -102910043.697 9 119891197.373 8
  23055741.558    23055744.145   -86968459.386 9 132108973.661 7
  21059514.781    21059517.733  -107114136.039 9 138619989.600 8
  21263597.021    21263598.948   -54350468.337 9  39946944.873 8
 88  3 21  7 59 29.0800000  0  4G 3G 9G12G13
  22303748.542    22303750.873  -102950642.177 9 119859562.216 8
  23078135.838    23078140.301   -86850771.147 9 132200678.774 8
  21067564.873    21067566.479  -107071834.972 8 138652951.456 8
  21269127.278    21269129.514   -54321405.052 9  39969591.584 8
 88  3 21  7 59 59.0800000  0  4G 3G 9G12G13
  22296052.376    22296054.273  -102991083.321 9 119828049.660 9
  23100570.888    23100574.466   -86732878.355 8 132292543.300 8
  21075728.388    21075731.144  -107028930.586 9 138686383.445 9
  21274681.007    21274682.138   -54292222.193 9  39992331.460 9
 88  3 21  8  0 29.0800000  0  4G 3G 9G12G13
  22288387.081    22288390.089  -103031367.531 9 119796659.363 8
  23123042.759    23123046.533   -86614784.297 9 132384564.634 8
  21084006.957    21084010.290  -106985425.151 9 138720283.771 8
  21280256.886    21280257.889   -54262921.451 9  40015163.202 9
 88  3 21  8  0 59.0800000  0  4G 3G 9G12G13
  22280751.314    22280752.929  -103071495.135 9 119765391.113 9
  23145553.686    23145556.013   -86496492.408 9 132476740.135 8
  21092400.388    21092403.819  -106941319.218 9 138754652.008 8
  21285856.020    21285856.127   -54233502.585 9  40038086.987 8
 88  3 21  8  1 29.0800000  0  4G 3G 9G12G13
  22273144.538    22273146.678  -103111467.520 9 119734243.806 8
  23168100.086    23168103.481   -86378006.435 9 132569066.859 8
  21100907.515    21100910.619  -106896615.120 9 138789486.359 9
  21291474.921    21291476.409   -54203967.666 9  40061101.217 8
 88  3 21  8  1 59.0800000  0  4G 3G 9G12G13
  22265567.601    22265570.123  -103151284.874 9 119703217.309 9
  23190684.294    23190687.606   -86259329.453 9 132661542.424 8
  21109527.923    21109530.812  -106851313.934 9 138824785.969 9
  21297118.129    21297118.985   -54174317.509 9  40084205.227 7
 88  3 21  8  2 29.0800000  0  4G 3G 9G12G13
  22258019.755    22258021.661  -103190948.684 8 119672310.465 8
  23213304.190    23213307.049   -86140465.480 9 132754163.683 9
  21118261.712    21118263.357  -106805418.846 9 138860548.369 7
  21302781.248    21302783.686   -54144552.859 9  40107398.462 8
 88  3 21  8  2 59.0800000  0  4G 3G 9G12G13
  22250501.438    22250503.878  -103230459.639 9 119641522.714 8
  23235957.576    23235960.071   -86021418.509 9 132846927.557 9
  21127107.321    21127111.367  -106758931.369 9 138896772.359 9
  21308466.607    21308469.498   -54114676.018 9  40130679.105 8
 88  3 21  8  3 29.0800000  0  4G 3G 9G12G13
  22243012.250    22243013.351  -103269818.112 9 119610853.787 8
  23258645.933    23258648.751   -85902191.019 9 132939832.094 8
  21136066.394    21136069.551  -106711852.582 9 138933457.120 8
  21314173.441    21314174.972   -54084687.371 9  40154046.870 8
 88  3 21  8  3 59.0800000  0  4G 3G 9G12G13
  22235550.526    22235553.148  -103309024.883 8 119580303.054 8
  23281367.744    23281370.735   -85782786.602 9 133032874.472 9
  21145137.954    21145140.243  -106664184.598 9 138970600.989 8
  21319901.818    21319902.976   -54054587.427 9  40177501.371 9
 88  3 21  8  4 29.0800000  0  4G 3G 9G12G13
  22228118.818    22228121.287  -103348080.214 9 119549870.342 9
  23304123.532    23304125.813   -85663208.864 9 133126051.928 8
  21154320.354    21154323.696  -106615929.270 9 139008202.531 9
  21325649.074    21325650.952   -54024377.901 9  40201041.265 9
 88  3 21  8  4 59.0800000  0  4G 3G 9G12G13
  22220715.877    22220718.141  -103386984.820 9 119519555.074 9
  23326909.622    23326912.924   -85543460.684 8 133219362.182 9
  21163614.064    21163617.633  -106567088.471 9 139046260.281 8
  21331419.544    21331422.210   -53994059.097 9  40224666.314 7
 88  3 21  8  5 29.0800000  0  4G 3G 9G12G13
  22213340.390    22213343.918  -103425739.112 9 119489356.922 8
  23349729.577    23349731.540   -85423545.327 9 133312802.718 8
  21173019.308    21173022.891  -106517663.664 9 139084773.111 8
  21337209.246    21337210.311   -53963631.793 9  40248375.884 8
 88  3 21  8  5 59.0800000  0  4G 3G 9G12G13
  22205994.398    22205996.853  -103464345.060 9 119459274.384 9
  23372579.234    23372582.028   -85303467.642 9 133406369.718 8
  21182535.249    21182538.973  -106467657.978 8 139123738.567 7
  21343018.901    21343022.254   -53933098.175 9  40272168.302 8
 88  3 21  8  6 29.0800000  0  4G 3G 9G12G13
  22198675.719    22198677.711  -103502802.918 9 119429307.231 8
  23395458.877    23395462.487   -85183230.243 9 133500061.186 8
  21192161.429    21192164.483  -106417072.642 9 139163155.699 9
  21348850.188    21348851.532   -53902458.861 9  40296043.096 8
 88  3 21  8  6 59.0800000  0  4G 3G 9G12G13
  22191385.538    22191386.949  -103541112.981 9 119399455.249 8
  23418369.329    23418372.739   -85062836.253 8 133593874.661 8
  21201897.627    21201900.013  -106365909.263 9 139203023.255 9
  21354700.168    21354702.845   -53871714.431 9  40319999.788 8
 88  3 21  8  7 29.0800000  0  4G 3G 9G12G13
  22184123.842    22184125.797  -103579276.778 9 119369717.245 9
  23441308.171    23441311.990   -84942289.859 8 133687806.906 8
  21211742.549    21211746.683  -106314170.137 9 139243339.433 8
  21360570.162    21360574.052   -53840866.287 9  40344037.295 8
 88  3 21  8  7 59.0800000  0  4G 3G 9G12G13
  22176888.628    22176891.699  -103617294.341 9 119340093.167 8
  23464276.807    23464279.792   -84821593.744 9 133781855.813 9
  21221697.874    21221701.753  -106261857.310 9 139284102.657 8
  21366461.132    21366462.625   -53809915.235 9  40368154.994 8
 88  3 21  8  8 29.0800000  0  4G 3G 9G12G13
  22169681.040    22169683.824  -103655166.426 9 119310582.482 7
  23487271.035    23487276.006   -84700751.525 9 133876018.556 8
  21231761.262    21231764.521  -106208973.134 9 139325311.091 8
  21372369.142    21372372.044   -53778862.180 9  40392352.168 8
 88  3 21  8  8 59.0800000  0  4G 3G 9G12G13
  22162502.353    22162505.771  -103692893.718 9 119281184.595 8
  23510294.182    23510298.098   -84579766.890 9 133970292.291 8
  21241933.556    21241936.875  -106155519.636 9 139366963.156 7
  21378298.085    21378300.170   -53747708.511 9  40416627.760 8
 88  3 21  8  9 29.0800000  0  4G 3G 9G12G13
  22155350.232    22155352.587  -103730476.678 9 119251899.180 9
  23533343.903    23533347.672   -84458643.057 9 134064674.471 9
  21252213.063    21252216.229  -106101498.857 9 139409057.262 8
  21384244.848    21384248.760   -53716454.519 9  40440981.513 8
 88  3 21  8  9 59.0800000  0  4G 3G 9G12G13
  22148226.477    22148228.717  -103767916.108 9 119222725.609 8
  23556419.003    23556421.636   -84337383.028 9 134159162.796 9
  21262600.773    21262602.677  -106046912.675 9 139451591.933 8
  21390211.174    21390214.774   -53685100.596 9  40465413.129 8
 88  3 21  8 10 29.0800000  0  4G 3G 9G12G13
  22141129.432    22141131.100  -103805212.856 9 119193663.219 8
  23579518.304    23579522.609   -84215990.746 9 134253754.157 9
  21273095.291    21273097.797  -105991763.619 9 139494565.214 9
  21396196.553    21396199.823   -53653648.484 9  40489921.260 8
 88  3 21  8 10 59.0800000  0  4G 3G 9G12G13
  22134058.583    22134060.766  -103842367.687 9 119164711.408 9
  23602644.248    23602646.354   -84094469.463 9 134348446.054 8
  21283696.068    21283699.442  -105936053.734 9 139537975.495 7
  21402201.007    21402202.877   -53622099.018 9  40514505.249 8
 88  3 21  8 11 29.0800000  0  4G 3G 9G12G13
  22127015.260    22127017.114  -103879381.020 9 119135869.857 9
  23625792.273    23625795.736   -83972822.933 9 134443235.539 9
  21294403.617    21294407.305  -105879785.907 9 139581820.555 8
  21408222.529    21408226.163   -53590453.315 9  40539164.236 8
 88  3 21  8 11 59.0800000  0  4G 3G 9G12G13
  22119997.913    22120000.468  -103916253.541 9 119107138.034 9
  23648963.703    23648967.630   -83851053.974 9 134538120.423 9
  21305217.400    21305220.006  -105822961.731 9 139626099.112 8
  21414262.749    21414265.526   -53558711.420 9  40563898.179 8
 88  3 21  8 12 29.0800000  0  4G 3G 9G12G13
  22113008.669    22113010.904  -103952987.564 9 119078514.128 8
  23672158.713    23672162.234   -83729167.061 9 134633097.214 8
  21316135.402    21316139.429  -105765583.880 9 139670809.122 8
  21420320.938    21420323.645   -53526875.766 9  40588705.171 8
 88  3 21  8 12 59.0800000  0  4G 3G 9G12G13
  22106044.705    22106047.155  -103989582.409 9 119049998.666 8
  23695374.469    23695377.708   -83607164.744 8 134728163.951 8
  21327160.100    21327162.532  -105707654.176 9 139715949.141 8
  21426396.577    21426399.843   -53494946.188 9  40613585.371 8
 88  3 21  8 13 29.0800000  0  4G 3G 9G12G13
  22099106.797    22099109.772  -104026038.898 9 119021591.012 7
  23718610.772    23718615.694   -83485050.601 8 134823317.817 8
  21338287.663    21338290.666  -105649174.996 9 139761517.317 7
  21432490.650    21432493.325   -53462923.562 9  40638538.046 8
 88  3 21  8 13 59.0800000  0  4G 3G 9G12G13
  22092195.777    22092198.919  -104062357.717 9 118993290.642 8
  23741870.341    23741873.761   -83362828.052 9 134918556.145 8
  21349519.973    21349522.683  -105590149.018 9 139807511.557 8
  21438602.038    21438605.039   -53430808.744 9  40663562.582 8
 88  3 21  8 14 29.0800000  0  4G 3G 9G12G13
  22085311.391    22085312.782  -104098539.431 9 118965097.107 8
  23765148.035    23765151.590   -83240500.510 9 135013876.313 9
  21360855.908    21360858.835  -105530578.438 9 139853930.175 9
  21444729.662    21444734.042   -53398602.806 9  40688658.107 8
 88  3 21  8 14 59.0800000  0  4G 3G 9G12G13
  22078451.864    22078454.300  -104134584.822 9 118937009.793 9
  23788446.015    23788449.883   -83118071.048 8 135109275.894 8
  21372294.855    21372298.436  -105470465.378 9 139900771.520 8
  21450876.536    21450879.292   -53366306.522 9  40713824.035 8
 88  3 21  8 15 29.0800000  0  4G 3G 9G12G13
  22071618.014    22071620.411  -104170494.415 9 118909028.307 8
  23811762.301    23811765.464   -82995543.387 9 135204751.992 8
  21383836.950    21383838.871  -105409812.418 9 139948033.540 8
  21457039.921    21457041.809   -53333920.577 9  40739059.830 9
 88  3 21  8 15 59.0800000  0  4G 3G 9G12G13
  22064810.396    22064812.937  -104206268.895 9 118881152.090 7
  23835097.273    23835100.405   -82872920.634 9 135300302.204 8
  21395480.627    21395483.903  -105348621.667 9 139995714.632 8
  21463219.472    21463221.462   -53301445.486 9  40764365.091 8
 88  3 21  8 16 29.0800000  0  4G 3G 9G12G13
  22058028.554    22058031.573  -104241908.718 9 118853380.817 8
  23858449.261    23858451.298   -82750206.204 9 135395923.833 8
  21407226.592    21407230.696  -105286895.311 9 140043813.073 7
  21469416.142    21469417.604   -53268882.517 9  40789738.829 8
 88  3 21  8 16 59.0800000  0  4G 3G 9G12G13
  22051271.993    22051273.990  -104277415.049 9 118825713.545 8
  23881817.791    23881820.985   -82627403.621 9 135491614.154 8
  21419074.320    21419077.364  -105224636.681 9 140092326.274 8
  21475628.564    21475631.312   -53236232.466 9  40815180.419 8
 88  3 21  8 17 29.0800000  0  4G 3G 9G12G13
  22044539.184    22044542.516  -104312788.738 9 118798149.637 8
  23905202.280    23905204.547   -82504516.581 9 135587370.279 7
  21431022.617    21431026.045  -105161848.367 9 140141252.212 7
  21481858.614    21481861.019   -53203496.393 9  40840689.040 8
 88  3 21  8 17 59.0800000  0  4G 3G 9G12G13
  22037833.872    22037836.075  -104348029.895 9 118770688.995 8
  23928602.674    23928604.610   -82381547.759 9 135683190.143 8
  21443071.481    21443074.737  -105098531.723 9 140190589.830 8
  21488104.152    21488106.094   -53170674.028 9  40866264.896 9
 88  3 21  8 18 29.0800000  0  4G 3G 9G12G13
  22031152.820    22031155.323  -104383139.030 9 118743331.245 8
  23952017.069    23952020.476   -82258500.314 9 135779071.256 8
  21455219.339    21455223.554  -105034689.767 9 140240336.803 9
  21494366.037    21494368.802   -53137766.364 9  40891907.227 9
 88  3 21  8 18 59.0800000  0  4G 3G 9G12G13
  22024497.591    22024498.915  -104418117.485 9 118716075.300 8
  23975447.055    23975449.738   -82135378.826 9 135875010.066 7
  21467467.871    21467472.122  -104970325.940 9 140290490.419 8
  21500644.169    21500646.874   -53104774.838 9  40917614.903 8
 88  3 21  8 19 29.0800000  0  4G 3G 9G12G13
  22017865.943    22017868.217  -104452965.808 9 118688920.770 8
  23998890.158    23998892.974   -82012185.997 8 135971004.472 9
  21479815.168    21479818.739  -104905442.578 9 140341048.854 9
  21506938.415    21506940.852   -53071700.392 9  40943387.184 8
 88  3 21  8 19 59.0800000  0  4G 3G 9G12G13
  22011258.769    22011260.680  -104487685.006 9 118661866.868 8
  24022344.488    24022348.348   -81888925.383 8 136067051.677 9
  21492260.184    21492264.514  -104840042.071 9 140392010.284 8
  21513248.412    21513249.175   -53038543.481 9  40969223.726 7
 88  3 21  8 20 29.0800000  0  4G 3G 9G12G13
  22004676.145    22004679.062  -104522275.200 8 118634913.465 8
  24045813.352    24045816.809   -81765600.037 9 136163149.301 9
  21504804.333    21504807.255  -104774126.631 9 140443372.951 8
  21519572.644    21519576.107   -53005305.078 9  40995123.775 8
 88  3 21  8 20 59.0800000  0  4G 3G 9G12G13
  21998118.366    21998121.064  -104556736.590 9 118608060.446 8
  24069292.265    24069295.487   -81642212.661 8 136259295.293 7
  21517444.372    21517449.081  -104707698.604 9 140495135.039 9
  21525914.035    21525915.849   -52971984.938 9  41021087.519 8
 88  3 21  8 21 29.0800000  0  4G 3G 9G12G13
  21991585.481    21991587.057  -104591070.690 9 118581306.616 8
  24092783.802    24092786.303   -81518767.555 9 136355486.268 8
  21530182.491    21530185.254  -104640760.947 9 140547294.257 8
  21532269.133    21532272.200   -52938584.264 9  41047114.025 9
 88  3 21  8 21 59.0800000  0  4G 3G 9G12G13
  21985075.228    21985078.172  -104625277.485 9 118554651.961 8
  24116283.893    24116289.017   -81395267.647 9 136451719.949 8
  21543017.059    21543020.847  -104573316.279 9 140599848.520 8
  21538641.551    21538643.278   -52905103.327 9  41073203.063 9
 88  3 21  8 22 29.0800000  0  4G 3G 9G12G13
  21978589.816    21978592.757  -104659358.619 9 118528095.255 8
  24139795.584    24139799.111   -81271716.736 8 136547993.360 8
  21555946.635    21555949.341  -104505368.044 9 140652795.175 8
  21545027.023    21545028.988   -52871543.898 9  41099353.261 8
 88  3 21  8 22 59.0800000  0  4G 3G 9G12G13
  21972128.267    21972130.344  -104693314.504 9 118501636.120 8
  24163315.336    24163318.533   -81148118.273 8 136644303.838 8
  21568972.433    21568976.062  -104436919.088 9 140706132.024 8
  21551427.554    21551430.000   -52837906.930 9  41125563.890 8
 88  3 21  8 23 29.0800000  0  4G 3G 9G12G13
  21965690.783    21965693.972  -104727143.916 9 118475275.543 8
  24186844.304    24186848.397   -81024474.074 9 136740649.972 8
  21582092.402    21582095.895  -104367970.807 9 140759857.931 8
  21557843.384    21557845.843   -52804191.239 9  41151835.845 9
 88  3 21  8 23 59.0800000  0  4G 3G 9G12G13
  21959277.150    21959280.264  -104760849.874 8 118449011.178 8
  24210380.197    24210384.753   -80900789.094 9 136837027.885 9
  21595307.928    21595310.963  -104298527.408 8 140813969.660 8
  21564273.776    21564276.541   -52770399.041 9  41178167.417 9
 88  3 21  8 24 29.0800000  0  4G 3G 9G12G13
  21952886.890    21952888.902  -104794432.624 9 118422842.806 8
  24233924.427    24233928.850   -80777066.525 9 136933435.071 8
  21608615.644    21608619.428  -104228591.169 9 140868465.421 9
  21570719.586    21570721.543   -52736531.035 9  41204558.061 9
 88  3 21  8 24 59.0800000  0  4G 3G 9G12G13
  21946520.206    21946522.108  -104827892.373 9 118396770.279 8
  24257474.953    24257478.708   -80653309.293 9 137029869.299 9
  21622017.190    21622020.940  -104158164.542 9 140923343.306 7
  21577178.541    21577181.109   -52702587.478 9  41231007.588 8
 88  3 21  8 25 29.0800000  0  4G 3G 9G12G13
  21940175.593    21940178.872  -104861229.453 9 118370793.333 8
  24281030.917    24281034.438   -80529520.024 8 137126328.486 8
  21635512.086    21635515.903  -104087250.122 9 140978601.291 9
  21583652.249    21583653.250   -52668568.565 9  41257515.825 8
 88  3 21  8 25 59.0800000  0  4G 3G 9G12G13
  21933854.225    21933856.916  -104894443.974 9 118344911.900 9
  24304592.032    24304597.366   -80405702.309 9 137222809.818 8
  21649099.360    21649103.206  -104015850.710 9 141034237.177 8
  21590139.462    21590142.045   -52634475.024 9  41284082.220 7
 88  3 21  8 26 29.0800000  0  4G 3G 9G12G13
  21927557.719    21927560.294  -104927536.565 9 118319125.472 9
  24328159.396    24328163.012   -80281859.139 9 137319310.993 9
  21662777.379    21662780.564  -103943968.791 9 141090249.048 8
  21596641.905    21596644.142   -52600307.266 9  41310706.451 8
 88  3 21  8 26 59.0800000  0  4G 3G 9G12G13
  21921282.688    21921285.992  -104960508.797 9 118293432.820 9
  24351730.547    24351734.468   -80157994.205 9 137415829.130 8
  21676546.821    21676551.029  -103871607.997 9 141146634.077 9
  21603157.472    21603159.286   -52566066.078 9  41337387.893 9
 88  3 21  8 27 29.0800000  0  4G 3G 9G12G13
  21915031.448    21915034.884  -104993360.410 9 118267834.161 8
  24375303.968    24375307.909   -80034110.330 8 137512362.023 9
  21690407.656    21690411.303  -103798770.912 9 141203390.229 8
  21609686.997    21609689.400   -52531751.331 9  41364126.656 7
 88  3 21  8 27 59.0800000  0  4G 3G 9G12G13
  21908802.579    21908806.189  -105026092.325 9 118242328.794 9
  24398881.596    24398885.308   -79910210.961 9 137608906.981 8
  21704358.169    21704361.409  -103725460.417 9 141260515.264 9
  21616230.877    21616233.310   -52497363.928 9  41390922.027 8
 88  3 21  8 28 29.0800000  0  4G 3G 9G12G13
  21902598.232    21902599.828  -105058704.239 9 118216916.911 9
  24422461.360    24422464.877   -79786298.993 9 137705461.758 8
  21718398.489    21718401.633  -103651678.524 8 141318007.634 8
  21622788.103    21622791.500   -52462904.244 9  41417773.718 8
 88  3 21  8 28 59.0800000  0  4G 3G 9G12G13
  21896414.335    21896415.893  -105091197.728 9 118191597.324 8
  24446042.480    24446046.946   -79662377.910 9 137802023.649 7
  21732527.523    21732531.979  -103577428.762 9 141375864.574 8
  21629359.763    21629361.851   -52428373.798 9  41444680.559 8
 88  3 21  8 29 29.0800000  0  4G 3G 9G12G13
  21890252.940    21890255.500  -105123573.215 9 118166369.678 9
  24469625.126    24469628.489   -79538451.062 9 137898590.032 8
  21746745.854    21746749.185  -103502714.448 9 141434083.495 8
  21635942.964    21635946.028   -52393772.584 9  41471642.544 8
 88  3 21  8 29 59.0800000  0  4G 3G 9G12G13
  21884113.527    21884116.417  -105155831.223 9 118141233.573 7
  24493208.239    24493211.713   -79414521.925 8 137995158.170 8
  21761051.214    21761054.768  -103427538.691 9 141492661.984 9
  21642541.536    21642544.280   -52359100.878 9  41498659.452 9
 88  3 21  8 30 29.0800000  0  4G 3G 9G12G13
  21877997.260    21878000.564  -105187973.140 8 118116187.926 8
  24516790.932    24516793.619   -79290594.047 9 138091725.360 8
  21775443.995    21775447.190  -103351904.358 9 141551597.823 8
  21649151.540    21649155.047   -52324360.257 9  41525730.060 8
 88  3 21  8 30 59.0800000  0  4G 3G 9G12G13
  21871904.480    21871906.403  -105219998.144 9 118091233.378 8
  24540372.796    24540376.689   -79166669.680 9 138188289.800 8
  21789924.087    21789927.255  -103275813.546 9 141610889.358 8
  21655775.317    21655779.855   -52289549.965 9  41552854.965 8
 88  3 21  8 31 29.0800000  0  4G 3G 9G12G13
  21865832.113    21865834.086  -105251907.429 9 118066369.006 8
  24563953.610    24563956.316   -79042752.377 9 138284848.725 9
  21804489.726    21804493.209  -103199270.382 8 141670533.366 7
  21662412.854    21662417.206   -52254671.113 9  41580033.285 8
 88  3 21  8 31 59.0800000  0  4G 3G 9G12G13
  21859782.521    21859785.229  -105283701.422 9 118041594.469 8
  24587532.412    24587535.914   -78918845.141 9 138381399.821 8
  21819140.588    21819142.480  -103122277.004 9 141730528.197 8
  21669063.481    21669066.086   -52219723.876 9  41607264.889 8
 88  3 21  8 32 29.0800000  0  4G 3G 9G12G13
  21853753.135    21853755.227  -105315381.202 9 118016908.940 8
  24611108.361    24611111.906   -78794951.583 8 138477940.269 8
  21833876.831    21833879.880  -103044837.054 9 141790871.006 9
  21675726.548    21675729.908   -52184709.578 9  41634548.767 8
 88  3 21  8 32 59.0800000  0  4G 3G 9G12G13
  21847747.007    21847749.814  -105346946.891 9 117992312.300 9
  24634681.992    24634684.607   -78671074.420 9 138574467.929 8
  21848697.596    21848700.649  -102966953.310 9 141851559.631 9
  21682402.842    21682405.689   -52149627.517 9  41661885.443 8
 88  3 21  8 33 29.0800000  0  4G 3G 9G12G13
  21841761.255    21841764.193  -105378399.019 9 117967804.157 9
  24658250.424    24658254.245   -78547217.011 9 138670980.190 8
  21863602.665    21863605.681  -102888628.212 9 141912592.160 8
  21689090.543    21689094.407   -52114478.611 9  41689274.203 8
 88  3 21  8 33 59.0800000  0  4G 3G 9G12G13
  21835798.411    21835799.801  -105409738.020 9 117943384.156 9
  24681815.278    24681818.104   -78423382.565 9 138767474.579 8
  21878590.156    21878594.648  -102809865.564 9 141973965.632 8
  21695792.065    21695795.686   -52079263.449 9  41716714.584 9
 88  3 21  8 34 29.0800000  0  4G 3G 9G12G13
  21829855.599    21829857.442  -105440964.744 9 117919051.659 8
  24705376.174    24705379.261   -78299574.422 9 138863948.446 7
  21893660.981    21893665.127  -102730668.491 9 142035677.609 8
  21702505.598    21702510.196   -52043982.239 9  41744206.444 9
 88  3 21  8 34 59.0800000  0  4G 3G 9G12G13
  21823934.848    21823936.850  -105472079.057 9 117894806.727 8
  24728930.716    24728933.704   -78175795.480 9 138960399.599 7
  21908813.931    21908818.104  -102651039.735 9 142097725.987 8
  21709232.333    21709236.198   -52008635.872 8  41771749.054 9
 88  3 21  8 35 29.0800000  0  4G 3G 9G12G13
  21818035.111    21818038.766  -105503081.825 9 117870648.715 9
  24752478.429    24752481.764   -78052048.837 9 139056825.565 8
  21924049.193    21924052.347  -102570982.080 9 142160108.546 8
  21715971.928    21715974.914   -51973224.293 9  41799342.497 9
